Niobrara River (Nebraska), Mariaville (06463720)

StateNebraskaLatestGood (1680 cfs)
RiverNiobrara RiverRatingObservedEstimated
Updated2026-05-10 11:45 (24 minutes ago)Flood - The river is flooding. Obstacles can be treacherous or deadly. The river should be avoided at this stage for casual trips and definitely for the inexperienced. Trips should be attempted only with protective gear and equipment.Flood(none)3275
Discharge1680 cfs (median: 1780 cfs)High - The river is high and potentially dangerous, especially for the young and / or inexperienced. Normal stream obstacles are sometimes difficult to navigate. Extended distances can be attempted, but canoe travel may not be advisable.High(none)1772
Height3.26 feetGood - Conditions are ideal for a canoe or kayak. Boats typically will drag on fewer than one-quarter of riffles, if at all, and portages are unnecessary or rare. Normal float lengths can be attempted without a problem.Good(none)1556
TrendSteady (falling over 24 hours)Low - River is low but can still be floated. Some riffles are okay but most come with significant dragging and might need a portage. Float lengths should be reduced to accommodate low flow, dragging, and portages.Low(none)1243
USGSExternal icon USGS Site (External icon Duck Duck Go Maps)Poor - River is too low to float comfortably. Most or all riffles will drag or must be portaged and some obstacles (such as slick shelf rock) cause undue problems. Avoid the river at this stage for casual paddling trips.Poor(none)749

Trending Data

Plot Image

Trips for Niobrara River (Nebraska), Mariaville (06463720)

DateStartEndDistanceConditionDischargeHeightFishingDetails

A total of 0 rows are displayed.

Condition Descriptions

Fishing Conditions

Fish Species

Notes

Classic Trip List

The classic River Trips application is still available for use. It is updated with the new system using a data retrofit. It is no longer maintained. The original River Trips application is no longer updated (as of 1 Dec 2016) but can be checked for errors or for the condition of the data before it was converted to the new system.

Gauge Data Table

ObservationHeightDischargeMaximum
Discharge
Minimum
Discharge
Mean
Discharge
P05P10P20P25P50
(Median)
P75P80P90P95
2026-05-10 11:45 3.26 1680 2860 (2019) 1340 (2025) 1890 1360 1530 1570 1780 2170 2330 2780
2026-05-10 10:45 3.25 1680 2860 (2019) 1340 (2025) 1890 1360 1530 1570 1780 2170 2330 2780
2026-05-10 09:45 3.23 1660 2860 (2019) 1340 (2025) 1890 1360 1530 1570 1780 2170 2330 2780
2026-05-10 08:45 3.23 1660 2860 (2019) 1340 (2025) 1890 1360 1530 1570 1780 2170 2330 2780
2026-05-10 07:45 3.22 1650 2860 (2019) 1340 (2025) 1890 1360 1530 1570 1780 2170 2330 2780
2026-05-10 06:45 3.19 1630 2860 (2019) 1340 (2025) 1890 1360 1530 1570 1780 2170 2330 2780
2026-05-10 05:45 3.13 1580 2860 (2019) 1340 (2025) 1890 1360 1530 1570 1780 2170 2330 2780
2026-05-10 04:45 3.20 1630 2860 (2019) 1340 (2025) 1890 1360 1530 1570 1780 2170 2330 2780
2026-05-10 03:45 3.22 1650 2860 (2019) 1340 (2025) 1890 1360 1530 1570 1780 2170 2330 2780
2026-05-10 02:45 3.23 1660 2860 (2019) 1340 (2025) 1890 1360 1530 1570 1780 2170 2330 2780
2026-05-10 01:45 3.23 1660 2860 (2019) 1340 (2025) 1890 1360 1530 1570 1780 2170 2330 2780
2026-05-10 00:45 3.21 1640 2860 (2019) 1340 (2025) 1890 1360 1530 1570 1780 2170 2330 2780
2026-05-09 23:45 3.22 1650 2860 (2019) 1340 (2025) 1890 1360 1530 1570 1780 2170 2330 2780
2026-05-09 22:45 3.22 1650 2940 (2019) 1380 (2025) 1960 1380 1540 1590 1820 2420 2590 2840
2026-05-09 21:45 3.25 1680 2940 (2019) 1380 (2025) 1960 1380 1540 1590 1820 2420 2590 2840
2026-05-09 20:45 3.25 1680 2940 (2019) 1380 (2025) 1960 1380 1540 1590 1820 2420 2590 2840
2026-05-09 19:45 3.24 1670 2940 (2019) 1380 (2025) 1960 1380 1540 1590 1820 2420 2590 2840
2026-05-09 18:45 3.25 1680 2940 (2019) 1380 (2025) 1960 1380 1540 1590 1820 2420 2590 2840
2026-05-09 17:45 3.27 1690 2940 (2019) 1380 (2025) 1960 1380 1540 1590 1820 2420 2590 2840
2026-05-09 16:45 3.27 1690 2940 (2019) 1380 (2025) 1960 1380 1540 1590 1820 2420 2590 2840
2026-05-09 15:45 3.31 1720 2940 (2019) 1380 (2025) 1960 1380 1540 1590 1820 2420 2590 2840
2026-05-09 14:45 3.28 1700 2940 (2019) 1380 (2025) 1960 1380 1540 1590 1820 2420 2590 2840
2026-05-09 13:45 3.27 1690 2940 (2019) 1380 (2025) 1960 1380 1540 1590 1820 2420 2590 2840
2026-05-09 12:45 3.31 1720 2940 (2019) 1380 (2025) 1960 1380 1540 1590 1820 2420 2590 2840
2026-05-09 11:45 3.28 1700 2940 (2019) 1380 (2025) 1960 1380 1540 1590 1820 2420 2590 2840
2026-05-09 10:45 3.28 1700 2940 (2019) 1380 (2025) 1960 1380 1540 1590 1820 2420 2590 2840
2026-05-09 09:45 3.27 1690 2940 (2019) 1380 (2025) 1960 1380 1540 1590 1820 2420 2590 2840
2026-05-09 08:45 3.21 1640 2940 (2019) 1380 (2025) 1960 1380 1540 1590 1820 2420 2590 2840
2026-05-09 07:45 3.15 1600 2940 (2019) 1380 (2025) 1960 1380 1540 1590 1820 2420 2590 2840
2026-05-09 06:45 3.19 1630 2940 (2019) 1380 (2025) 1960 1380 1540 1590 1820 2420 2590 2840
2026-05-09 05:45 3.16 1600 2940 (2019) 1380 (2025) 1960 1380 1540 1590 1820 2420 2590 2840
2026-05-09 04:45 3.22 1650 2940 (2019) 1380 (2025) 1960 1380 1540 1590 1820 2420 2590 2840
2026-05-09 03:45 3.24 1670 2940 (2019) 1380 (2025) 1960 1380 1540 1590 1820 2420 2590 2840
2026-05-09 02:45 3.23 1660 2940 (2019) 1380 (2025) 1960 1380 1540 1590 1820 2420 2590 2840
2026-05-09 01:45 3.25 1680 2940 (2019) 1380 (2025) 1960 1380 1540 1590 1820 2420 2590 2840
2026-05-09 00:45 3.21 1640 2940 (2019) 1380 (2025) 1960 1380 1540 1590 1820 2420 2590 2840
2026-05-08 23:45 3.13 1580 2940 (2019) 1380 (2025) 1960 1380 1540 1590 1820 2420 2590 2840
2026-05-08 22:45 3.12 1570 3030 (2020) 1410 (2025) 1940 1420 1530 1550 1820 2350 2440 2840
2026-05-08 21:45 3.05 1520 3030 (2020) 1410 (2025) 1940 1420 1530 1550 1820 2350 2440 2840
2026-05-08 20:45 2.96 1350 3030 (2020) 1410 (2025) 1940 1420 1530 1550 1820 2350 2440 2840
2026-05-08 19:45 3.01 1490 3030 (2020) 1410 (2025) 1940 1420 1530 1550 1820 2350 2440 2840
2026-05-08 18:45 3.01 1490 3030 (2020) 1410 (2025) 1940 1420 1530 1550 1820 2350 2440 2840
2026-05-08 17:45 3.07 1530 3030 (2020) 1410 (2025) 1940 1420 1530 1550 1820 2350 2440 2840
2026-05-08 16:45 3.02 1500 3030 (2020) 1410 (2025) 1940 1420 1530 1550 1820 2350 2440 2840
2026-05-08 15:45 2.98 1410 3030 (2020) 1410 (2025) 1940 1420 1530 1550 1820 2350 2440 2840
2026-05-08 14:45 3.02 1500 3030 (2020) 1410 (2025) 1940 1420 1530 1550 1820 2350 2440 2840
2026-05-08 13:45 3.00 1480 3030 (2020) 1410 (2025) 1940 1420 1530 1550 1820 2350 2440 2840
2026-05-08 12:45 2.97 1380 3030 (2020) 1410 (2025) 1940 1420 1530 1550 1820 2350 2440 2840
2026-05-08 11:45 3.06 1530 3030 (2020) 1410 (2025) 1940 1420 1530 1550 1820 2350 2440 2840
2026-05-08 10:45 3.03 1500 3030 (2020) 1410 (2025) 1940 1420 1530 1550 1820 2350 2440 2840
2026-05-08 09:45 3.04 1510 3030 (2020) 1410 (2025) 1940 1420 1530 1550 1820 2350 2440 2840
2026-05-08 08:45 3.15 1600 3030 (2020) 1410 (2025) 1940 1420 1530 1550 1820 2350 2440 2840
2026-05-08 07:45 3.08 1540 3030 (2020) 1410 (2025) 1940 1420 1530 1550 1820 2350 2440 2840
2026-05-08 06:45 3.12 1570 3030 (2020) 1410 (2025) 1940 1420 1530 1550 1820 2350 2440 2840
2026-05-08 05:45 3.12 1570 3030 (2020) 1410 (2025) 1940 1420 1530 1550 1820 2350 2440 2840
2026-05-08 04:45 3.14 1590 3030 (2020) 1410 (2025) 1940 1420 1530 1550 1820 2350 2440 2840
2026-05-08 03:45 3.19 1630 3030 (2020) 1410 (2025) 1940 1420 1530 1550 1820 2350 2440 2840
2026-05-08 02:45 3.11 1560 3030 (2020) 1410 (2025) 1940 1420 1530 1550 1820 2350 2440 2840
2026-05-08 01:45 3.13 1580 3030 (2020) 1410 (2025) 1940 1420 1530 1550 1820 2350 2440 2840
2026-05-08 00:45 3.14 1590 3030 (2020) 1410 (2025) 1940 1420 1530 1550 1820 2350 2440 2840
2026-05-07 23:45 3.14 1590 3030 (2020) 1410 (2025) 1940 1420 1530 1550 1820 2350 2440 2840
2026-05-07 22:45 3.12 1570 2930 (2020) 1360 (2013) 1870 1380 1430 1460 1880 2150 2190 2690
2026-05-07 21:45 3.10 1560 2930 (2020) 1360 (2013) 1870 1380 1430 1460 1880 2150 2190 2690
2026-05-07 20:45 3.09 1550 2930 (2020) 1360 (2013) 1870 1380 1430 1460 1880 2150 2190 2690
2026-05-07 19:45 3.10 1560 2930 (2020) 1360 (2013) 1870 1380 1430 1460 1880 2150 2190 2690
2026-05-07 18:45 3.10 1560 2930 (2020) 1360 (2013) 1870 1380 1430 1460 1880 2150 2190 2690
2026-05-07 17:45 3.11 1560 2930 (2020) 1360 (2013) 1870 1380 1430 1460 1880 2150 2190 2690
2026-05-07 16:45 3.14 1590 2930 (2020) 1360 (2013) 1870 1380 1430 1460 1880 2150 2190 2690
2026-05-07 15:45 3.13 1580 2930 (2020) 1360 (2013) 1870 1380 1430 1460 1880 2150 2190 2690
2026-05-07 14:45 3.15 1600 2930 (2020) 1360 (2013) 1870 1380 1430 1460 1880 2150 2190 2690
2026-05-07 13:45 3.17 1610 2930 (2020) 1360 (2013) 1870 1380 1430 1460 1880 2150 2190 2690
2026-05-07 12:45 3.14 1590 2930 (2020) 1360 (2013) 1870 1380 1430 1460 1880 2150 2190 2690
2026-05-07 11:45 3.14 1590 2930 (2020) 1360 (2013) 1870 1380 1430 1460 1880 2150 2190 2690
2026-05-07 10:45 3.10 1560 2930 (2020) 1360 (2013) 1870 1380 1430 1460 1880 2150 2190 2690
2026-05-07 09:45 3.11 1560 2930 (2020) 1360 (2013) 1870 1380 1430 1460 1880 2150 2190 2690
2026-05-07 08:45 3.12 1570 2930 (2020) 1360 (2013) 1870 1380 1430 1460 1880 2150 2190 2690
2026-05-07 07:45 3.17 1610 2930 (2020) 1360 (2013) 1870 1380 1430 1460 1880 2150 2190 2690
2026-05-07 06:45 3.20 1630 2930 (2020) 1360 (2013) 1870 1380 1430 1460 1880 2150 2190 2690
2026-05-07 05:45 3.22 1650 2930 (2020) 1360 (2013) 1870 1380 1430 1460 1880 2150 2190 2690
2026-05-07 04:45 3.19 1630 2930 (2020) 1360 (2013) 1870 1380 1430 1460 1880 2150 2190 2690
2026-05-07 03:45 3.17 1610 2930 (2020) 1360 (2013) 1870 1380 1430 1460 1880 2150 2190 2690
2026-05-07 02:45 3.15 1600 2930 (2020) 1360 (2013) 1870 1380 1430 1460 1880 2150 2190 2690
2026-05-07 01:45 3.12 1570 2930 (2020) 1360 (2013) 1870 1380 1430 1460 1880 2150 2190 2690
2026-05-07 00:45 3.15 1600 2930 (2020) 1360 (2013) 1870 1380 1430 1460 1880 2150 2190 2690
2026-05-06 23:45 3.14 1590 2930 (2020) 1360 (2013) 1870 1380 1430 1460 1880 2150 2190 2690
2026-05-06 22:45 3.12 1570 2900 (2020) 1280 (2023) 1870 1290 1400 1450 1750 2260 2410 2730
2026-05-06 21:45 3.12 1570 2900 (2020) 1280 (2023) 1870 1290 1400 1450 1750 2260 2410 2730
2026-05-06 20:45 3.12 1570 2900 (2020) 1280 (2023) 1870 1290 1400 1450 1750 2260 2410 2730
2026-05-06 19:45 3.15 1600 2900 (2020) 1280 (2023) 1870 1290 1400 1450 1750 2260 2410 2730
2026-05-06 18:45 3.15 1600 2900 (2020) 1280 (2023) 1870 1290 1400 1450 1750 2260 2410 2730
2026-05-06 17:45 3.18 1620 2900 (2020) 1280 (2023) 1870 1290 1400 1450 1750 2260 2410 2730
2026-05-06 16:45 3.18 1620 2900 (2020) 1280 (2023) 1870 1290 1400 1450 1750 2260 2410 2730
2026-05-06 15:45 3.20 1630 2900 (2020) 1280 (2023) 1870 1290 1400 1450 1750 2260 2410 2730
2026-05-06 14:45 3.22 1650 2900 (2020) 1280 (2023) 1870 1290 1400 1450 1750 2260 2410 2730
2026-05-06 13:45 3.23 1660 2900 (2020) 1280 (2023) 1870 1290 1400 1450 1750 2260 2410 2730
2026-05-06 12:45 3.23 1660 2900 (2020) 1280 (2023) 1870 1290 1400 1450 1750 2260 2410 2730
2026-05-06 11:45 3.22 1650 2900 (2020) 1280 (2023) 1870 1290 1400 1450 1750 2260 2410 2730
2026-05-06 10:45 3.22 1650 2900 (2020) 1280 (2023) 1870 1290 1400 1450 1750 2260 2410 2730
2026-05-06 09:45 3.23 1660 2900 (2020) 1280 (2023) 1870 1290 1400 1450 1750 2260 2410 2730
2026-05-06 08:45 3.23 1660 2900 (2020) 1280 (2023) 1870 1290 1400 1450 1750 2260 2410 2730
2026-05-06 07:45 3.25 1680 2900 (2020) 1280 (2023) 1870 1290 1400 1450 1750 2260 2410 2730
2026-05-06 06:45 3.24 1670 2900 (2020) 1280 (2023) 1870 1290 1400 1450 1750 2260 2410 2730
2026-05-06 05:45 3.22 1650 2900 (2020) 1280 (2023) 1870 1290 1400 1450 1750 2260 2410 2730
2026-05-06 04:45 3.21 1640 2900 (2020) 1280 (2023) 1870 1290 1400 1450 1750 2260 2410 2730
2026-05-06 03:45 3.21 1640 2900 (2020) 1280 (2023) 1870 1290 1400 1450 1750 2260 2410 2730
2026-05-06 02:45 3.23 1660 2900 (2020) 1280 (2023) 1870 1290 1400 1450 1750 2260 2410 2730
2026-05-06 01:45 3.26 1680 2900 (2020) 1280 (2023) 1870 1290 1400 1450 1750 2260 2410 2730
2026-05-06 00:45 3.27 1690 2900 (2020) 1280 (2023) 1870 1290 1400 1450 1750 2260 2410 2730
2026-05-05 23:45 3.27 1690 2900 (2020) 1280 (2023) 1870 1290 1400 1450 1750 2260 2410 2730
2026-05-05 22:45 3.29 1710 2780 (2016) 1140 (2013) 1840 1220 1350 1370 1650 2290 2380 2770
2026-05-05 21:45 3.28 1700 2780 (2016) 1140 (2013) 1840 1220 1350 1370 1650 2290 2380 2770
2026-05-05 20:45 3.27 1690 2780 (2016) 1140 (2013) 1840 1220 1350 1370 1650 2290 2380 2770
2026-05-05 19:45 3.27 1690 2780 (2016) 1140 (2013) 1840 1220 1350 1370 1650 2290 2380 2770
2026-05-05 18:45 3.27 1690 2780 (2016) 1140 (2013) 1840 1220 1350 1370 1650 2290 2380 2770
2026-05-05 17:45 3.25 1680 2780 (2016) 1140 (2013) 1840 1220 1350 1370 1650 2290 2380 2770
2026-05-05 16:45 3.24 1670 2780 (2016) 1140 (2013) 1840 1220 1350 1370 1650 2290 2380 2770
2026-05-05 15:45 3.26 1680 2780 (2016) 1140 (2013) 1840 1220 1350 1370 1650 2290 2380 2770
2026-05-05 14:45 3.26 1680 2780 (2016) 1140 (2013) 1840 1220 1350 1370 1650 2290 2380 2770
2026-05-05 13:45 3.29 1710 2780 (2016) 1140 (2013) 1840 1220 1350 1370 1650 2290 2380 2770
2026-05-05 12:45 3.23 1660 2780 (2016) 1140 (2013) 1840 1220 1350 1370 1650 2290 2380 2770
2026-05-05 11:45 3.23 1660 2780 (2016) 1140 (2013) 1840 1220 1350 1370 1650 2290 2380 2770
2026-05-05 11:00 3.20 1630 2780 (2016) 1140 (2013) 1840 1220 1350 1370 1650 2290 2380 2770
2026-05-05 10:45 3.20 1630 2780 (2016) 1140 (2013) 1840 1220 1350 1370 1650 2290 2380 2770
2026-05-05 09:45 3.20 1630 2780 (2016) 1140 (2013) 1840 1220 1350 1370 1650 2290 2380 2770
2026-05-05 08:45 3.25 1680 2780 (2016) 1140 (2013) 1840 1220 1350 1370 1650 2290 2380 2770
2026-05-05 07:45 3.19 1630 2780 (2016) 1140 (2013) 1840 1220 1350 1370 1650 2290 2380 2770
2026-05-05 06:45 3.26 1680 2780 (2016) 1140 (2013) 1840 1220 1350 1370 1650 2290 2380 2770
2026-05-05 05:45 3.26 1680 2780 (2016) 1140 (2013) 1840 1220 1350 1370 1650 2290 2380 2770
2026-05-05 04:45 3.25 1680 2780 (2016) 1140 (2013) 1840 1220 1350 1370 1650 2290 2380 2770
2026-05-05 03:45 3.27 1690 2780 (2016) 1140 (2013) 1840 1220 1350 1370 1650 2290 2380 2770
2026-05-05 02:45 3.25 1680 2780 (2016) 1140 (2013) 1840 1220 1350 1370 1650 2290 2380 2770
2026-05-05 01:45 3.28 1700 2780 (2016) 1140 (2013) 1840 1220 1350 1370 1650 2290 2380 2770
2026-05-05 00:45 3.27 1690 2780 (2016) 1140 (2013) 1840 1220 1350 1370 1650 2290 2380 2770
2026-05-04 23:45 3.28 1700 2780 (2016) 1140 (2013) 1840 1220 1350 1370 1650 2290 2380 2770
2026-05-04 22:45 3.31 1720 3180 (2016) 1320 (2013) 1920 1360 1410 1460 1690 2150 2360 3130
2026-05-04 21:45 3.30 1720 3180 (2016) 1320 (2013) 1920 1360 1410 1460 1690 2150 2360 3130
2026-05-04 20:45 3.32 1730 3180 (2016) 1320 (2013) 1920 1360 1410 1460 1690 2150 2360 3130
2026-05-04 19:45 3.32 1730 3180 (2016) 1320 (2013) 1920 1360 1410 1460 1690 2150 2360 3130
2026-05-04 18:45 3.34 1750 3180 (2016) 1320 (2013) 1920 1360 1410 1460 1690 2150 2360 3130
2026-05-04 17:45 3.32 1730 3180 (2016) 1320 (2013) 1920 1360 1410 1460 1690 2150 2360 3130
2026-05-04 16:45 3.33 1740 3180 (2016) 1320 (2013) 1920 1360 1410 1460 1690 2150 2360 3130
2026-05-04 15:45 3.33 1740 3180 (2016) 1320 (2013) 1920 1360 1410 1460 1690 2150 2360 3130
2026-05-04 14:45 3.36 1770 3180 (2016) 1320 (2013) 1920 1360 1410 1460 1690 2150 2360 3130
2026-05-04 13:45 3.34 1750 3180 (2016) 1320 (2013) 1920 1360 1410 1460 1690 2150 2360 3130
2026-05-04 12:45 3.33 1740 3180 (2016) 1320 (2013) 1920 1360 1410 1460 1690 2150 2360 3130
2026-05-04 11:45 3.32 1730 3180 (2016) 1320 (2013) 1920 1360 1410 1460 1690 2150 2360 3130
2026-05-04 10:45 3.34 1750 3180 (2016) 1320 (2013) 1920 1360 1410 1460 1690 2150 2360 3130
2026-05-04 09:45 3.38 1780 3180 (2016) 1320 (2013) 1920 1360 1410 1460 1690 2150 2360 3130
2026-05-04 08:45 3.38 1780 3180 (2016) 1320 (2013) 1920 1360 1410 1460 1690 2150 2360 3130
2026-05-04 07:45 3.34 1750 3180 (2016) 1320 (2013) 1920 1360 1410 1460 1690 2150 2360 3130
2026-05-04 06:45 3.36 1770 3180 (2016) 1320 (2013) 1920 1360 1410 1460 1690 2150 2360 3130
2026-05-04 05:45 3.37 1780 3180 (2016) 1320 (2013) 1920 1360 1410 1460 1690 2150 2360 3130
2026-05-04 04:45 3.40 1800 3180 (2016) 1320 (2013) 1920 1360 1410 1460 1690 2150 2360 3130
2026-05-04 03:45 3.33 1740 3180 (2016) 1320 (2013) 1920 1360 1410 1460 1690 2150 2360 3130
2026-05-04 02:45 3.27 1690 3180 (2016) 1320 (2013) 1920 1360 1410 1460 1690 2150 2360 3130
2026-05-04 01:45 3.39 1790 3180 (2016) 1320 (2013) 1920 1360 1410 1460 1690 2150 2360 3130
2026-05-04 00:45 3.34 1750 3180 (2016) 1320 (2013) 1920 1360 1410 1460 1690 2150 2360 3130
2026-05-03 23:45 3.36 1770 3180 (2016) 1320 (2013) 1920 1360 1410 1460 1690 2150 2360 3130
2026-05-03 22:45 3.35 1760 3370 (2016) 1220 (2013) 1900 1280 1400 1460 1770 2170 2350 3180
2026-05-03 21:45 3.33 1740 3370 (2016) 1220 (2013) 1900 1280 1400 1460 1770 2170 2350 3180
2026-05-03 20:45 3.31 1720 3370 (2016) 1220 (2013) 1900 1280 1400 1460 1770 2170 2350 3180
2026-05-03 19:45 3.30 1720 3370 (2016) 1220 (2013) 1900 1280 1400 1460 1770 2170 2350 3180
2026-05-03 18:45 3.28 1700 3370 (2016) 1220 (2013) 1900 1280 1400 1460 1770 2170 2350 3180
2026-05-03 17:45 3.32 1730 3370 (2016) 1220 (2013) 1900 1280 1400 1460 1770 2170 2350 3180
2026-05-03 16:45 3.32 1730 3370 (2016) 1220 (2013) 1900 1280 1400 1460 1770 2170 2350 3180
2026-05-03 15:45 3.31 1720 3370 (2016) 1220 (2013) 1900 1280 1400 1460 1770 2170 2350 3180
2026-05-03 14:45 3.34 1750 3370 (2016) 1220 (2013) 1900 1280 1400 1460 1770 2170 2350 3180
2026-05-03 13:45 3.32 1730 3370 (2016) 1220 (2013) 1900 1280 1400 1460 1770 2170 2350 3180
2026-05-03 12:45 3.30 1720 3370 (2016) 1220 (2013) 1900 1280 1400 1460 1770 2170 2350 3180
2026-05-03 11:45 3.32 1730 3370 (2016) 1220 (2013) 1900 1280 1400 1460 1770 2170 2350 3180
2026-05-03 10:45 3.30 1720 3370 (2016) 1220 (2013) 1900 1280 1400 1460 1770 2170 2350 3180
2026-05-03 09:45 3.23 1660 3370 (2016) 1220 (2013) 1900 1280 1400 1460 1770 2170 2350 3180
2026-05-03 08:45 3.22 1650 3370 (2016) 1220 (2013) 1900 1280 1400 1460 1770 2170 2350 3180
2026-05-03 07:45 3.21 1640 3370 (2016) 1220 (2013) 1900 1280 1400 1460 1770 2170 2350 3180
2026-05-03 06:45 3.25 1680 3370 (2016) 1220 (2013) 1900 1280 1400 1460 1770 2170 2350 3180
2026-05-03 05:45 3.24 1670 3370 (2016) 1220 (2013) 1900 1280 1400 1460 1770 2170 2350 3180
2026-05-03 04:45 3.29 1710 3370 (2016) 1220 (2013) 1900 1280 1400 1460 1770 2170 2350 3180
2026-05-03 03:45 3.25 1680 3370 (2016) 1220 (2013) 1900 1280 1400 1460 1770 2170 2350 3180
2026-05-03 02:45 3.27 1690 3370 (2016) 1220 (2013) 1900 1280 1400 1460 1770 2170 2350 3180
2026-05-03 01:45 3.29 1710 3370 (2016) 1220 (2013) 1900 1280 1400 1460 1770 2170 2350 3180
2026-05-03 00:45 3.28 1700 3370 (2016) 1220 (2013) 1900 1280 1400 1460 1770 2170 2350 3180
2026-05-02 23:45 3.26 1680 3370 (2016) 1220 (2013) 1900 1280 1400 1460 1770 2170 2350 3180
2026-05-02 22:45 3.26 1680 3410 (2016) 1420 (2017) 1930 1420 1460 1500 1710 2230 2480 3250
2026-05-02 21:45 3.23 1660 3410 (2016) 1420 (2017) 1930 1420 1460 1500 1710 2230 2480 3250
2026-05-02 20:45 3.21 1640 3410 (2016) 1420 (2017) 1930 1420 1460 1500 1710 2230 2480 3250
2026-05-02 19:45 3.22 1650 3410 (2016) 1420 (2017) 1930 1420 1460 1500 1710 2230 2480 3250
2026-05-02 18:45 3.23 1660 3410 (2016) 1420 (2017) 1930 1420 1460 1500 1710 2230 2480 3250
2026-05-02 17:45 3.26 1680 3410 (2016) 1420 (2017) 1930 1420 1460 1500 1710 2230 2480 3250
2026-05-02 16:45 3.29 1710 3410 (2016) 1420 (2017) 1930 1420 1460 1500 1710 2230 2480 3250
2026-05-02 15:45 3.31 1720 3410 (2016) 1420 (2017) 1930 1420 1460 1500 1710 2230 2480 3250
2026-05-02 14:45 3.31 1720 3410 (2016) 1420 (2017) 1930 1420 1460 1500 1710 2230 2480 3250
2026-05-02 13:45 3.32 1730 3410 (2016) 1420 (2017) 1930 1420 1460 1500 1710 2230 2480 3250
2026-05-02 12:45 3.32 1730 3410 (2016) 1420 (2017) 1930 1420 1460 1500 1710 2230 2480 3250
2026-05-02 11:45 3.29 1710 3410 (2016) 1420 (2017) 1930 1420 1460 1500 1710 2230 2480 3250
2026-05-02 10:45 3.32 1730 3410 (2016) 1420 (2017) 1930 1420 1460 1500 1710 2230 2480 3250
2026-05-02 09:45 3.28 1700 3410 (2016) 1420 (2017) 1930 1420 1460 1500 1710 2230 2480 3250
2026-05-02 08:45 3.27 1690 3410 (2016) 1420 (2017) 1930 1420 1460 1500 1710 2230 2480 3250
2026-05-02 07:45 3.26 1680 3410 (2016) 1420 (2017) 1930 1420 1460 1500 1710 2230 2480 3250
2026-05-02 06:45 3.28 1700 3410 (2016) 1420 (2017) 1930 1420 1460 1500 1710 2230 2480 3250
2026-05-02 05:45 3.32 1730 3410 (2016) 1420 (2017) 1930 1420 1460 1500 1710 2230 2480 3250
2026-05-02 04:45 3.26 1680 3410 (2016) 1420 (2017) 1930 1420 1460 1500 1710 2230 2480 3250
2026-05-02 03:45 3.23 1660 3410 (2016) 1420 (2017) 1930 1420 1460 1500 1710 2230 2480 3250
2026-05-02 02:45 3.22 1650 3410 (2016) 1420 (2017) 1930 1420 1460 1500 1710 2230 2480 3250
2026-05-02 01:45 3.26 1680 3410 (2016) 1420 (2017) 1930 1420 1460 1500 1710 2230 2480 3250
2026-05-02 00:45 3.20 1630 3410 (2016) 1420 (2017) 1930 1420 1460 1500 1710 2230 2480 3250
2026-05-01 23:45 3.23 1660 3410 (2016) 1420 (2017) 1930 1420 1460 1500 1710 2230 2480 3250
2026-05-01 22:45 3.23 1660 2920 (2016) 1420 (2017) 1950 1450 1510 1520 1730 2410 2790 2880
2026-05-01 21:45 3.29 1710 2920 (2016) 1420 (2017) 1950 1450 1510 1520 1730 2410 2790 2880
2026-05-01 20:45 3.19 1630 2920 (2016) 1420 (2017) 1950 1450 1510 1520 1730 2410 2790 2880
2026-05-01 19:45 3.27 1690 2920 (2016) 1420 (2017) 1950 1450 1510 1520 1730 2410 2790 2880
2026-05-01 18:45 3.21 1640 2920 (2016) 1420 (2017) 1950 1450 1510 1520 1730 2410 2790 2880
2026-05-01 17:45 3.19 1630 2920 (2016) 1420 (2017) 1950 1450 1510 1520 1730 2410 2790 2880
2026-05-01 16:45 3.25 1680 2920 (2016) 1420 (2017) 1950 1450 1510 1520 1730 2410 2790 2880
2026-05-01 15:45 3.32 1730 2920 (2016) 1420 (2017) 1950 1450 1510 1520 1730 2410 2790 2880
2026-05-01 14:45 3.31 1720 2920 (2016) 1420 (2017) 1950 1450 1510 1520 1730 2410 2790 2880
2026-05-01 13:45 3.16 1600 2920 (2016) 1420 (2017) 1950 1450 1510 1520 1730 2410 2790 2880
2026-05-01 12:45 3.27 1690 2920 (2016) 1420 (2017) 1950 1450 1510 1520 1730 2410 2790 2880
2026-05-01 11:45 3.24 1670 2920 (2016) 1420 (2017) 1950 1450 1510 1520 1730 2410 2790 2880
2026-05-01 10:45 3.24 1670 2920 (2016) 1420 (2017) 1950 1450 1510 1520 1730 2410 2790 2880
2026-05-01 09:45 3.25 1680 2920 (2016) 1420 (2017) 1950 1450 1510 1520 1730 2410 2790 2880
2026-05-01 08:45 3.34 1750 2920 (2016) 1420 (2017) 1950 1450 1510 1520 1730 2410 2790 2880
2026-05-01 07:45 3.35 1760 2920 (2016) 1420 (2017) 1950 1450 1510 1520 1730 2410 2790 2880
2026-05-01 06:45 3.32 1730 2920 (2016) 1420 (2017) 1950 1450 1510 1520 1730 2410 2790 2880
2026-05-01 05:45 3.28 1700 2920 (2016) 1420 (2017) 1950 1450 1510 1520 1730 2410 2790 2880
2026-05-01 04:45 3.32 1730 2920 (2016) 1420 (2017) 1950 1450 1510 1520 1730 2410 2790 2880
2026-05-01 03:45 3.33 1740 2920 (2016) 1420 (2017) 1950 1450 1510 1520 1730 2410 2790 2880
2026-05-01 02:45 3.33 1740 2920 (2016) 1420 (2017) 1950 1450 1510 1520 1730 2410 2790 2880
2026-05-01 01:45 3.25 1680 2920 (2016) 1420 (2017) 1950 1450 1510 1520 1730 2410 2790 2880
2026-05-01 00:45 3.17 1610 2920 (2016) 1420 (2017) 1950 1450 1510 1520 1730 2410 2790 2880
2026-04-30 23:45 3.10 1560 2920 (2016) 1420 (2017) 1950 1450 1510 1520 1730 2410 2790 2880
2026-04-30 22:45 3.14 1590 2970 (2016) 1380 (2021) 1940 1380 1410 1480 1720 2430 2810 2910
2026-04-30 21:45 3.12 1570 2970 (2016) 1380 (2021) 1940 1380 1410 1480 1720 2430 2810 2910
2026-04-30 20:45 3.06 1530 2970 (2016) 1380 (2021) 1940 1380 1410 1480 1720 2430 2810 2910
2026-04-30 19:45 3.07 1530 2970 (2016) 1380 (2021) 1940 1380 1410 1480 1720 2430 2810 2910
2026-04-30 18:45 3.08 1540 2970 (2016) 1380 (2021) 1940 1380 1410 1480 1720 2430 2810 2910
2026-04-30 17:45 3.23 1660 2970 (2016) 1380 (2021) 1940 1380 1410 1480 1720 2430 2810 2910
2026-04-30 16:45 3.20 1630 2970 (2016) 1380 (2021) 1940 1380 1410 1480 1720 2430 2810 2910
2026-04-30 15:45 3.18 1620 2970 (2016) 1380 (2021) 1940 1380 1410 1480 1720 2430 2810 2910
2026-04-30 14:45 3.20 1630 2970 (2016) 1380 (2021) 1940 1380 1410 1480 1720 2430 2810 2910
2026-04-30 13:45 3.20 1630 2970 (2016) 1380 (2021) 1940 1380 1410 1480 1720 2430 2810 2910
2026-04-30 12:45 3.19 1630 2970 (2016) 1380 (2021) 1940 1380 1410 1480 1720 2430 2810 2910
2026-04-30 11:45 3.20 1630 2970 (2016) 1380 (2021) 1940 1380 1410 1480 1720 2430 2810 2910
2026-04-30 10:45 3.18 1620 2970 (2016) 1380 (2021) 1940 1380 1410 1480 1720 2430 2810 2910
2026-04-30 09:45 3.21 1640 2970 (2016) 1380 (2021) 1940 1380 1410 1480 1720 2430 2810 2910
2026-04-30 08:45 3.21 1640 2970 (2016) 1380 (2021) 1940 1380 1410 1480 1720 2430 2810 2910
2026-04-30 07:45 3.21 1640 2970 (2016) 1380 (2021) 1940 1380 1410 1480 1720 2430 2810 2910
2026-04-30 06:45 3.22 1650 2970 (2016) 1380 (2021) 1940 1380 1410 1480 1720 2430 2810 2910
2026-04-30 05:45 3.22 1650 2970 (2016) 1380 (2021) 1940 1380 1410 1480 1720 2430 2810 2910
2026-04-30 04:45 3.21 1640 2970 (2016) 1380 (2021) 1940 1380 1410 1480 1720 2430 2810 2910
2026-04-30 03:45 3.23 1660 2970 (2016) 1380 (2021) 1940 1380 1410 1480 1720 2430 2810 2910
2026-04-30 02:45 3.24 1670 2970 (2016) 1380 (2021) 1940 1380 1410 1480 1720 2430 2810 2910
2026-04-30 01:45 3.24 1670 2970 (2016) 1380 (2021) 1940 1380 1410 1480 1720 2430 2810 2910
2026-04-30 00:45 3.25 1680 2970 (2016) 1380 (2021) 1940 1380 1410 1480 1720 2430 2810 2910
2026-04-29 23:45 3.21 1640 2970 (2016) 1380 (2021) 1940 1380 1410 1480 1720 2430 2810 2910
2026-04-29 22:45 3.20 1630 2780 (2020) 1410 (2017) 1920 1460 1540 1540 1790 2250 2510 2740
2026-04-29 21:45 3.23 1660 2780 (2020) 1410 (2017) 1920 1460 1540 1540 1790 2250 2510 2740
2026-04-29 20:45 3.26 1680 2780 (2020) 1410 (2017) 1920 1460 1540 1540 1790 2250 2510 2740
2026-04-29 19:45 3.29 1710 2780 (2020) 1410 (2017) 1920 1460 1540 1540 1790 2250 2510 2740
2026-04-29 18:45 3.26 1680 2780 (2020) 1410 (2017) 1920 1460 1540 1540 1790 2250 2510 2740
2026-04-29 17:45 3.24 1670 2780 (2020) 1410 (2017) 1920 1460 1540 1540 1790 2250 2510 2740
2026-04-29 16:45 3.26 1680 2780 (2020) 1410 (2017) 1920 1460 1540 1540 1790 2250 2510 2740
2026-04-29 15:45 3.27 1690 2780 (2020) 1410 (2017) 1920 1460 1540 1540 1790 2250 2510 2740
2026-04-29 14:45 3.26 1680 2780 (2020) 1410 (2017) 1920 1460 1540 1540 1790 2250 2510 2740
2026-04-29 13:45 3.24 1670 2780 (2020) 1410 (2017) 1920 1460 1540 1540 1790 2250 2510 2740
2026-04-29 12:45 3.28 1700 2780 (2020) 1410 (2017) 1920 1460 1540 1540 1790 2250 2510 2740
2026-04-29 11:45 3.29 1710 2780 (2020) 1410 (2017) 1920 1460 1540 1540 1790 2250 2510 2740
2026-04-29 10:45 3.28 1700 2780 (2020) 1410 (2017) 1920 1460 1540 1540 1790 2250 2510 2740
2026-04-29 09:45 3.28 1700 2780 (2020) 1410 (2017) 1920 1460 1540 1540 1790 2250 2510 2740
2026-04-29 08:45 3.28 1700 2780 (2020) 1410 (2017) 1920 1460 1540 1540 1790 2250 2510 2740
2026-04-29 07:45 3.29 1710 2780 (2020) 1410 (2017) 1920 1460 1540 1540 1790 2250 2510 2740
2026-04-29 06:45 3.29 1710 2780 (2020) 1410 (2017) 1920 1460 1540 1540 1790 2250 2510 2740
2026-04-29 05:45 3.27 1690 2780 (2020) 1410 (2017) 1920 1460 1540 1540 1790 2250 2510 2740
2026-04-29 04:45 3.29 1710 2780 (2020) 1410 (2017) 1920 1460 1540 1540 1790 2250 2510 2740
2026-04-29 03:45 3.26 1680 2780 (2020) 1410 (2017) 1920 1460 1540 1540 1790 2250 2510 2740
2026-04-29 02:45 3.26 1680 2780 (2020) 1410 (2017) 1920 1460 1540 1540 1790 2250 2510 2740
2026-04-29 01:45 3.27 1690 2780 (2020) 1410 (2017) 1920 1460 1540 1540 1790 2250 2510 2740
2026-04-29 00:45 3.26 1680 2780 (2020) 1410 (2017) 1920 1460 1540 1540 1790 2250 2510 2740
2026-04-28 23:45 3.27 1690 2780 (2020) 1410 (2017) 1920 1460 1540 1540 1790 2250 2510 2740
2026-04-28 22:45 3.26 1680 2750 (2020) 1390 (2017) 1900 1460 1610 1630 1810 2160 2320 2620
2026-04-28 21:45 3.26 1680 2750 (2020) 1390 (2017) 1900 1460 1610 1630 1810 2160 2320 2620
2026-04-28 20:45 3.26 1680 2750 (2020) 1390 (2017) 1900 1460 1610 1630 1810 2160 2320 2620
2026-04-28 19:45 3.26 1680 2750 (2020) 1390 (2017) 1900 1460 1610 1630 1810 2160 2320 2620
2026-04-28 18:45 3.25 1680 2750 (2020) 1390 (2017) 1900 1460 1610 1630 1810 2160 2320 2620
2026-04-28 17:45 3.24 1670 2750 (2020) 1390 (2017) 1900 1460 1610 1630 1810 2160 2320 2620
2026-04-28 16:45 3.26 1680 2750 (2020) 1390 (2017) 1900 1460 1610 1630 1810 2160 2320 2620
2026-04-28 15:45 3.29 1710 2750 (2020) 1390 (2017) 1900 1460 1610 1630 1810 2160 2320 2620
2026-04-28 14:45 3.27 1690 2750 (2020) 1390 (2017) 1900 1460 1610 1630 1810 2160 2320 2620
2026-04-28 13:45 3.19 1630 2750 (2020) 1390 (2017) 1900 1460 1610 1630 1810 2160 2320 2620
2026-04-28 12:45 3.26 1680 2750 (2020) 1390 (2017) 1900 1460 1610 1630 1810 2160 2320 2620
2026-04-28 11:45 3.27 1690 2750 (2020) 1390 (2017) 1900 1460 1610 1630 1810 2160 2320 2620
2026-04-28 10:45 3.29 1710 2750 (2020) 1390 (2017) 1900 1460 1610 1630 1810 2160 2320 2620
2026-04-28 09:45 3.28 1700 2750 (2020) 1390 (2017) 1900 1460 1610 1630 1810 2160 2320 2620
2026-04-28 08:45 3.30 1720 2750 (2020) 1390 (2017) 1900 1460 1610 1630 1810 2160 2320 2620
2026-04-28 07:45 3.27 1690 2750 (2020) 1390 (2017) 1900 1460 1610 1630 1810 2160 2320 2620
2026-04-28 06:45 3.27 1690 2750 (2020) 1390 (2017) 1900 1460 1610 1630 1810 2160 2320 2620
2026-04-28 05:45 3.32 1730 2750 (2020) 1390 (2017) 1900 1460 1610 1630 1810 2160 2320 2620
2026-04-28 04:45 3.34 1750 2750 (2020) 1390 (2017) 1900 1460 1610 1630 1810 2160 2320 2620
2026-04-28 03:45 3.35 1760 2750 (2020) 1390 (2017) 1900 1460 1610 1630 1810 2160 2320 2620
2026-04-28 02:45 3.30 1720 2750 (2020) 1390 (2017) 1900 1460 1610 1630 1810 2160 2320 2620
2026-04-28 01:45 3.20 1630 2750 (2020) 1390 (2017) 1900 1460 1610 1630 1810 2160 2320 2620
2026-04-28 00:45 3.20 1630 2750 (2020) 1390 (2017) 1900 1460 1610 1630 1810 2160 2320 2620
2026-04-27 23:45 3.19 1630 2750 (2020) 1390 (2017) 1900 1460 1610 1630 1810 2160 2320 2620
2026-04-27 22:45 3.19 1630 2700 (2020) 1340 (2014) 1870 1370 1560 1620 1700 2150 2180 2500
2026-04-27 21:45 3.22 1650 2700 (2020) 1340 (2014) 1870 1370 1560 1620 1700 2150 2180 2500
2026-04-27 20:45 3.24 1670 2700 (2020) 1340 (2014) 1870 1370 1560 1620 1700 2150 2180 2500
2026-04-27 19:45 3.24 1670 2700 (2020) 1340 (2014) 1870 1370 1560 1620 1700 2150 2180 2500
2026-04-27 18:45 3.23 1660 2700 (2020) 1340 (2014) 1870 1370 1560 1620 1700 2150 2180 2500
2026-04-27 17:45 3.22 1650 2700 (2020) 1340 (2014) 1870 1370 1560 1620 1700 2150 2180 2500
2026-04-27 16:45 3.22 1650 2700 (2020) 1340 (2014) 1870 1370 1560 1620 1700 2150 2180 2500
2026-04-27 15:45 3.21 1640 2700 (2020) 1340 (2014) 1870 1370 1560 1620 1700 2150 2180 2500
2026-04-27 14:45 3.24 1670 2700 (2020) 1340 (2014) 1870 1370 1560 1620 1700 2150 2180 2500
2026-04-27 13:45 3.27 1690 2700 (2020) 1340 (2014) 1870 1370 1560 1620 1700 2150 2180 2500
2026-04-27 12:45 3.23 1660 2700 (2020) 1340 (2014) 1870 1370 1560 1620 1700 2150 2180 2500
2026-04-27 11:45 3.21 1640 2700 (2020) 1340 (2014) 1870 1370 1560 1620 1700 2150 2180 2500
2026-04-27 10:45 3.20 1630 2700 (2020) 1340 (2014) 1870 1370 1560 1620 1700 2150 2180 2500
2026-04-27 09:45 3.18 1620 2700 (2020) 1340 (2014) 1870 1370 1560 1620 1700 2150 2180 2500
2026-04-27 08:45 3.16 1600 2700 (2020) 1340 (2014) 1870 1370 1560 1620 1700 2150 2180 2500
2026-04-27 07:45 3.16 1600 2700 (2020) 1340 (2014) 1870 1370 1560 1620 1700 2150 2180 2500
2026-04-27 06:45 3.21 1640 2700 (2020) 1340 (2014) 1870 1370 1560 1620 1700 2150 2180 2500
2026-04-27 05:45 3.25 1680 2700 (2020) 1340 (2014) 1870 1370 1560 1620 1700 2150 2180 2500
2026-04-27 04:45 3.23 1660 2700 (2020) 1340 (2014) 1870 1370 1560 1620 1700 2150 2180 2500
2026-04-27 03:45 3.27 1690 2700 (2020) 1340 (2014) 1870 1370 1560 1620 1700 2150 2180 2500
2026-04-27 02:45 3.30 1720 2700 (2020) 1340 (2014) 1870 1370 1560 1620 1700 2150 2180 2500
2026-04-27 01:45 3.31 1720 2700 (2020) 1340 (2014) 1870 1370 1560 1620 1700 2150 2180 2500
2026-04-27 00:45 3.32 1730 2700 (2020) 1340 (2014) 1870 1370 1560 1620 1700 2150 2180 2500
2026-04-26 23:45 3.32 1730 2700 (2020) 1340 (2014) 1870 1370 1560 1620 1700 2150 2180 2500
2026-04-26 22:45 3.23 1660 2770 (2020) 1280 (2014) 1810 1360 1530 1590 1720 1980 2050 2520
2026-04-26 21:45 3.30 1720 2770 (2020) 1280 (2014) 1810 1360 1530 1590 1720 1980 2050 2520
2026-04-26 20:45 3.16 1600 2770 (2020) 1280 (2014) 1810 1360 1530 1590 1720 1980 2050 2520
2026-04-26 19:45 3.15 1600 2770 (2020) 1280 (2014) 1810 1360 1530 1590 1720 1980 2050 2520
2026-04-26 18:45 3.15 1600 2770 (2020) 1280 (2014) 1810 1360 1530 1590 1720 1980 2050 2520
2026-04-26 17:45 3.11 1560 2770 (2020) 1280 (2014) 1810 1360 1530 1590 1720 1980 2050 2520
2026-04-26 16:45 3.12 1570 2770 (2020) 1280 (2014) 1810 1360 1530 1590 1720 1980 2050 2520
2026-04-26 15:45 3.11 1560 2770 (2020) 1280 (2014) 1810 1360 1530 1590 1720 1980 2050 2520
2026-04-26 14:45 3.05 1520 2770 (2020) 1280 (2014) 1810 1360 1530 1590 1720 1980 2050 2520
2026-04-26 13:45 3.06 1530 2770 (2020) 1280 (2014) 1810 1360 1530 1590 1720 1980 2050 2520
2026-04-26 12:45 3.05 1520 2770 (2020) 1280 (2014) 1810 1360 1530 1590 1720 1980 2050 2520
2026-04-26 11:45 3.08 1540 2770 (2020) 1280 (2014) 1810 1360 1530 1590 1720 1980 2050 2520
2026-04-26 10:45 3.03 1500 2770 (2020) 1280 (2014) 1810 1360 1530 1590 1720 1980 2050 2520
2026-04-26 09:45 3.06 1530 2770 (2020) 1280 (2014) 1810 1360 1530 1590 1720 1980 2050 2520
2026-04-26 08:45 3.08 1540 2770 (2020) 1280 (2014) 1810 1360 1530 1590 1720 1980 2050 2520
2026-04-26 07:45 3.06 1530 2770 (2020) 1280 (2014) 1810 1360 1530 1590 1720 1980 2050 2520
2026-04-26 06:45 3.01 1490 2770 (2020) 1280 (2014) 1810 1360 1530 1590 1720 1980 2050 2520
2026-04-26 05:45 3.10 1560 2770 (2020) 1280 (2014) 1810 1360 1530 1590 1720 1980 2050 2520
2026-04-26 04:45 3.09 1550 2770 (2020) 1280 (2014) 1810 1360 1530 1590 1720 1980 2050 2520
2026-04-26 03:45 3.07 1530 2770 (2020) 1280 (2014) 1810 1360 1530 1590 1720 1980 2050 2520
2026-04-26 02:45 3.08 1540 2770 (2020) 1280 (2014) 1810 1360 1530 1590 1720 1980 2050 2520
2026-04-26 01:45 3.04 1510 2770 (2020) 1280 (2014) 1810 1360 1530 1590 1720 1980 2050 2520
2026-04-26 00:45 2.99 1450 2770 (2020) 1280 (2014) 1810 1360 1530 1590 1720 1980 2050 2520
2026-04-25 23:45 2.99 1450 2770 (2020) 1280 (2014) 1810 1360 1530 1590 1720 1980 2050 2520
2026-04-25 22:45 2.94 1290 2710 (2020) 1190 (2014) 1820 1320 1550 1590 1790 2040 2120 2480
2026-04-25 21:45 2.93 1260 2710 (2020) 1190 (2014) 1820 1320 1550 1590 1790 2040 2120 2480
2026-04-25 20:45 2.96 1350 2710 (2020) 1190 (2014) 1820 1320 1550 1590 1790 2040 2120 2480
2026-04-25 19:45 3.01 1490 2710 (2020) 1190 (2014) 1820 1320 1550 1590 1790 2040 2120 2480
2026-04-25 18:45 3.03 1500 2710 (2020) 1190 (2014) 1820 1320 1550 1590 1790 2040 2120 2480
2026-04-25 17:45 3.03 1500 2710 (2020) 1190 (2014) 1820 1320 1550 1590 1790 2040 2120 2480
2026-04-25 16:45 3.01 1490 2710 (2020) 1190 (2014) 1820 1320 1550 1590 1790 2040 2120 2480
2026-04-25 15:45 3.09 1550 2710 (2020) 1190 (2014) 1820 1320 1550 1590 1790 2040 2120 2480
2026-04-25 14:45 3.04 1510 2710 (2020) 1190 (2014) 1820 1320 1550 1590 1790 2040 2120 2480
2026-04-25 13:45 3.05 1520 2710 (2020) 1190 (2014) 1820 1320 1550 1590 1790 2040 2120 2480
2026-04-25 12:45 3.08 1540 2710 (2020) 1190 (2014) 1820 1320 1550 1590 1790 2040 2120 2480
2026-04-25 11:45 3.06 1530 2710 (2020) 1190 (2014) 1820 1320 1550 1590 1790 2040 2120 2480
2026-04-25 10:45 3.03 1500 2710 (2020) 1190 (2014) 1820 1320 1550 1590 1790 2040 2120 2480
2026-04-25 09:45 3.03 1500 2710 (2020) 1190 (2014) 1820 1320 1550 1590 1790 2040 2120 2480
2026-04-25 08:45 3.00 1480 2710 (2020) 1190 (2014) 1820 1320 1550 1590 1790 2040 2120 2480
2026-04-25 07:45 3.04 1510 2710 (2020) 1190 (2014) 1820 1320 1550 1590 1790 2040 2120 2480
2026-04-25 06:45 3.04 1510 2710 (2020) 1190 (2014) 1820 1320 1550 1590 1790 2040 2120 2480
2026-04-25 05:45 3.08 1540 2710 (2020) 1190 (2014) 1820 1320 1550 1590 1790 2040 2120 2480
2026-04-25 04:45 3.06 1530 2710 (2020) 1190 (2014) 1820 1320 1550 1590 1790 2040 2120 2480
2026-04-25 03:45 3.03 1500 2710 (2020) 1190 (2014) 1820 1320 1550 1590 1790 2040 2120 2480
2026-04-25 02:45 3.03 1500 2710 (2020) 1190 (2014) 1820 1320 1550 1590 1790 2040 2120 2480
2026-04-25 01:45 3.02 1500 2710 (2020) 1190 (2014) 1820 1320 1550 1590 1790 2040 2120 2480
2026-04-25 00:45 3.02 1500 2710 (2020) 1190 (2014) 1820 1320 1550 1590 1790 2040 2120 2480
2026-04-24 23:45 3.00 1480 2710 (2020) 1190 (2014) 1820 1320 1550 1590 1790 2040 2120 2480
2026-04-24 22:45 3.01 1490 2550 (2020) 1300 (2014) 1810 1370 1530 1540 1770 2040 2090 2370
2026-04-24 21:45 3.03 1500 2550 (2020) 1300 (2014) 1810 1370 1530 1540 1770 2040 2090 2370
2026-04-24 20:45 3.00 1480 2550 (2020) 1300 (2014) 1810 1370 1530 1540 1770 2040 2090 2370
2026-04-24 19:45 3.01 1490 2550 (2020) 1300 (2014) 1810 1370 1530 1540 1770 2040 2090 2370
2026-04-24 18:45 3.01 1490 2550 (2020) 1300 (2014) 1810 1370 1530 1540 1770 2040 2090 2370
2026-04-24 17:45 3.01 1490 2550 (2020) 1300 (2014) 1810 1370 1530 1540 1770 2040 2090 2370
2026-04-24 16:45 2.99 1450 2550 (2020) 1300 (2014) 1810 1370 1530 1540 1770 2040 2090 2370
2026-04-24 15:45 3.02 1500 2550 (2020) 1300 (2014) 1810 1370 1530 1540 1770 2040 2090 2370
2026-04-24 14:45 3.01 1490 2550 (2020) 1300 (2014) 1810 1370 1530 1540 1770 2040 2090 2370
2026-04-24 13:45 3.03 1500 2550 (2020) 1300 (2014) 1810 1370 1530 1540 1770 2040 2090 2370
2026-04-24 12:45 3.01 1490 2550 (2020) 1300 (2014) 1810 1370 1530 1540 1770 2040 2090 2370
2026-04-24 11:45 3.01 1490 2550 (2020) 1300 (2014) 1810 1370 1530 1540 1770 2040 2090 2370
2026-04-24 10:45 3.01 1490 2550 (2020) 1300 (2014) 1810 1370 1530 1540 1770 2040 2090 2370
2026-04-24 09:45 2.96 1350 2550 (2020) 1300 (2014) 1810 1370 1530 1540 1770 2040 2090 2370
2026-04-24 08:45 2.91 1200 2550 (2020) 1300 (2014) 1810 1370 1530 1540 1770 2040 2090 2370
2026-04-24 07:45 2.93 1260 2550 (2020) 1300 (2014) 1810 1370 1530 1540 1770 2040 2090 2370
2026-04-24 06:45 2.92 1230 2550 (2020) 1300 (2014) 1810 1370 1530 1540 1770 2040 2090 2370
2026-04-24 05:45 2.92 1230 2550 (2020) 1300 (2014) 1810 1370 1530 1540 1770 2040 2090 2370
2026-04-24 04:45 2.97 1380 2550 (2020) 1300 (2014) 1810 1370 1530 1540 1770 2040 2090 2370
2026-04-24 03:45 2.95 1320 2550 (2020) 1300 (2014) 1810 1370 1530 1540 1770 2040 2090 2370
2026-04-24 02:45 2.93 1260 2550 (2020) 1300 (2014) 1810 1370 1530 1540 1770 2040 2090 2370
2026-04-24 01:45 2.94 1290 2550 (2020) 1300 (2014) 1810 1370 1530 1540 1770 2040 2090 2370
2026-04-24 00:45 2.90 1170 2550 (2020) 1300 (2014) 1810 1370 1530 1540 1770 2040 2090 2370
2026-04-23 23:45 2.89 1140 2550 (2020) 1300 (2014) 1810 1370 1530 1540 1770 2040 2090 2370
2026-04-23 22:45 2.90 1170 2640 (2020) 1340 (2014) 1870 1380 1490 1630 1820 2040 2220 2580
2026-04-23 21:45 2.91 1200 2640 (2020) 1340 (2014) 1870 1380 1490 1630 1820 2040 2220 2580
2026-04-23 20:45 2.93 1260 2640 (2020) 1340 (2014) 1870 1380 1490 1630 1820 2040 2220 2580
2026-04-23 19:45 2.96 1350 2640 (2020) 1340 (2014) 1870 1380 1490 1630 1820 2040 2220 2580
2026-04-23 18:45 2.98 1410 2640 (2020) 1340 (2014) 1870 1380 1490 1630 1820 2040 2220 2580
2026-04-23 17:45 3.01 1490 2640 (2020) 1340 (2014) 1870 1380 1490 1630 1820 2040 2220 2580
2026-04-23 16:45 3.04 1510 2640 (2020) 1340 (2014) 1870 1380 1490 1630 1820 2040 2220 2580
2026-04-23 15:45 3.05 1520 2640 (2020) 1340 (2014) 1870 1380 1490 1630 1820 2040 2220 2580
2026-04-23 14:45 3.04 1510 2640 (2020) 1340 (2014) 1870 1380 1490 1630 1820 2040 2220 2580
2026-04-23 13:45 3.05 1520 2640 (2020) 1340 (2014) 1870 1380 1490 1630 1820 2040 2220 2580
2026-04-23 12:45 3.01 1490 2640 (2020) 1340 (2014) 1870 1380 1490 1630 1820 2040 2220 2580
2026-04-23 11:45 3.06 1530 2640 (2020) 1340 (2014) 1870 1380 1490 1630 1820 2040 2220 2580
2026-04-23 10:45 3.06 1530 2640 (2020) 1340 (2014) 1870 1380 1490 1630 1820 2040 2220 2580
2026-04-23 09:45 3.06 1530 2640 (2020) 1340 (2014) 1870 1380 1490 1630 1820 2040 2220 2580
2026-04-23 08:45 3.09 1550 2640 (2020) 1340 (2014) 1870 1380 1490 1630 1820 2040 2220 2580
2026-04-23 07:45 3.10 1560 2640 (2020) 1340 (2014) 1870 1380 1490 1630 1820 2040 2220 2580
2026-04-23 06:45 3.10 1560 2640 (2020) 1340 (2014) 1870 1380 1490 1630 1820 2040 2220 2580
2026-04-23 05:45 3.10 1560 2640 (2020) 1340 (2014) 1870 1380 1490 1630 1820 2040 2220 2580
2026-04-23 04:45 3.08 1540 2640 (2020) 1340 (2014) 1870 1380 1490 1630 1820 2040 2220 2580
2026-04-23 03:45 3.08 1540 2640 (2020) 1340 (2014) 1870 1380 1490 1630 1820 2040 2220 2580
2026-04-23 02:45 3.07 1530 2640 (2020) 1340 (2014) 1870 1380 1490 1630 1820 2040 2220 2580
2026-04-23 01:45 3.06 1530 2640 (2020) 1340 (2014) 1870 1380 1490 1630 1820 2040 2220 2580
2026-04-23 00:45 3.05 1520 2640 (2020) 1340 (2014) 1870 1380 1490 1630 1820 2040 2220 2580
2026-04-22 23:45 3.01 1490 2640 (2020) 1340 (2014) 1870 1380 1490 1630 1820 2040 2220 2580
2026-04-22 22:45 3.01 1490 2750 (2020) 1250 (2014) 1900 1320 1490 1580 1940 2060 2110 2570
2026-04-22 21:45 3.03 1500 2750 (2020) 1250 (2014) 1900 1320 1490 1580 1940 2060 2110 2570
2026-04-22 20:45 3.01 1490 2750 (2020) 1250 (2014) 1900 1320 1490 1580 1940 2060 2110 2570
2026-04-22 19:45 3.00 1480 2750 (2020) 1250 (2014) 1900 1320 1490 1580 1940 2060 2110 2570
2026-04-22 18:45 2.99 1450 2750 (2020) 1250 (2014) 1900 1320 1490 1580 1940 2060 2110 2570
2026-04-22 17:45 3.01 1490 2750 (2020) 1250 (2014) 1900 1320 1490 1580 1940 2060 2110 2570
2026-04-22 16:45 3.00 1480 2750 (2020) 1250 (2014) 1900 1320 1490 1580 1940 2060 2110 2570
2026-04-22 15:45 2.98 1410 2750 (2020) 1250 (2014) 1900 1320 1490 1580 1940 2060 2110 2570
2026-04-22 14:45 2.98 1410 2750 (2020) 1250 (2014) 1900 1320 1490 1580 1940 2060 2110 2570
2026-04-22 13:45 3.01 1490 2750 (2020) 1250 (2014) 1900 1320 1490 1580 1940 2060 2110 2570
2026-04-22 12:45 3.00 1480 2750 (2020) 1250 (2014) 1900 1320 1490 1580 1940 2060 2110 2570
2026-04-22 11:45 3.05 1520 2750 (2020) 1250 (2014) 1900 1320 1490 1580 1940 2060 2110 2570
2026-04-22 10:45 3.04 1510 2750 (2020) 1250 (2014) 1900 1320 1490 1580 1940 2060 2110 2570
2026-04-22 09:45 3.07 1530 2750 (2020) 1250 (2014) 1900 1320 1490 1580 1940 2060 2110 2570
2026-04-22 08:45 3.13 1580 2750 (2020) 1250 (2014) 1900 1320 1490 1580 1940 2060 2110 2570
2026-04-22 07:45 3.15 1600 2750 (2020) 1250 (2014) 1900 1320 1490 1580 1940 2060 2110 2570
2026-04-22 06:45 3.15 1600 2750 (2020) 1250 (2014) 1900 1320 1490 1580 1940 2060 2110 2570
2026-04-22 05:45 3.14 1590 2750 (2020) 1250 (2014) 1900 1320 1490 1580 1940 2060 2110 2570
2026-04-22 04:45 3.13 1580 2750 (2020) 1250 (2014) 1900 1320 1490 1580 1940 2060 2110 2570
2026-04-22 03:45 3.11 1560 2750 (2020) 1250 (2014) 1900 1320 1490 1580 1940 2060 2110 2570
2026-04-22 02:45 3.07 1530 2750 (2020) 1250 (2014) 1900 1320 1490 1580 1940 2060 2110 2570
2026-04-22 01:45 3.02 1500 2750 (2020) 1250 (2014) 1900 1320 1490 1580 1940 2060 2110 2570
2026-04-22 00:45 3.01 1490 2750 (2020) 1250 (2014) 1900 1320 1490 1580 1940 2060 2110 2570
2026-04-21 23:45 3.01 1490 2750 (2020) 1250 (2014) 1900 1320 1490 1580 1940 2060 2110 2570
2026-04-21 22:45 3.02 1500 2670 (2020) 1170 (2014) 1810 1210 1460 1500 1920 2010 2050 2470
2026-04-21 21:45 3.02 1500 2670 (2020) 1170 (2014) 1810 1210 1460 1500 1920 2010 2050 2470
2026-04-21 20:45 3.03 1500 2670 (2020) 1170 (2014) 1810 1210 1460 1500 1920 2010 2050 2470
2026-04-21 19:45 3.03 1500 2670 (2020) 1170 (2014) 1810 1210 1460 1500 1920 2010 2050 2470
2026-04-21 18:45 3.05 1520 2670 (2020) 1170 (2014) 1810 1210 1460 1500 1920 2010 2050 2470
2026-04-21 17:45 3.07 1530 2670 (2020) 1170 (2014) 1810 1210 1460 1500 1920 2010 2050 2470
2026-04-21 16:45 3.08 1540 2670 (2020) 1170 (2014) 1810 1210 1460 1500 1920 2010 2050 2470
2026-04-21 15:45 3.06 1530 2670 (2020) 1170 (2014) 1810 1210 1460 1500 1920 2010 2050 2470
2026-04-21 14:45 3.08 1540 2670 (2020) 1170 (2014) 1810 1210 1460 1500 1920 2010 2050 2470
2026-04-21 13:45 3.13 1580 2670 (2020) 1170 (2014) 1810 1210 1460 1500 1920 2010 2050 2470
2026-04-21 12:45 3.09 1550 2670 (2020) 1170 (2014) 1810 1210 1460 1500 1920 2010 2050 2470
2026-04-21 11:45 3.13 1580 2670 (2020) 1170 (2014) 1810 1210 1460 1500 1920 2010 2050 2470
2026-04-21 10:45 3.14 1590 2670 (2020) 1170 (2014) 1810 1210 1460 1500 1920 2010 2050 2470
2026-04-21 09:45 3.11 1560 2670 (2020) 1170 (2014) 1810 1210 1460 1500 1920 2010 2050 2470
2026-04-21 08:45 3.08 1540 2670 (2020) 1170 (2014) 1810 1210 1460 1500 1920 2010 2050 2470
2026-04-21 07:45 3.08 1540 2670 (2020) 1170 (2014) 1810 1210 1460 1500 1920 2010 2050 2470
2026-04-21 06:45 3.08 1540 2670 (2020) 1170 (2014) 1810 1210 1460 1500 1920 2010 2050 2470
2026-04-21 05:45 3.09 1550 2670 (2020) 1170 (2014) 1810 1210 1460 1500 1920 2010 2050 2470
2026-04-21 04:45 3.07 1530 2670 (2020) 1170 (2014) 1810 1210 1460 1500 1920 2010 2050 2470
2026-04-21 03:45 3.03 1500 2670 (2020) 1170 (2014) 1810 1210 1460 1500 1920 2010 2050 2470
2026-04-21 02:45 3.04 1510 2670 (2020) 1170 (2014) 1810 1210 1460 1500 1920 2010 2050 2470
2026-04-21 01:45 3.03 1500 2670 (2020) 1170 (2014) 1810 1210 1460 1500 1920 2010 2050 2470
2026-04-21 00:45 3.02 1500 2670 (2020) 1170 (2014) 1810 1210 1460 1500 1920 2010 2050 2470
2026-04-20 23:45 3.03 1500 2670 (2020) 1170 (2014) 1810 1210 1460 1500 1920 2010 2050 2470
2026-04-20 22:45 3.04 1510 2780 (2020) 1150 (2014) 1850 1210 1490 1540 1810 2150 2290 2610
2026-04-20 21:45 3.05 1520 2780 (2020) 1150 (2014) 1850 1210 1490 1540 1810 2150 2290 2610
2026-04-20 20:45 3.02 1500 2780 (2020) 1150 (2014) 1850 1210 1490 1540 1810 2150 2290 2610
2026-04-20 19:45 3.02 1500 2780 (2020) 1150 (2014) 1850 1210 1490 1540 1810 2150 2290 2610
2026-04-20 18:45 3.04 1510 2780 (2020) 1150 (2014) 1850 1210 1490 1540 1810 2150 2290 2610
2026-04-20 17:45 2.98 1410 2780 (2020) 1150 (2014) 1850 1210 1490 1540 1810 2150 2290 2610
2026-04-20 16:45 3.01 1490 2780 (2020) 1150 (2014) 1850 1210 1490 1540 1810 2150 2290 2610
2026-04-20 15:45 3.00 1480 2780 (2020) 1150 (2014) 1850 1210 1490 1540 1810 2150 2290 2610
2026-04-20 14:45 3.00 1480 2780 (2020) 1150 (2014) 1850 1210 1490 1540 1810 2150 2290 2610
2026-04-20 13:45 3.02 1500 2780 (2020) 1150 (2014) 1850 1210 1490 1540 1810 2150 2290 2610
2026-04-20 12:45 3.03 1500 2780 (2020) 1150 (2014) 1850 1210 1490 1540 1810 2150 2290 2610
2026-04-20 11:45 3.05 1520 2780 (2020) 1150 (2014) 1850 1210 1490 1540 1810 2150 2290 2610
2026-04-20 10:45 3.05 1520 2780 (2020) 1150 (2014) 1850 1210 1490 1540 1810 2150 2290 2610
2026-04-20 09:45 3.03 1500 2780 (2020) 1150 (2014) 1850 1210 1490 1540 1810 2150 2290 2610
2026-04-20 08:45 3.07 1530 2780 (2020) 1150 (2014) 1850 1210 1490 1540 1810 2150 2290 2610
2026-04-20 07:45 3.08 1540 2780 (2020) 1150 (2014) 1850 1210 1490 1540 1810 2150 2290 2610
2026-04-20 06:45 3.11 1560 2780 (2020) 1150 (2014) 1850 1210 1490 1540 1810 2150 2290 2610
2026-04-20 05:45 3.12 1570 2780 (2020) 1150 (2014) 1850 1210 1490 1540 1810 2150 2290 2610
2026-04-20 04:45 3.13 1580 2780 (2020) 1150 (2014) 1850 1210 1490 1540 1810 2150 2290 2610
2026-04-20 03:45 3.11 1560 2780 (2020) 1150 (2014) 1850 1210 1490 1540 1810 2150 2290 2610
2026-04-20 02:45 3.08 1540 2780 (2020) 1150 (2014) 1850 1210 1490 1540 1810 2150 2290 2610
2026-04-20 01:45 3.06 1530 2780 (2020) 1150 (2014) 1850 1210 1490 1540 1810 2150 2290 2610
2026-04-20 00:45 3.07 1530 2780 (2020) 1150 (2014) 1850 1210 1490 1540 1810 2150 2290 2610
2026-04-19 23:45 3.05 1520 2780 (2020) 1150 (2014) 1850 1210 1490 1540 1810 2150 2290 2610
2026-04-19 22:45 3.08 1540 2650 (2020) 1080 (2014) 1870 1220 1490 1580 1830 2150 2260 2580
2026-04-19 21:45 3.04 1510 2650 (2020) 1080 (2014) 1870 1220 1490 1580 1830 2150 2260 2580
2026-04-19 20:45 3.05 1520 2650 (2020) 1080 (2014) 1870 1220 1490 1580 1830 2150 2260 2580
2026-04-19 19:45 3.09 1550 2650 (2020) 1080 (2014) 1870 1220 1490 1580 1830 2150 2260 2580
2026-04-19 18:45 3.12 1570 2650 (2020) 1080 (2014) 1870 1220 1490 1580 1830 2150 2260 2580
2026-04-19 17:45 3.10 1560 2650 (2020) 1080 (2014) 1870 1220 1490 1580 1830 2150 2260 2580
2026-04-19 16:45 3.10 1560 2650 (2020) 1080 (2014) 1870 1220 1490 1580 1830 2150 2260 2580
2026-04-19 15:45 3.08 1540 2650 (2020) 1080 (2014) 1870 1220 1490 1580 1830 2150 2260 2580
2026-04-19 14:45 3.05 1520 2650 (2020) 1080 (2014) 1870 1220 1490 1580 1830 2150 2260 2580
2026-04-19 13:45 3.01 1490 2650 (2020) 1080 (2014) 1870 1220 1490 1580 1830 2150 2260 2580
2026-04-19 12:45 3.02 1500 2650 (2020) 1080 (2014) 1870 1220 1490 1580 1830 2150 2260 2580
2026-04-19 11:45 2.98 1410 2650 (2020) 1080 (2014) 1870 1220 1490 1580 1830 2150 2260 2580
2026-04-19 10:45 2.99 1450 2650 (2020) 1080 (2014) 1870 1220 1490 1580 1830 2150 2260 2580
2026-04-19 09:45 2.93 1260 2650 (2020) 1080 (2014) 1870 1220 1490 1580 1830 2150 2260 2580
2026-04-19 08:45 2.91 1200 2650 (2020) 1080 (2014) 1870 1220 1490 1580 1830 2150 2260 2580
2026-04-19 07:45 2.86 1060 2650 (2020) 1080 (2014) 1870 1220 1490 1580 1830 2150 2260 2580
2026-04-19 06:45 2.86 1060 2650 (2020) 1080 (2014) 1870 1220 1490 1580 1830 2150 2260 2580
2026-04-19 05:45 2.82 962 2650 (2020) 1080 (2014) 1870 1220 1490 1580 1830 2150 2260 2580
2026-04-19 04:45 2.79 894 2650 (2020) 1080 (2014) 1870 1220 1490 1580 1830 2150 2260 2580
2026-04-19 03:45 2.75 809 2650 (2020) 1080 (2014) 1870 1220 1490 1580 1830 2150 2260 2580
2026-04-19 02:45 2.77 850 2650 (2020) 1080 (2014) 1870 1220 1490 1580 1830 2150 2260 2580
2026-04-19 01:45 2.78 872 2650 (2020) 1080 (2014) 1870 1220 1490 1580 1830 2150 2260 2580
2026-04-19 00:45 2.76 830 2650 (2020) 1080 (2014) 1870 1220 1490 1580 1830 2150 2260 2580
2026-04-18 23:45 2.80 916 2650 (2020) 1080 (2014) 1870 1220 1490 1580 1830 2150 2260 2580
2026-04-18 22:45 2.79 894 2460 (2020) 1120 (2014) 1820 1280 1590 1620 1860 2030 2090 2310
2026-04-18 21:45 2.80 916 2460 (2020) 1120 (2014) 1820 1280 1590 1620 1860 2030 2090 2310
2026-04-18 20:45 2.82 962 2460 (2020) 1120 (2014) 1820 1280 1590 1620 1860 2030 2090 2310
2026-04-18 19:45 2.83 986 2460 (2020) 1120 (2014) 1820 1280 1590 1620 1860 2030 2090 2310
2026-04-18 18:45 2.83 986 2460 (2020) 1120 (2014) 1820 1280 1590 1620 1860 2030 2090 2310
2026-04-18 17:45 2.93 1260 2460 (2020) 1120 (2014) 1820 1280 1590 1620 1860 2030 2090 2310
2026-04-18 16:45 2.93 1260 2460 (2020) 1120 (2014) 1820 1280 1590 1620 1860 2030 2090 2310
2026-04-18 15:45 2.93 1260 2460 (2020) 1120 (2014) 1820 1280 1590 1620 1860 2030 2090 2310
2026-04-18 14:45 2.93 1260 2460 (2020) 1120 (2014) 1820 1280 1590 1620 1860 2030 2090 2310
2026-04-18 13:45 2.95 1320 2460 (2020) 1120 (2014) 1820 1280 1590 1620 1860 2030 2090 2310
2026-04-18 12:45 2.96 1350 2460 (2020) 1120 (2014) 1820 1280 1590 1620 1860 2030 2090 2310
2026-04-18 11:45 2.96 1350 2460 (2020) 1120 (2014) 1820 1280 1590 1620 1860 2030 2090 2310
2026-04-18 10:45 2.99 1450 2460 (2020) 1120 (2014) 1820 1280 1590 1620 1860 2030 2090 2310
2026-04-18 09:45 3.03 1500 2460 (2020) 1120 (2014) 1820 1280 1590 1620 1860 2030 2090 2310
2026-04-18 08:45 3.01 1490 2460 (2020) 1120 (2014) 1820 1280 1590 1620 1860 2030 2090 2310
2026-04-18 07:45 3.03 1500 2460 (2020) 1120 (2014) 1820 1280 1590 1620 1860 2030 2090 2310
2026-04-18 06:45 3.02 1500 2460 (2020) 1120 (2014) 1820 1280 1590 1620 1860 2030 2090 2310
2026-04-18 05:45 3.03 1500 2460 (2020) 1120 (2014) 1820 1280 1590 1620 1860 2030 2090 2310
2026-04-18 04:45 3.01 1490 2460 (2020) 1120 (2014) 1820 1280 1590 1620 1860 2030 2090 2310
2026-04-18 03:45 3.02 1500 2460 (2020) 1120 (2014) 1820 1280 1590 1620 1860 2030 2090 2310
2026-04-18 02:45 3.08 1540 2460 (2020) 1120 (2014) 1820 1280 1590 1620 1860 2030 2090 2310
2026-04-18 01:45 3.09 1550 2460 (2020) 1120 (2014) 1820 1280 1590 1620 1860 2030 2090 2310
2026-04-18 00:45 3.09 1550 2460 (2020) 1120 (2014) 1820 1280 1590 1620 1860 2030 2090 2310
2026-04-17 23:45 3.09 1550 2460 (2020) 1120 (2014) 1820 1280 1590 1620 1860 2030 2090 2310
2026-04-17 22:45 3.09 1550 2470 (2020) 1170 (2014) 1820 1250 1550 1600 1780 2020 2130 2460
2026-04-17 21:45 3.10 1560 2470 (2020) 1170 (2014) 1820 1250 1550 1600 1780 2020 2130 2460
2026-04-17 20:45 3.13 1580 2470 (2020) 1170 (2014) 1820 1250 1550 1600 1780 2020 2130 2460
2026-04-17 19:45 3.13 1580 2470 (2020) 1170 (2014) 1820 1250 1550 1600 1780 2020 2130 2460
2026-04-17 18:45 3.15 1600 2470 (2020) 1170 (2014) 1820 1250 1550 1600 1780 2020 2130 2460
2026-04-17 17:45 3.13 1580 2470 (2020) 1170 (2014) 1820 1250 1550 1600 1780 2020 2130 2460
2026-04-17 16:45 3.18 1620 2470 (2020) 1170 (2014) 1820 1250 1550 1600 1780 2020 2130 2460
2026-04-17 15:45 3.17 1610 2470 (2020) 1170 (2014) 1820 1250 1550 1600 1780 2020 2130 2460
2026-04-17 14:45 3.14 1590 2470 (2020) 1170 (2014) 1820 1250 1550 1600 1780 2020 2130 2460
2026-04-17 13:45 3.16 1600 2470 (2020) 1170 (2014) 1820 1250 1550 1600 1780 2020 2130 2460
2026-04-17 12:45 3.15 1600 2470 (2020) 1170 (2014) 1820 1250 1550 1600 1780 2020 2130 2460
2026-04-17 11:45 3.13 1580 2470 (2020) 1170 (2014) 1820 1250 1550 1600 1780 2020 2130 2460
2026-04-17 10:45 3.13 1580 2470 (2020) 1170 (2014) 1820 1250 1550 1600 1780 2020 2130 2460
2026-04-17 09:45 3.16 1600 2470 (2020) 1170 (2014) 1820 1250 1550 1600 1780 2020 2130 2460
2026-04-17 08:45 3.17 1610 2470 (2020) 1170 (2014) 1820 1250 1550 1600 1780 2020 2130 2460
2026-04-17 07:45 3.17 1610 2470 (2020) 1170 (2014) 1820 1250 1550 1600 1780 2020 2130 2460
2026-04-17 06:45 3.20 1630 2470 (2020) 1170 (2014) 1820 1250 1550 1600 1780 2020 2130 2460
2026-04-17 05:45 3.21 1640 2470 (2020) 1170 (2014) 1820 1250 1550 1600 1780 2020 2130 2460
2026-04-17 04:45 3.20 1630 2470 (2020) 1170 (2014) 1820 1250 1550 1600 1780 2020 2130 2460
2026-04-17 03:45 3.18 1620 2470 (2020) 1170 (2014) 1820 1250 1550 1600 1780 2020 2130 2460
2026-04-17 02:45 3.19 1630 2470 (2020) 1170 (2014) 1820 1250 1550 1600 1780 2020 2130 2460
2026-04-17 01:45 3.21 1640 2470 (2020) 1170 (2014) 1820 1250 1550 1600 1780 2020 2130 2460
2026-04-17 00:45 3.18 1620 2470 (2020) 1170 (2014) 1820 1250 1550 1600 1780 2020 2130 2460
2026-04-16 23:45 3.17 1610 2470 (2020) 1170 (2014) 1820 1250 1550 1600 1780 2020 2130 2460
2026-04-16 22:45 3.15 1600 2500 (2019) 1110 (2014) 1830 1190 1520 1600 1760 2200 2310 2450
2026-04-16 21:45 3.16 1600 2500 (2019) 1110 (2014) 1830 1190 1520 1600 1760 2200 2310 2450
2026-04-16 20:45 3.13 1580 2500 (2019) 1110 (2014) 1830 1190 1520 1600 1760 2200 2310 2450
2026-04-16 19:45 3.15 1600 2500 (2019) 1110 (2014) 1830 1190 1520 1600 1760 2200 2310 2450
2026-04-16 18:45 3.13 1580 2500 (2019) 1110 (2014) 1830 1190 1520 1600 1760 2200 2310 2450
2026-04-16 17:45 3.12 1570 2500 (2019) 1110 (2014) 1830 1190 1520 1600 1760 2200 2310 2450
2026-04-16 16:45 3.15 1600 2500 (2019) 1110 (2014) 1830 1190 1520 1600 1760 2200 2310 2450
2026-04-16 15:45 3.16 1600 2500 (2019) 1110 (2014) 1830 1190 1520 1600 1760 2200 2310 2450
2026-04-16 14:45 3.19 1630 2500 (2019) 1110 (2014) 1830 1190 1520 1600 1760 2200 2310 2450
2026-04-16 13:45 3.20 1630 2500 (2019) 1110 (2014) 1830 1190 1520 1600 1760 2200 2310 2450
2026-04-16 12:45 3.21 1640 2500 (2019) 1110 (2014) 1830 1190 1520 1600 1760 2200 2310 2450
2026-04-16 11:45 3.23 1660 2500 (2019) 1110 (2014) 1830 1190 1520 1600 1760 2200 2310 2450
2026-04-16 10:45 3.24 1670 2500 (2019) 1110 (2014) 1830 1190 1520 1600 1760 2200 2310 2450
2026-04-16 09:45 3.27 1690 2500 (2019) 1110 (2014) 1830 1190 1520 1600 1760 2200 2310 2450
2026-04-16 08:45 3.29 1710 2500 (2019) 1110 (2014) 1830 1190 1520 1600 1760 2200 2310 2450
2026-04-16 07:45 3.28 1700 2500 (2019) 1110 (2014) 1830 1190 1520 1600 1760 2200 2310 2450
2026-04-16 06:45 3.31 1720 2500 (2019) 1110 (2014) 1830 1190 1520 1600 1760 2200 2310 2450
2026-04-16 05:45 3.31 1720 2500 (2019) 1110 (2014) 1830 1190 1520 1600 1760 2200 2310 2450
2026-04-16 04:45 3.31 1720 2500 (2019) 1110 (2014) 1830 1190 1520 1600 1760 2200 2310 2450
2026-04-16 03:45 3.30 1720 2500 (2019) 1110 (2014) 1830 1190 1520 1600 1760 2200 2310 2450
2026-04-16 02:45 3.29 1710 2500 (2019) 1110 (2014) 1830 1190 1520 1600 1760 2200 2310 2450
2026-04-16 01:45 3.27 1690 2500 (2019) 1110 (2014) 1830 1190 1520 1600 1760 2200 2310 2450
2026-04-16 00:45 3.25 1680 2500 (2019) 1110 (2014) 1830 1190 1520 1600 1760 2200 2310 2450
2026-04-15 23:45 3.22 1650 2500 (2019) 1110 (2014) 1830 1190 1520 1600 1760 2200 2310 2450
2026-04-15 22:45 3.20 1630 2750 (2019) 1280 (2014) 1880 1370 1570 1610 1820 2030 2230 2730
2026-04-15 21:45 3.20 1630 2750 (2019) 1280 (2014) 1880 1370 1570 1610 1820 2030 2230 2730
2026-04-15 20:45 3.20 1630 2750 (2019) 1280 (2014) 1880 1370 1570 1610 1820 2030 2230 2730
2026-04-15 19:45 3.20 1630 2750 (2019) 1280 (2014) 1880 1370 1570 1610 1820 2030 2230 2730
2026-04-15 18:45 3.20 1630 2750 (2019) 1280 (2014) 1880 1370 1570 1610 1820 2030 2230 2730
2026-04-15 17:45 3.19 1630 2750 (2019) 1280 (2014) 1880 1370 1570 1610 1820 2030 2230 2730
2026-04-15 16:45 3.18 1620 2750 (2019) 1280 (2014) 1880 1370 1570 1610 1820 2030 2230 2730
2026-04-15 15:45 3.20 1630 2750 (2019) 1280 (2014) 1880 1370 1570 1610 1820 2030 2230 2730
2026-04-15 14:45 3.21 1640 2750 (2019) 1280 (2014) 1880 1370 1570 1610 1820 2030 2230 2730
2026-04-15 13:45 3.20 1630 2750 (2019) 1280 (2014) 1880 1370 1570 1610 1820 2030 2230 2730
2026-04-15 12:45 3.21 1640 2750 (2019) 1280 (2014) 1880 1370 1570 1610 1820 2030 2230 2730
2026-04-15 11:45 3.20 1630 2750 (2019) 1280 (2014) 1880 1370 1570 1610 1820 2030 2230 2730
2026-04-15 10:45 3.19 1630 2750 (2019) 1280 (2014) 1880 1370 1570 1610 1820 2030 2230 2730
2026-04-15 09:45 3.17 1610 2750 (2019) 1280 (2014) 1880 1370 1570 1610 1820 2030 2230 2730
2026-04-15 08:45 3.16 1600 2750 (2019) 1280 (2014) 1880 1370 1570 1610 1820 2030 2230 2730
2026-04-15 07:45 3.17 1610 2750 (2019) 1280 (2014) 1880 1370 1570 1610 1820 2030 2230 2730
2026-04-15 06:45 3.17 1610 2750 (2019) 1280 (2014) 1880 1370 1570 1610 1820 2030 2230 2730
2026-04-15 05:45 3.16 1600 2750 (2019) 1280 (2014) 1880 1370 1570 1610 1820 2030 2230 2730
2026-04-15 04:45 3.14 1590 2750 (2019) 1280 (2014) 1880 1370 1570 1610 1820 2030 2230 2730
2026-04-15 03:45 3.13 1580 2750 (2019) 1280 (2014) 1880 1370 1570 1610 1820 2030 2230 2730
2026-04-15 02:45 3.14 1590 2750 (2019) 1280 (2014) 1880 1370 1570 1610 1820 2030 2230 2730
2026-04-15 01:45 3.14 1590 2750 (2019) 1280 (2014) 1880 1370 1570 1610 1820 2030 2230 2730
2026-04-15 00:45 3.16 1600 2750 (2019) 1280 (2014) 1880 1370 1570 1610 1820 2030 2230 2730
2026-04-14 23:45 3.17 1610 2750 (2019) 1280 (2014) 1880 1370 1570 1610 1820 2030 2230 2730
2026-04-14 22:45 3.18 1620 2430 (2020) 1300 (2014) 1820 1360 1500 1530 1820 2020 2080 2380
2026-04-14 21:45 3.18 1620 2430 (2020) 1300 (2014) 1820 1360 1500 1530 1820 2020 2080 2380
2026-04-14 20:45 3.18 1620 2430 (2020) 1300 (2014) 1820 1360 1500 1530 1820 2020 2080 2380
2026-04-14 19:45 3.19 1630 2430 (2020) 1300 (2014) 1820 1360 1500 1530 1820 2020 2080 2380
2026-04-14 18:45 3.21 1640 2430 (2020) 1300 (2014) 1820 1360 1500 1530 1820 2020 2080 2380
2026-04-14 17:45 3.25 1680 2430 (2020) 1300 (2014) 1820 1360 1500 1530 1820 2020 2080 2380
2026-04-14 16:45 3.25 1680 2430 (2020) 1300 (2014) 1820 1360 1500 1530 1820 2020 2080 2380
2026-04-14 15:45 3.25 1680 2430 (2020) 1300 (2014) 1820 1360 1500 1530 1820 2020 2080 2380
2026-04-14 14:45 3.24 1670 2430 (2020) 1300 (2014) 1820 1360 1500 1530 1820 2020 2080 2380
2026-04-14 13:45 3.26 1680 2430 (2020) 1300 (2014) 1820 1360 1500 1530 1820 2020 2080 2380
2026-04-14 12:45 3.25 1680 2430 (2020) 1300 (2014) 1820 1360 1500 1530 1820 2020 2080 2380
2026-04-14 11:45 3.23 1660 2430 (2020) 1300 (2014) 1820 1360 1500 1530 1820 2020 2080 2380
2026-04-14 09:45 3.27 1690 2430 (2020) 1300 (2014) 1820 1360 1500 1530 1820 2020 2080 2380
2026-04-14 08:45 3.24 1670 2430 (2020) 1300 (2014) 1820 1360 1500 1530 1820 2020 2080 2380
2026-04-14 07:45 3.27 1690 2430 (2020) 1300 (2014) 1820 1360 1500 1530 1820 2020 2080 2380
2026-04-14 06:45 3.26 1680 2430 (2020) 1300 (2014) 1820 1360 1500 1530 1820 2020 2080 2380
2026-04-14 05:45 3.27 1690 2430 (2020) 1300 (2014) 1820 1360 1500 1530 1820 2020 2080 2380
2026-04-14 04:45 3.26 1680 2430 (2020) 1300 (2014) 1820 1360 1500 1530 1820 2020 2080 2380
2026-04-14 03:45 3.26 1680 2430 (2020) 1300 (2014) 1820 1360 1500 1530 1820 2020 2080 2380
2026-04-14 02:45 3.27 1690 2430 (2020) 1300 (2014) 1820 1360 1500 1530 1820 2020 2080 2380
2026-04-14 01:45 3.26 1680 2430 (2020) 1300 (2014) 1820 1360 1500 1530 1820 2020 2080 2380
2026-04-14 00:45 3.26 1680 2430 (2020) 1300 (2014) 1820 1360 1500 1530 1820 2020 2080 2380
2026-04-13 23:45 3.26 1680 2430 (2020) 1300 (2014) 1820 1360 1500 1530 1820 2020 2080 2380
2026-04-13 22:45 3.24 1670 2450 (2020) 1340 (2016) 1820 1370 1500 1530 1810 2100 2130 2330
2026-04-13 21:45 3.25 1680 2450 (2020) 1340 (2016) 1820 1370 1500 1530 1810 2100 2130 2330
2026-04-13 20:45 3.23 1660 2450 (2020) 1340 (2016) 1820 1370 1500 1530 1810 2100 2130 2330
2026-04-13 19:45 3.25 1680 2450 (2020) 1340 (2016) 1820 1370 1500 1530 1810 2100 2130 2330
2026-04-13 18:45 3.25 1680 2450 (2020) 1340 (2016) 1820 1370 1500 1530 1810 2100 2130 2330
2026-04-13 17:45 3.28 1700 2450 (2020) 1340 (2016) 1820 1370 1500 1530 1810 2100 2130 2330
2026-04-13 16:45 3.28 1700 2450 (2020) 1340 (2016) 1820 1370 1500 1530 1810 2100 2130 2330
2026-04-13 15:45 3.27 1690 2450 (2020) 1340 (2016) 1820 1370 1500 1530 1810 2100 2130 2330
2026-04-13 14:45 3.28 1700 2450 (2020) 1340 (2016) 1820 1370 1500 1530 1810 2100 2130 2330
2026-04-13 13:45 3.27 1690 2450 (2020) 1340 (2016) 1820 1370 1500 1530 1810 2100 2130 2330
2026-04-13 12:45 3.24 1670 2450 (2020) 1340 (2016) 1820 1370 1500 1530 1810 2100 2130 2330
2026-04-13 11:45 3.24 1670 2450 (2020) 1340 (2016) 1820 1370 1500 1530 1810 2100 2130 2330
2026-04-13 10:45 3.26 1680 2450 (2020) 1340 (2016) 1820 1370 1500 1530 1810 2100 2130 2330
2026-04-13 09:45 3.26 1680 2450 (2020) 1340 (2016) 1820 1370 1500 1530 1810 2100 2130 2330
2026-04-13 08:45 3.23 1660 2450 (2020) 1340 (2016) 1820 1370 1500 1530 1810 2100 2130 2330
2026-04-13 08:30 3.24 1670 2450 (2020) 1340 (2016) 1820 1370 1500 1530 1810 2100 2130 2330
2026-04-13 07:45 3.27 1690 2450 (2020) 1340 (2016) 1820 1370 1500 1530 1810 2100 2130 2330
2026-04-13 06:45 3.26 1680 2450 (2020) 1340 (2016) 1820 1370 1500 1530 1810 2100 2130 2330
2026-04-13 05:45 3.23 1660 2450 (2020) 1340 (2016) 1820 1370 1500 1530 1810 2100 2130 2330
2026-04-13 04:45 3.22 1650 2450 (2020) 1340 (2016) 1820 1370 1500 1530 1810 2100 2130 2330
2026-04-13 03:45 3.23 1660 2450 (2020) 1340 (2016) 1820 1370 1500 1530 1810 2100 2130 2330
2026-04-13 02:45 3.22 1650 2450 (2020) 1340 (2016) 1820 1370 1500 1530 1810 2100 2130 2330
2026-04-13 01:45 3.22 1650 2450 (2020) 1340 (2016) 1820 1370 1500 1530 1810 2100 2130 2330
2026-04-13 00:45 3.20 1630 2450 (2020) 1340 (2016) 1820 1370 1500 1530 1810 2100 2130 2330
2026-04-12 23:45 3.18 1620 2450 (2020) 1340 (2016) 1820 1370 1500 1530 1810 2100 2130 2330
2026-04-12 22:45 3.19 1630 2450 (2020) 1250 (2013) 1790 1280 1400 1450 1800 2020 2090 2400
2026-04-12 21:45 3.21 1640 2450 (2020) 1250 (2013) 1790 1280 1400 1450 1800 2020 2090 2400
2026-04-12 20:45 3.20 1630 2450 (2020) 1250 (2013) 1790 1280 1400 1450 1800 2020 2090 2400
2026-04-12 19:45 3.22 1650 2450 (2020) 1250 (2013) 1790 1280 1400 1450 1800 2020 2090 2400
2026-04-12 18:45 3.22 1650 2450 (2020) 1250 (2013) 1790 1280 1400 1450 1800 2020 2090 2400
2026-04-12 17:45 3.21 1640 2450 (2020) 1250 (2013) 1790 1280 1400 1450 1800 2020 2090 2400
2026-04-12 16:45 3.22 1650 2450 (2020) 1250 (2013) 1790 1280 1400 1450 1800 2020 2090 2400
2026-04-12 15:45 3.21 1640 2450 (2020) 1250 (2013) 1790 1280 1400 1450 1800 2020 2090 2400
2026-04-12 14:45 3.20 1630 2450 (2020) 1250 (2013) 1790 1280 1400 1450 1800 2020 2090 2400
2026-04-12 13:45 3.17 1610 2450 (2020) 1250 (2013) 1790 1280 1400 1450 1800 2020 2090 2400
2026-04-12 12:45 3.14 1590 2450 (2020) 1250 (2013) 1790 1280 1400 1450 1800 2020 2090 2400
2026-04-12 11:45 3.15 1600 2450 (2020) 1250 (2013) 1790 1280 1400 1450 1800 2020 2090 2400
2026-04-12 10:45 3.16 1600 2450 (2020) 1250 (2013) 1790 1280 1400 1450 1800 2020 2090 2400
2026-04-12 09:45 3.16 1600 2450 (2020) 1250 (2013) 1790 1280 1400 1450 1800 2020 2090 2400
2026-04-12 08:45 3.17 1610 2450 (2020) 1250 (2013) 1790 1280 1400 1450 1800 2020 2090 2400
2026-04-12 07:45 3.22 1650 2450 (2020) 1250 (2013) 1790 1280 1400 1450 1800 2020 2090 2400
2026-04-12 06:45 3.23 1660 2450 (2020) 1250 (2013) 1790 1280 1400 1450 1800 2020 2090 2400
2026-04-12 05:45 3.19 1630 2450 (2020) 1250 (2013) 1790 1280 1400 1450 1800 2020 2090 2400
2026-04-12 04:45 3.20 1630 2450 (2020) 1250 (2013) 1790 1280 1400 1450 1800 2020 2090 2400
2026-04-12 03:45 3.16 1600 2450 (2020) 1250 (2013) 1790 1280 1400 1450 1800 2020 2090 2400
2026-04-12 02:45 3.16 1600 2450 (2020) 1250 (2013) 1790 1280 1400 1450 1800 2020 2090 2400
2026-04-12 01:45 3.13 1580 2450 (2020) 1250 (2013) 1790 1280 1400 1450 1800 2020 2090 2400
2026-04-12 00:45 3.14 1590 2450 (2020) 1250 (2013) 1790 1280 1400 1450 1800 2020 2090 2400
2026-04-11 23:45 3.13 1580 2450 (2020) 1250 (2013) 1790 1280 1400 1450 1800 2020 2090 2400
2026-04-11 22:45 3.11 1560 2450 (2020) 1300 (2014) 1790 1320 1460 1590 1830 1960 2020 2320
2026-04-11 21:45 3.13 1580 2450 (2020) 1300 (2014) 1790 1320 1460 1590 1830 1960 2020 2320
2026-04-11 20:45 3.12 1570 2450 (2020) 1300 (2014) 1790 1320 1460 1590 1830 1960 2020 2320
2026-04-11 19:45 3.07 1530 2450 (2020) 1300 (2014) 1790 1320 1460 1590 1830 1960 2020 2320
2026-04-11 18:45 3.02 1500 2450 (2020) 1300 (2014) 1790 1320 1460 1590 1830 1960 2020 2320
2026-04-11 17:45 3.03 1500 2450 (2020) 1300 (2014) 1790 1320 1460 1590 1830 1960 2020 2320
2026-04-11 16:45 3.04 1510 2450 (2020) 1300 (2014) 1790 1320 1460 1590 1830 1960 2020 2320
2026-04-11 15:45 3.02 1500 2450 (2020) 1300 (2014) 1790 1320 1460 1590 1830 1960 2020 2320
2026-04-11 14:45 3.00 1480 2450 (2020) 1300 (2014) 1790 1320 1460 1590 1830 1960 2020 2320
2026-04-11 13:45 3.05 1520 2450 (2020) 1300 (2014) 1790 1320 1460 1590 1830 1960 2020 2320
2026-04-11 12:45 3.00 1480 2450 (2020) 1300 (2014) 1790 1320 1460 1590 1830 1960 2020 2320
2026-04-11 11:45 3.02 1500 2450 (2020) 1300 (2014) 1790 1320 1460 1590 1830 1960 2020 2320
2026-04-11 10:45 3.01 1490 2450 (2020) 1300 (2014) 1790 1320 1460 1590 1830 1960 2020 2320
2026-04-11 09:45 2.97 1380 2450 (2020) 1300 (2014) 1790 1320 1460 1590 1830 1960 2020 2320
2026-04-11 08:45 3.04 1510 2450 (2020) 1300 (2014) 1790 1320 1460 1590 1830 1960 2020 2320
2026-04-11 07:45 3.01 1490 2450 (2020) 1300 (2014) 1790 1320 1460 1590 1830 1960 2020 2320
2026-04-11 06:45 2.99 1450 2450 (2020) 1300 (2014) 1790 1320 1460 1590 1830 1960 2020 2320
2026-04-11 05:45 3.05 1520 2450 (2020) 1300 (2014) 1790 1320 1460 1590 1830 1960 2020 2320
2026-04-11 04:45 3.05 1520 2450 (2020) 1300 (2014) 1790 1320 1460 1590 1830 1960 2020 2320
2026-04-11 03:45 2.96 1350 2450 (2020) 1300 (2014) 1790 1320 1460 1590 1830 1960 2020 2320
2026-04-11 02:45 2.99 1450 2450 (2020) 1300 (2014) 1790 1320 1460 1590 1830 1960 2020 2320
2026-04-11 01:45 2.95 1320 2450 (2020) 1300 (2014) 1790 1320 1460 1590 1830 1960 2020 2320
2026-04-11 00:45 2.95 1320 2450 (2020) 1300 (2014) 1790 1320 1460 1590 1830 1960 2020 2320
2026-04-10 23:45 2.94 1290 2450 (2020) 1300 (2014) 1790 1320 1460 1590 1830 1960 2020 2320
2026-04-10 22:45 3.01 1490 2430 (2020) 1350 (2016) 1880 1360 1480 1530 1880 2220 2350 2420
2026-04-10 21:45 3.02 1500 2430 (2020) 1350 (2016) 1880 1360 1480 1530 1880 2220 2350 2420
2026-04-10 20:45 2.97 1380 2430 (2020) 1350 (2016) 1880 1360 1480 1530 1880 2220 2350 2420
2026-04-10 19:45 3.05 1520 2430 (2020) 1350 (2016) 1880 1360 1480 1530 1880 2220 2350 2420
2026-04-10 18:45 2.96 1350 2430 (2020) 1350 (2016) 1880 1360 1480 1530 1880 2220 2350 2420
2026-04-10 17:45 2.98 1410 2430 (2020) 1350 (2016) 1880 1360 1480 1530 1880 2220 2350 2420
2026-04-10 16:45 3.00 1480 2430 (2020) 1350 (2016) 1880 1360 1480 1530 1880 2220 2350 2420
2026-04-10 15:45 3.02 1500 2430 (2020) 1350 (2016) 1880 1360 1480 1530 1880 2220 2350 2420
2026-04-10 14:45 2.98 1410 2430 (2020) 1350 (2016) 1880 1360 1480 1530 1880 2220 2350 2420
2026-04-10 13:45 2.99 1450 2430 (2020) 1350 (2016) 1880 1360 1480 1530 1880 2220 2350 2420
2026-04-10 12:45 3.01 1490 2430 (2020) 1350 (2016) 1880 1360 1480 1530 1880 2220 2350 2420
2026-04-10 11:45 2.99 1450 2430 (2020) 1350 (2016) 1880 1360 1480 1530 1880 2220 2350 2420
2026-04-10 10:45 2.96 1350 2430 (2020) 1350 (2016) 1880 1360 1480 1530 1880 2220 2350 2420
2026-04-10 09:45 2.92 1230 2430 (2020) 1350 (2016) 1880 1360 1480 1530 1880 2220 2350 2420
2026-04-10 08:45 3.02 1500 2430 (2020) 1350 (2016) 1880 1360 1480 1530 1880 2220 2350 2420
2026-04-10 07:45 2.99 1450 2430 (2020) 1350 (2016) 1880 1360 1480 1530 1880 2220 2350 2420
2026-04-10 06:45 2.97 1380 2430 (2020) 1350 (2016) 1880 1360 1480 1530 1880 2220 2350 2420
2026-04-10 05:45 3.00 1480 2430 (2020) 1350 (2016) 1880 1360 1480 1530 1880 2220 2350 2420
2026-04-10 04:45 2.94 1290 2430 (2020) 1350 (2016) 1880 1360 1480 1530 1880 2220 2350 2420
2026-04-10 03:45 3.01 1490 2430 (2020) 1350 (2016) 1880 1360 1480 1530 1880 2220 2350 2420
2026-04-10 02:45 2.98 1410 2430 (2020) 1350 (2016) 1880 1360 1480 1530 1880 2220 2350 2420
2026-04-10 01:45 3.03 1500 2430 (2020) 1350 (2016) 1880 1360 1480 1530 1880 2220 2350 2420
2026-04-10 00:45 3.04 1510 2430 (2020) 1350 (2016) 1880 1360 1480 1530 1880 2220 2350 2420
2026-04-09 23:45 3.06 1530 2430 (2020) 1350 (2016) 1880 1360 1480 1530 1880 2220 2350 2420
2026-04-09 22:45 3.06 1530 2560 (2013) 1150 (2016) 1830 1240 1390 1490 1800 2060 2170 2520
2026-04-09 21:45 3.07 1530 2560 (2013) 1150 (2016) 1830 1240 1390 1490 1800 2060 2170 2520
2026-04-09 20:45 3.10 1560 2560 (2013) 1150 (2016) 1830 1240 1390 1490 1800 2060 2170 2520
2026-04-09 19:45 3.09 1550 2560 (2013) 1150 (2016) 1830 1240 1390 1490 1800 2060 2170 2520
2026-04-09 18:45 3.12 1570 2560 (2013) 1150 (2016) 1830 1240 1390 1490 1800 2060 2170 2520
2026-04-09 17:45 3.14 1590 2560 (2013) 1150 (2016) 1830 1240 1390 1490 1800 2060 2170 2520
2026-04-09 16:45 3.13 1580 2560 (2013) 1150 (2016) 1830 1240 1390 1490 1800 2060 2170 2520
2026-04-09 15:45 3.16 1600 2560 (2013) 1150 (2016) 1830 1240 1390 1490 1800 2060 2170 2520
2026-04-09 14:45 3.18 1620 2560 (2013) 1150 (2016) 1830 1240 1390 1490 1800 2060 2170 2520
2026-04-09 13:45 3.17 1610 2560 (2013) 1150 (2016) 1830 1240 1390 1490 1800 2060 2170 2520
2026-04-09 12:45 3.15 1600 2560 (2013) 1150 (2016) 1830 1240 1390 1490 1800 2060 2170 2520
2026-04-09 11:45 3.17 1610 2560 (2013) 1150 (2016) 1830 1240 1390 1490 1800 2060 2170 2520
2026-04-09 10:45 3.15 1600 2560 (2013) 1150 (2016) 1830 1240 1390 1490 1800 2060 2170 2520
2026-04-09 09:45 3.14 1590 2560 (2013) 1150 (2016) 1830 1240 1390 1490 1800 2060 2170 2520
2026-04-09 08:45 3.12 1570 2560 (2013) 1150 (2016) 1830 1240 1390 1490 1800 2060 2170 2520
2026-04-09 07:45 3.08 1540 2560 (2013) 1150 (2016) 1830 1240 1390 1490 1800 2060 2170 2520
2026-04-09 06:45 3.06 1530 2560 (2013) 1150 (2016) 1830 1240 1390 1490 1800 2060 2170 2520
2026-04-09 05:45 3.04 1510 2560 (2013) 1150 (2016) 1830 1240 1390 1490 1800 2060 2170 2520
2026-04-09 04:45 3.06 1530 2560 (2013) 1150 (2016) 1830 1240 1390 1490 1800 2060 2170 2520
2026-04-09 03:45 3.06 1530 2560 (2013) 1150 (2016) 1830 1240 1390 1490 1800 2060 2170 2520
2026-04-09 02:45 3.07 1530 2560 (2013) 1150 (2016) 1830 1240 1390 1490 1800 2060 2170 2520
2026-04-09 01:45 3.07 1530 2560 (2013) 1150 (2016) 1830 1240 1390 1490 1800 2060 2170 2520
2026-04-09 00:45 3.08 1540 2560 (2013) 1150 (2016) 1830 1240 1390 1490 1800 2060 2170 2520
2026-04-08 23:45 3.07 1530 2560 (2013) 1150 (2016) 1830 1240 1390 1490 1800 2060 2170 2520
2026-04-08 22:45 3.07 1530 2710 (2020) 1100 (2015) 1810 1130 1320 1480 1770 2090 2170 2540
2026-04-08 21:45 3.08 1540 2710 (2020) 1100 (2015) 1810 1130 1320 1480 1770 2090 2170 2540
2026-04-08 20:45 3.07 1530 2710 (2020) 1100 (2015) 1810 1130 1320 1480 1770 2090 2170 2540
2026-04-08 19:45 3.09 1550 2710 (2020) 1100 (2015) 1810 1130 1320 1480 1770 2090 2170 2540
2026-04-08 18:45 3.09 1550 2710 (2020) 1100 (2015) 1810 1130 1320 1480 1770 2090 2170 2540
2026-04-08 17:45 3.11 1560 2710 (2020) 1100 (2015) 1810 1130 1320 1480 1770 2090 2170 2540
2026-04-08 16:45 3.11 1560 2710 (2020) 1100 (2015) 1810 1130 1320 1480 1770 2090 2170 2540
2026-04-08 15:45 3.11 1560 2710 (2020) 1100 (2015) 1810 1130 1320 1480 1770 2090 2170 2540
2026-04-08 14:45 3.11 1560 2710 (2020) 1100 (2015) 1810 1130 1320 1480 1770 2090 2170 2540
2026-04-08 13:45 3.12 1570 2710 (2020) 1100 (2015) 1810 1130 1320 1480 1770 2090 2170 2540
2026-04-08 12:45 3.12 1570 2710 (2020) 1100 (2015) 1810 1130 1320 1480 1770 2090 2170 2540
2026-04-08 11:45 3.12 1570 2710 (2020) 1100 (2015) 1810 1130 1320 1480 1770 2090 2170 2540
2026-04-08 10:45 3.10 1560 2710 (2020) 1100 (2015) 1810 1130 1320 1480 1770 2090 2170 2540
2026-04-08 09:45 3.08 1540 2710 (2020) 1100 (2015) 1810 1130 1320 1480 1770 2090 2170 2540
2026-04-08 08:45 3.09 1550 2710 (2020) 1100 (2015) 1810 1130 1320 1480 1770 2090 2170 2540
2026-04-08 07:45 3.07 1530 2710 (2020) 1100 (2015) 1810 1130 1320 1480 1770 2090 2170 2540
2026-04-08 07:30 3.08 1540 2710 (2020) 1100 (2015) 1810 1130 1320 1480 1770 2090 2170 2540
2026-04-08 06:45 3.09 1550 2710 (2020) 1100 (2015) 1810 1130 1320 1480 1770 2090 2170 2540
2026-04-08 05:45 3.08 1540 2710 (2020) 1100 (2015) 1810 1130 1320 1480 1770 2090 2170 2540
2026-04-08 04:45 3.07 1530 2710 (2020) 1100 (2015) 1810 1130 1320 1480 1770 2090 2170 2540
2026-04-08 03:45 3.10 1560 2710 (2020) 1100 (2015) 1810 1130 1320 1480 1770 2090 2170 2540
2026-04-08 02:45 3.09 1550 2710 (2020) 1100 (2015) 1810 1130 1320 1480 1770 2090 2170 2540
2026-04-08 01:45 3.06 1530 2710 (2020) 1100 (2015) 1810 1130 1320 1480 1770 2090 2170 2540
2026-04-08 00:45 3.03 1500 2710 (2020) 1100 (2015) 1810 1130 1320 1480 1770 2090 2170 2540
2026-04-07 23:45 3.03 1500 2710 (2020) 1100 (2015) 1810 1130 1320 1480 1770 2090 2170 2540
2026-04-07 22:45 2.95 1320 2710 (2020) 1060 (2016) 1780 1120 1450 1540 1740 2050 2110 2550
2026-04-07 21:45 2.97 1380 2710 (2020) 1060 (2016) 1780 1120 1450 1540 1740 2050 2110 2550
2026-04-07 20:45 2.96 1350 2710 (2020) 1060 (2016) 1780 1120 1450 1540 1740 2050 2110 2550
2026-04-07 19:45 2.97 1380 2710 (2020) 1060 (2016) 1780 1120 1450 1540 1740 2050 2110 2550
2026-04-07 18:45 3.00 1480 2710 (2020) 1060 (2016) 1780 1120 1450 1540 1740 2050 2110 2550
2026-04-07 17:45 3.01 1490 2710 (2020) 1060 (2016) 1780 1120 1450 1540 1740 2050 2110 2550
2026-04-07 16:45 2.95 1320 2710 (2020) 1060 (2016) 1780 1120 1450 1540 1740 2050 2110 2550
2026-04-07 15:45 3.00 1480 2710 (2020) 1060 (2016) 1780 1120 1450 1540 1740 2050 2110 2550
2026-04-07 14:45 2.94 1290 2710 (2020) 1060 (2016) 1780 1120 1450 1540 1740 2050 2110 2550
2026-04-07 13:45 2.99 1450 2710 (2020) 1060 (2016) 1780 1120 1450 1540 1740 2050 2110 2550
2026-04-07 12:45 2.95 1320 2710 (2020) 1060 (2016) 1780 1120 1450 1540 1740 2050 2110 2550
2026-04-07 11:45 2.96 1350 2710 (2020) 1060 (2016) 1780 1120 1450 1540 1740 2050 2110 2550
2026-04-07 10:45 2.93 1260 2710 (2020) 1060 (2016) 1780 1120 1450 1540 1740 2050 2110 2550
2026-04-07 09:45 2.99 1450 2710 (2020) 1060 (2016) 1780 1120 1450 1540 1740 2050 2110 2550
2026-04-07 08:45 2.98 1410 2710 (2020) 1060 (2016) 1780 1120 1450 1540 1740 2050 2110 2550
2026-04-07 07:45 3.00 1480 2710 (2020) 1060 (2016) 1780 1120 1450 1540 1740 2050 2110 2550
2026-04-07 06:45 2.96 1350 2710 (2020) 1060 (2016) 1780 1120 1450 1540 1740 2050 2110 2550
2026-04-07 05:45 2.98 1410 2710 (2020) 1060 (2016) 1780 1120 1450 1540 1740 2050 2110 2550
2026-04-07 04:45 2.96 1350 2710 (2020) 1060 (2016) 1780 1120 1450 1540 1740 2050 2110 2550
2026-04-07 03:45 2.95 1320 2710 (2020) 1060 (2016) 1780 1120 1450 1540 1740 2050 2110 2550
2026-04-07 02:45 2.93 1260 2710 (2020) 1060 (2016) 1780 1120 1450 1540 1740 2050 2110 2550
2026-04-07 01:45 2.92 1230 2710 (2020) 1060 (2016) 1780 1120 1450 1540 1740 2050 2110 2550
2026-04-07 00:45 2.91 1200 2710 (2020) 1060 (2016) 1780 1120 1450 1540 1740 2050 2110 2550
2026-04-06 23:45 2.85 1040 2710 (2020) 1060 (2016) 1780 1120 1450 1540 1740 2050 2110 2550
2026-04-06 22:45 2.91 1200 2860 (2020) 1150 (2016) 1840 1210 1460 1500 1790 2160 2290 2700
2026-04-06 21:45 2.94 1290 2860 (2020) 1150 (2016) 1840 1210 1460 1500 1790 2160 2290 2700
2026-04-06 20:45 2.90 1170 2860 (2020) 1150 (2016) 1840 1210 1460 1500 1790 2160 2290 2700
2026-04-06 19:45 2.91 1200 2860 (2020) 1150 (2016) 1840 1210 1460 1500 1790 2160 2290 2700
2026-04-06 18:45 2.92 1230 2860 (2020) 1150 (2016) 1840 1210 1460 1500 1790 2160 2290 2700
2026-04-06 17:45 2.86 1060 2860 (2020) 1150 (2016) 1840 1210 1460 1500 1790 2160 2290 2700
2026-04-06 16:45 2.88 1110 2860 (2020) 1150 (2016) 1840 1210 1460 1500 1790 2160 2290 2700
2026-04-06 15:45 2.99 1450 2860 (2020) 1150 (2016) 1840 1210 1460 1500 1790 2160 2290 2700
2026-04-06 14:45 3.02 1500 2860 (2020) 1150 (2016) 1840 1210 1460 1500 1790 2160 2290 2700
2026-04-06 13:45 2.97 1380 2860 (2020) 1150 (2016) 1840 1210 1460 1500 1790 2160 2290 2700
2026-04-06 12:45 2.90 1170 2860 (2020) 1150 (2016) 1840 1210 1460 1500 1790 2160 2290 2700
2026-04-06 11:45 2.88 1110 2860 (2020) 1150 (2016) 1840 1210 1460 1500 1790 2160 2290 2700
2026-04-06 10:45 3.04 1510 2860 (2020) 1150 (2016) 1840 1210 1460 1500 1790 2160 2290 2700
2026-04-06 09:45 2.95 1320 2860 (2020) 1150 (2016) 1840 1210 1460 1500 1790 2160 2290 2700
2026-04-06 08:45 2.88 1110 2860 (2020) 1150 (2016) 1840 1210 1460 1500 1790 2160 2290 2700
2026-04-06 07:45 2.89 1140 2860 (2020) 1150 (2016) 1840 1210 1460 1500 1790 2160 2290 2700
2026-04-06 06:45 2.84 1010 2860 (2020) 1150 (2016) 1840 1210 1460 1500 1790 2160 2290 2700
2026-04-06 05:45 2.87 1090 2860 (2020) 1150 (2016) 1840 1210 1460 1500 1790 2160 2290 2700
2026-04-06 04:45 2.94 1290 2860 (2020) 1150 (2016) 1840 1210 1460 1500 1790 2160 2290 2700
2026-04-06 03:45 2.81 939 2860 (2020) 1150 (2016) 1840 1210 1460 1500 1790 2160 2290 2700
2026-04-06 02:45 2.85 1040 2860 (2020) 1150 (2016) 1840 1210 1460 1500 1790 2160 2290 2700
2026-04-06 01:45 2.89 1140 2860 (2020) 1150 (2016) 1840 1210 1460 1500 1790 2160 2290 2700
2026-04-06 00:45 2.85 1040 2860 (2020) 1150 (2016) 1840 1210 1460 1500 1790 2160 2290 2700
2026-04-05 23:45 2.92 1230 2860 (2020) 1150 (2016) 1840 1210 1460 1500 1790 2160 2290 2700
2026-04-05 22:45 2.87 1090 2940 (2020) 1170 (2016) 1900 1220 1410 1490 1920 2140 2290 2840
2026-04-05 21:45 2.89 1140 2940 (2020) 1170 (2016) 1900 1220 1410 1490 1920 2140 2290 2840
2026-04-05 20:45 2.84 1010 2940 (2020) 1170 (2016) 1900 1220 1410 1490 1920 2140 2290 2840
2026-04-05 19:45 2.84 1010 2940 (2020) 1170 (2016) 1900 1220 1410 1490 1920 2140 2290 2840
2026-04-05 18:45 2.82 962 2940 (2020) 1170 (2016) 1900 1220 1410 1490 1920 2140 2290 2840
2026-04-05 17:45 2.88 1110 2940 (2020) 1170 (2016) 1900 1220 1410 1490 1920 2140 2290 2840
2026-04-05 16:45 2.87 1090 2940 (2020) 1170 (2016) 1900 1220 1410 1490 1920 2140 2290 2840
2026-04-05 15:45 2.93 1260 2940 (2020) 1170 (2016) 1900 1220 1410 1490 1920 2140 2290 2840
2026-04-05 14:45 2.84 1010 2940 (2020) 1170 (2016) 1900 1220 1410 1490 1920 2140 2290 2840
2026-04-05 13:45 2.83 986 2940 (2020) 1170 (2016) 1900 1220 1410 1490 1920 2140 2290 2840
2026-04-05 12:45 2.96 1350 2940 (2020) 1170 (2016) 1900 1220 1410 1490 1920 2140 2290 2840
2026-04-05 11:45 2.93 1260 2940 (2020) 1170 (2016) 1900 1220 1410 1490 1920 2140 2290 2840
2026-04-05 10:45 2.88 1110 2940 (2020) 1170 (2016) 1900 1220 1410 1490 1920 2140 2290 2840
2026-04-05 09:45 2.95 1320 2940 (2020) 1170 (2016) 1900 1220 1410 1490 1920 2140 2290 2840
2026-04-05 08:45 2.90 1170 2940 (2020) 1170 (2016) 1900 1220 1410 1490 1920 2140 2290 2840
2026-04-05 07:45 2.90 1170 2940 (2020) 1170 (2016) 1900 1220 1410 1490 1920 2140 2290 2840
2026-04-05 06:45 2.84 1010 2940 (2020) 1170 (2016) 1900 1220 1410 1490 1920 2140 2290 2840
2026-04-05 05:45 2.79 894 2940 (2020) 1170 (2016) 1900 1220 1410 1490 1920 2140 2290 2840
2026-04-05 04:45 2.82 962 2940 (2020) 1170 (2016) 1900 1220 1410 1490 1920 2140 2290 2840
2026-04-05 03:45 2.85 1040 2940 (2020) 1170 (2016) 1900 1220 1410 1490 1920 2140 2290 2840
2026-04-05 02:45 2.85 1040 2940 (2020) 1170 (2016) 1900 1220 1410 1490 1920 2140 2290 2840
2026-04-05 01:45 2.88 1110 2940 (2020) 1170 (2016) 1900 1220 1410 1490 1920 2140 2290 2840
2026-04-05 00:45 2.96 1350 2940 (2020) 1170 (2016) 1900 1220 1410 1490 1920 2140 2290 2840
2026-04-04 23:45 2.99 1450 2940 (2020) 1170 (2016) 1900 1220 1410 1490 1920 2140 2290 2840
2026-04-04 22:45 2.93 1260 2860 (2020) 1190 (2016) 1930 1310 1600 1650 2030 2170 2250 2670
2026-04-04 21:45 2.93 1260 2860 (2020) 1190 (2016) 1930 1310 1600 1650 2030 2170 2250 2670
2026-04-04 20:45 2.92 1230 2860 (2020) 1190 (2016) 1930 1310 1600 1650 2030 2170 2250 2670
2026-04-04 19:45 2.92 1230 2860 (2020) 1190 (2016) 1930 1310 1600 1650 2030 2170 2250 2670
2026-04-04 18:45 2.91 1200 2860 (2020) 1190 (2016) 1930 1310 1600 1650 2030 2170 2250 2670
2026-04-04 17:45 2.95 1320 2860 (2020) 1190 (2016) 1930 1310 1600 1650 2030 2170 2250 2670
2026-04-04 16:45 2.92 1230 2860 (2020) 1190 (2016) 1930 1310 1600 1650 2030 2170 2250 2670
2026-04-04 15:45 2.98 1410 2860 (2020) 1190 (2016) 1930 1310 1600 1650 2030 2170 2250 2670
2026-04-04 14:45 2.97 1380 2860 (2020) 1190 (2016) 1930 1310 1600 1650 2030 2170 2250 2670
2026-04-04 13:45 2.91 1200 2860 (2020) 1190 (2016) 1930 1310 1600 1650 2030 2170 2250 2670
2026-04-04 12:45 2.98 1410 2860 (2020) 1190 (2016) 1930 1310 1600 1650 2030 2170 2250 2670
2026-04-04 11:45 2.94 1290 2860 (2020) 1190 (2016) 1930 1310 1600 1650 2030 2170 2250 2670
2026-04-04 10:45 2.99 1450 2860 (2020) 1190 (2016) 1930 1310 1600 1650 2030 2170 2250 2670
2026-04-04 09:45 2.99 1450 2860 (2020) 1190 (2016) 1930 1310 1600 1650 2030 2170 2250 2670
2026-04-04 08:45 3.05 1520 2860 (2020) 1190 (2016) 1930 1310 1600 1650 2030 2170 2250 2670
2026-04-04 07:45 2.99 1450 2860 (2020) 1190 (2016) 1930 1310 1600 1650 2030 2170 2250 2670
2026-04-04 06:45 2.97 1380 2860 (2020) 1190 (2016) 1930 1310 1600 1650 2030 2170 2250 2670
2026-04-04 05:45 2.97 1380 2860 (2020) 1190 (2016) 1930 1310 1600 1650 2030 2170 2250 2670
2026-04-04 04:45 3.01 1490 2860 (2020) 1190 (2016) 1930 1310 1600 1650 2030 2170 2250 2670
2026-04-04 03:45 3.08 1540 2860 (2020) 1190 (2016) 1930 1310 1600 1650 2030 2170 2250 2670
2026-04-04 02:45 3.02 1500 2860 (2020) 1190 (2016) 1930 1310 1600 1650 2030 2170 2250 2670
2026-04-04 01:45 2.97 1380 2860 (2020) 1190 (2016) 1930 1310 1600 1650 2030 2170 2250 2670
2026-04-04 00:45 2.97 1380 2860 (2020) 1190 (2016) 1930 1310 1600 1650 2030 2170 2250 2670
2026-04-03 23:45 3.03 1500 2860 (2020) 1190 (2016) 1930 1310 1600 1650 2030 2170 2250 2670
2026-04-03 22:45 3.02 1500 2750 (2020) 1280 (2016) 1830 1340 1500 1540 1770 2110 2180 2570
2026-04-03 21:45 3.03 1500 2750 (2020) 1280 (2016) 1830 1340 1500 1540 1770 2110 2180 2570
2026-04-03 20:45 3.04 1510 2750 (2020) 1280 (2016) 1830 1340 1500 1540 1770 2110 2180 2570
2026-04-03 19:45 3.04 1510 2750 (2020) 1280 (2016) 1830 1340 1500 1540 1770 2110 2180 2570
2026-04-03 18:45 3.08 1540 2750 (2020) 1280 (2016) 1830 1340 1500 1540 1770 2110 2180 2570
2026-04-03 17:45 3.09 1550 2750 (2020) 1280 (2016) 1830 1340 1500 1540 1770 2110 2180 2570
2026-04-03 16:45 3.13 1580 2750 (2020) 1280 (2016) 1830 1340 1500 1540 1770 2110 2180 2570
2026-04-03 15:45 3.14 1590 2750 (2020) 1280 (2016) 1830 1340 1500 1540 1770 2110 2180 2570
2026-04-03 14:45 3.11 1560 2750 (2020) 1280 (2016) 1830 1340 1500 1540 1770 2110 2180 2570
2026-04-03 13:45 3.09 1550 2750 (2020) 1280 (2016) 1830 1340 1500 1540 1770 2110 2180 2570
2026-04-03 12:45 3.08 1540 2750 (2020) 1280 (2016) 1830 1340 1500 1540 1770 2110 2180 2570
2026-04-03 11:45 3.05 1520 2750 (2020) 1280 (2016) 1830 1340 1500 1540 1770 2110 2180 2570
2026-04-03 10:45 3.05 1520 2750 (2020) 1280 (2016) 1830 1340 1500 1540 1770 2110 2180 2570
2026-04-03 09:45 3.03 1500 2750 (2020) 1280 (2016) 1830 1340 1500 1540 1770 2110 2180 2570
2026-04-03 08:45 3.06 1530 2750 (2020) 1280 (2016) 1830 1340 1500 1540 1770 2110 2180 2570
2026-04-03 07:45 3.12 1570 2750 (2020) 1280 (2016) 1830 1340 1500 1540 1770 2110 2180 2570
2026-04-03 06:45 3.11 1560 2750 (2020) 1280 (2016) 1830 1340 1500 1540 1770 2110 2180 2570
2026-04-03 05:45 3.09 1550 2750 (2020) 1280 (2016) 1830 1340 1500 1540 1770 2110 2180 2570
2026-04-03 04:45 3.05 1520 2750 (2020) 1280 (2016) 1830 1340 1500 1540 1770 2110 2180 2570
2026-04-03 03:45 3.04 1510 2750 (2020) 1280 (2016) 1830 1340 1500 1540 1770 2110 2180 2570
2026-04-03 02:45 3.02 1500 2750 (2020) 1280 (2016) 1830 1340 1500 1540 1770 2110 2180 2570
2026-04-03 01:45 2.99 1450 2750 (2020) 1280 (2016) 1830 1340 1500 1540 1770 2110 2180 2570
2026-04-03 00:45 2.98 1410 2750 (2020) 1280 (2016) 1830 1340 1500 1540 1770 2110 2180 2570
2026-04-02 23:45 2.98 1410 2750 (2020) 1280 (2016) 1830 1340 1500 1540 1770 2110 2180 2570
2026-04-02 22:45 2.96 1350 2790 (2019) 1250 (2016) 1840 1270 1430 1460 1750 2090 2310 2760
2026-04-02 21:45 2.94 1290 2790 (2019) 1250 (2016) 1840 1270 1430 1460 1750 2090 2310 2760
2026-04-02 20:45 2.92 1230 2790 (2019) 1250 (2016) 1840 1270 1430 1460 1750 2090 2310 2760
2026-04-02 19:45 3.00 1480 2790 (2019) 1250 (2016) 1840 1270 1430 1460 1750 2090 2310 2760
2026-04-02 18:45 3.04 1510 2790 (2019) 1250 (2016) 1840 1270 1430 1460 1750 2090 2310 2760
2026-04-02 17:45 2.97 1380 2790 (2019) 1250 (2016) 1840 1270 1430 1460 1750 2090 2310 2760
2026-04-02 16:45 2.92 1230 2790 (2019) 1250 (2016) 1840 1270 1430 1460 1750 2090 2310 2760
2026-04-02 15:45 2.95 1320 2790 (2019) 1250 (2016) 1840 1270 1430 1460 1750 2090 2310 2760
2026-04-02 14:45 3.00 1480 2790 (2019) 1250 (2016) 1840 1270 1430 1460 1750 2090 2310 2760
2026-04-02 13:45 3.03 1500 2790 (2019) 1250 (2016) 1840 1270 1430 1460 1750 2090 2310 2760
2026-04-02 12:45 2.99 1450 2790 (2019) 1250 (2016) 1840 1270 1430 1460 1750 2090 2310 2760
2026-04-02 11:45 3.00 1480 2790 (2019) 1250 (2016) 1840 1270 1430 1460 1750 2090 2310 2760
2026-04-02 08:45 3.04 1510 2790 (2019) 1250 (2016) 1840 1270 1430 1460 1750 2090 2310 2760
2026-04-02 07:45 3.10 1560 2790 (2019) 1250 (2016) 1840 1270 1430 1460 1750 2090 2310 2760
2026-04-02 06:45 3.03 1500 2790 (2019) 1250 (2016) 1840 1270 1430 1460 1750 2090 2310 2760
2026-04-02 05:45 3.04 1510 2790 (2019) 1250 (2016) 1840 1270 1430 1460 1750 2090 2310 2760
2026-04-02 04:45 3.07 1530 2790 (2019) 1250 (2016) 1840 1270 1430 1460 1750 2090 2310 2760
2026-04-02 03:45 3.03 1500 2790 (2019) 1250 (2016) 1840 1270 1430 1460 1750 2090 2310 2760
2026-04-02 02:45 3.06 1530 2790 (2019) 1250 (2016) 1840 1270 1430 1460 1750 2090 2310 2760
2026-04-02 01:45 3.02 1500 2790 (2019) 1250 (2016) 1840 1270 1430 1460 1750 2090 2310 2760
2026-04-02 00:45 3.03 1500 2790 (2019) 1250 (2016) 1840 1270 1430 1460 1750 2090 2310 2760
2026-04-01 23:45 2.99 1450 2790 (2019) 1250 (2016) 1840 1270 1430 1460 1750 2090 2310 2760
2026-04-01 22:45 2.99 1450 3100 (2020) 1230 (2014) 1910 1300 1410 1440 1860 2160 2350 3030
2026-04-01 21:45 2.99 1450 3100 (2020) 1230 (2014) 1910 1300 1410 1440 1860 2160 2350 3030
2026-04-01 20:45 2.99 1450 3100 (2020) 1230 (2014) 1910 1300 1410 1440 1860 2160 2350 3030
2026-04-01 19:45 2.97 1380 3100 (2020) 1230 (2014) 1910 1300 1410 1440 1860 2160 2350 3030
2026-04-01 18:45 3.02 1500 3100 (2020) 1230 (2014) 1910 1300 1410 1440 1860 2160 2350 3030
2026-04-01 17:45 3.00 1480 3100 (2020) 1230 (2014) 1910 1300 1410 1440 1860 2160 2350 3030
2026-04-01 16:45 2.98 1410 3100 (2020) 1230 (2014) 1910 1300 1410 1440 1860 2160 2350 3030
2026-04-01 15:45 3.03 1500 3100 (2020) 1230 (2014) 1910 1300 1410 1440 1860 2160 2350 3030
2026-04-01 14:45 3.02 1500 3100 (2020) 1230 (2014) 1910 1300 1410 1440 1860 2160 2350 3030
2026-04-01 13:45 3.07 1530 3100 (2020) 1230 (2014) 1910 1300 1410 1440 1860 2160 2350 3030
2026-04-01 12:45 3.03 1500 3100 (2020) 1230 (2014) 1910 1300 1410 1440 1860 2160 2350 3030
2026-04-01 11:45 3.09 1550 3100 (2020) 1230 (2014) 1910 1300 1410 1440 1860 2160 2350 3030
2026-04-01 10:45 3.10 1560 3100 (2020) 1230 (2014) 1910 1300 1410 1440 1860 2160 2350 3030
2026-04-01 09:45 3.11 1560 3100 (2020) 1230 (2014) 1910 1300 1410 1440 1860 2160 2350 3030
2026-04-01 08:45 3.13 1580 3100 (2020) 1230 (2014) 1910 1300 1410 1440 1860 2160 2350 3030
2026-04-01 07:45 3.13 1580 3100 (2020) 1230 (2014) 1910 1300 1410 1440 1860 2160 2350 3030
2026-04-01 06:45 3.14 1590 3100 (2020) 1230 (2014) 1910 1300 1410 1440 1860 2160 2350 3030
2026-04-01 05:45 3.16 1600 3100 (2020) 1230 (2014) 1910 1300 1410 1440 1860 2160 2350 3030
2026-04-01 04:45 3.15 1600 3100 (2020) 1230 (2014) 1910 1300 1410 1440 1860 2160 2350 3030
2026-04-01 03:45 3.12 1570 3100 (2020) 1230 (2014) 1910 1300 1410 1440 1860 2160 2350 3030
2026-04-01 02:45 3.10 1560 3100 (2020) 1230 (2014) 1910 1300 1410 1440 1860 2160 2350 3030
2026-04-01 01:45 3.09 1550 3100 (2020) 1230 (2014) 1910 1300 1410 1440 1860 2160 2350 3030
2026-04-01 00:45 3.08 1540 3100 (2020) 1230 (2014) 1910 1300 1410 1440 1860 2160 2350 3030
2026-03-31 23:45 3.09 1550 3100 (2020) 1230 (2014) 1910 1300 1410 1440 1860 2160 2350 3030
2026-03-31 22:45 3.09 1550 3250 (2020) 1370 (2014) 1950 1370 1390 1410 1830 2120 2570 3240
2026-03-31 21:45 3.12 1570 3250 (2020) 1370 (2014) 1950 1370 1390 1410 1830 2120 2570 3240
2026-03-31 20:45 3.14 1590 3250 (2020) 1370 (2014) 1950 1370 1390 1410 1830 2120 2570 3240
2026-03-31 19:45 3.14 1590 3250 (2020) 1370 (2014) 1950 1370 1390 1410 1830 2120 2570 3240
2026-03-31 18:45 3.16 1600 3250 (2020) 1370 (2014) 1950 1370 1390 1410 1830 2120 2570 3240
2026-03-31 17:45 3.18 1620 3250 (2020) 1370 (2014) 1950 1370 1390 1410 1830 2120 2570 3240
2026-03-31 16:45 3.21 1640 3250 (2020) 1370 (2014) 1950 1370 1390 1410 1830 2120 2570 3240
2026-03-31 15:45 3.21 1640 3250 (2020) 1370 (2014) 1950 1370 1390 1410 1830 2120 2570 3240
2026-03-31 14:45 3.21 1640 3250 (2020) 1370 (2014) 1950 1370 1390 1410 1830 2120 2570 3240
2026-03-31 13:45 3.20 1630 3250 (2020) 1370 (2014) 1950 1370 1390 1410 1830 2120 2570 3240
2026-03-31 12:45 3.18 1620 3250 (2020) 1370 (2014) 1950 1370 1390 1410 1830 2120 2570 3240
2026-03-31 11:45 3.18 1620 3250 (2020) 1370 (2014) 1950 1370 1390 1410 1830 2120 2570 3240
2026-03-31 10:45 3.17 1610 3250 (2020) 1370 (2014) 1950 1370 1390 1410 1830 2120 2570 3240
2026-03-31 09:45 3.18 1620 3250 (2020) 1370 (2014) 1950 1370 1390 1410 1830 2120 2570 3240
2026-03-31 08:45 3.15 1600 3250 (2020) 1370 (2014) 1950 1370 1390 1410 1830 2120 2570 3240
2026-03-31 07:45 3.14 1590 3250 (2020) 1370 (2014) 1950 1370 1390 1410 1830 2120 2570 3240
2026-03-31 06:45 3.14 1590 3250 (2020) 1370 (2014) 1950 1370 1390 1410 1830 2120 2570 3240
2026-03-31 05:45 3.12 1570 3250 (2020) 1370 (2014) 1950 1370 1390 1410 1830 2120 2570 3240
2026-03-31 04:45 3.09 1550 3250 (2020) 1370 (2014) 1950 1370 1390 1410 1830 2120 2570 3240
2026-03-31 03:45 3.07 1530 3250 (2020) 1370 (2014) 1950 1370 1390 1410 1830 2120 2570 3240
2026-03-31 02:45 3.06 1530 3250 (2020) 1370 (2014) 1950 1370 1390 1410 1830 2120 2570 3240
2026-03-31 01:45 3.08 1540 3250 (2020) 1370 (2014) 1950 1370 1390 1410 1830 2120 2570 3240
2026-03-31 00:45 3.07 1530 3250 (2020) 1370 (2014) 1950 1370 1390 1410 1830 2120 2570 3240
2026-03-30 23:45 3.06 1530 3250 (2020) 1370 (2014) 1950 1370 1390 1410 1830 2120 2570 3240
2026-03-30 22:45 3.04 1510 3230 (2019) 1300 (2015) 1960 1320 1470 1560 1880 2030 2510 3210
2026-03-30 21:45 3.05 1520 3230 (2019) 1300 (2015) 1960 1320 1470 1560 1880 2030 2510 3210
2026-03-30 20:45 3.07 1530 3230 (2019) 1300 (2015) 1960 1320 1470 1560 1880 2030 2510 3210
2026-03-30 19:45 3.10 1560 3230 (2019) 1300 (2015) 1960 1320 1470 1560 1880 2030 2510 3210
2026-03-30 18:45 3.11 1560 3230 (2019) 1300 (2015) 1960 1320 1470 1560 1880 2030 2510 3210
2026-03-30 17:45 3.10 1560 3230 (2019) 1300 (2015) 1960 1320 1470 1560 1880 2030 2510 3210
2026-03-30 16:45 3.10 1560 3230 (2019) 1300 (2015) 1960 1320 1470 1560 1880 2030 2510 3210
2026-03-30 15:45 3.11 1560 3230 (2019) 1300 (2015) 1960 1320 1470 1560 1880 2030 2510 3210
2026-03-30 14:45 3.12 1570 3230 (2019) 1300 (2015) 1960 1320 1470 1560 1880 2030 2510 3210
2026-03-30 13:45 3.12 1570 3230 (2019) 1300 (2015) 1960 1320 1470 1560 1880 2030 2510 3210
2026-03-30 12:45 3.11 1560 3230 (2019) 1300 (2015) 1960 1320 1470 1560 1880 2030 2510 3210
2026-03-30 11:45 3.11 1560 3230 (2019) 1300 (2015) 1960 1320 1470 1560 1880 2030 2510 3210
2026-03-30 10:45 3.12 1570 3230 (2019) 1300 (2015) 1960 1320 1470 1560 1880 2030 2510 3210
2026-03-30 09:45 3.12 1570 3230 (2019) 1300 (2015) 1960 1320 1470 1560 1880 2030 2510 3210
2026-03-30 08:45 3.14 1590 3230 (2019) 1300 (2015) 1960 1320 1470 1560 1880 2030 2510 3210
2026-03-30 07:45 3.13 1580 3230 (2019) 1300 (2015) 1960 1320 1470 1560 1880 2030 2510 3210
2026-03-30 06:45 3.09 1550 3230 (2019) 1300 (2015) 1960 1320 1470 1560 1880 2030 2510 3210
2026-03-30 05:45 3.08 1540 3230 (2019) 1300 (2015) 1960 1320 1470 1560 1880 2030 2510 3210
2026-03-30 04:45 3.04 1510 3230 (2019) 1300 (2015) 1960 1320 1470 1560 1880 2030 2510 3210
2026-03-30 03:45 3.02 1500 3230 (2019) 1300 (2015) 1960 1320 1470 1560 1880 2030 2510 3210
2026-03-30 02:45 3.02 1500 3230 (2019) 1300 (2015) 1960 1320 1470 1560 1880 2030 2510 3210
2026-03-30 01:45 2.99 1450 3230 (2019) 1300 (2015) 1960 1320 1470 1560 1880 2030 2510 3210
2026-03-30 00:45 2.97 1380 3230 (2019) 1300 (2015) 1960 1320 1470 1560 1880 2030 2510 3210
2026-03-29 23:45 2.98 1410 3230 (2019) 1300 (2015) 1960 1320 1470 1560 1880 2030 2510 3210
2026-03-29 22:45 2.98 1410 3360 (2020) 1240 (2016) 1970 1250 1420 1530 1900 2060 2570 3340
2026-03-29 21:45 2.99 1450 3360 (2020) 1240 (2016) 1970 1250 1420 1530 1900 2060 2570 3340
2026-03-29 20:45 3.00 1480 3360 (2020) 1240 (2016) 1970 1250 1420 1530 1900 2060 2570 3340
2026-03-29 19:45 3.02 1500 3360 (2020) 1240 (2016) 1970 1250 1420 1530 1900 2060 2570 3340
2026-03-29 18:45 3.05 1520 3360 (2020) 1240 (2016) 1970 1250 1420 1530 1900 2060 2570 3340
2026-03-29 17:45 3.06 1530 3360 (2020) 1240 (2016) 1970 1250 1420 1530 1900 2060 2570 3340
2026-03-29 16:45 3.09 1550 3360 (2020) 1240 (2016) 1970 1250 1420 1530 1900 2060 2570 3340
2026-03-29 15:45 3.09 1550 3360 (2020) 1240 (2016) 1970 1250 1420 1530 1900 2060 2570 3340
2026-03-29 14:45 3.11 1560 3360 (2020) 1240 (2016) 1970 1250 1420 1530 1900 2060 2570 3340
2026-03-29 13:45 3.10 1560 3360 (2020) 1240 (2016) 1970 1250 1420 1530 1900 2060 2570 3340
2026-03-29 12:45 3.11 1560 3360 (2020) 1240 (2016) 1970 1250 1420 1530 1900 2060 2570 3340
2026-03-29 11:45 3.12 1570 3360 (2020) 1240 (2016) 1970 1250 1420 1530 1900 2060 2570 3340
2026-03-29 10:45 3.11 1560 3360 (2020) 1240 (2016) 1970 1250 1420 1530 1900 2060 2570 3340
2026-03-29 09:45 3.09 1550 3360 (2020) 1240 (2016) 1970 1250 1420 1530 1900 2060 2570 3340
2026-03-29 08:45 3.07 1530 3360 (2020) 1240 (2016) 1970 1250 1420 1530 1900 2060 2570 3340
2026-03-29 07:45 3.06 1530 3360 (2020) 1240 (2016) 1970 1250 1420 1530 1900 2060 2570 3340
2026-03-29 06:45 3.01 1490 3360 (2020) 1240 (2016) 1970 1250 1420 1530 1900 2060 2570 3340
2026-03-29 05:45 2.99 1450 3360 (2020) 1240 (2016) 1970 1250 1420 1530 1900 2060 2570 3340
2026-03-29 04:45 2.96 1350 3360 (2020) 1240 (2016) 1970 1250 1420 1530 1900 2060 2570 3340
2026-03-29 03:45 2.93 1260 3360 (2020) 1240 (2016) 1970 1250 1420 1530 1900 2060 2570 3340
2026-03-29 02:45 2.91 1200 3360 (2020) 1240 (2016) 1970 1250 1420 1530 1900 2060 2570 3340
2026-03-29 01:45 2.90 1170 3360 (2020) 1240 (2016) 1970 1250 1420 1530 1900 2060 2570 3340
2026-03-29 00:45 2.84 1010 3360 (2020) 1240 (2016) 1970 1250 1420 1530 1900 2060 2570 3340
2026-03-28 23:45 2.81 939 3360 (2020) 1240 (2016) 1970 1250 1420 1530 1900 2060 2570 3340
2026-03-28 22:45 2.82 962 3760 (2019) 1290 (2016) 2010 1300 1350 1430 1850 2210 2560 3550
2026-03-28 21:45 2.80 916 3760 (2019) 1290 (2016) 2010 1300 1350 1430 1850 2210 2560 3550
2026-03-28 20:45 2.83 986 3760 (2019) 1290 (2016) 2010 1300 1350 1430 1850 2210 2560 3550
2026-03-28 19:45 2.86 1060 3760 (2019) 1290 (2016) 2010 1300 1350 1430 1850 2210 2560 3550
2026-03-28 18:45 2.87 1090 3760 (2019) 1290 (2016) 2010 1300 1350 1430 1850 2210 2560 3550
2026-03-28 17:45 2.88 1110 3760 (2019) 1290 (2016) 2010 1300 1350 1430 1850 2210 2560 3550
2026-03-28 16:45 2.94 1290 3760 (2019) 1290 (2016) 2010 1300 1350 1430 1850 2210 2560 3550
2026-03-28 15:45 2.94 1290 3760 (2019) 1290 (2016) 2010 1300 1350 1430 1850 2210 2560 3550
2026-03-28 14:45 2.99 1450 3760 (2019) 1290 (2016) 2010 1300 1350 1430 1850 2210 2560 3550
2026-03-28 13:45 3.02 1500 3760 (2019) 1290 (2016) 2010 1300 1350 1430 1850 2210 2560 3550
2026-03-28 12:45 3.02 1500 3760 (2019) 1290 (2016) 2010 1300 1350 1430 1850 2210 2560 3550
2026-03-28 11:45 3.03 1500 3760 (2019) 1290 (2016) 2010 1300 1350 1430 1850 2210 2560 3550
2026-03-28 10:45 3.06 1530 3760 (2019) 1290 (2016) 2010 1300 1350 1430 1850 2210 2560 3550
2026-03-28 09:45 3.04 1510 3760 (2019) 1290 (2016) 2010 1300 1350 1430 1850 2210 2560 3550
2026-03-28 08:45 3.07 1530 3760 (2019) 1290 (2016) 2010 1300 1350 1430 1850 2210 2560 3550
2026-03-28 07:45 3.04 1510 3760 (2019) 1290 (2016) 2010 1300 1350 1430 1850 2210 2560 3550
2026-03-28 06:45 3.03 1500 3760 (2019) 1290 (2016) 2010 1300 1350 1430 1850 2210 2560 3550
2026-03-28 05:45 2.96 1350 3760 (2019) 1290 (2016) 2010 1300 1350 1430 1850 2210 2560 3550
2026-03-28 04:45 2.87 1090 3760 (2019) 1290 (2016) 2010 1300 1350 1430 1850 2210 2560 3550
2026-03-28 03:45 2.79 894 3760 (2019) 1290 (2016) 2010 1300 1350 1430 1850 2210 2560 3550
2026-03-28 02:45 2.78 872 3760 (2019) 1290 (2016) 2010 1300 1350 1430 1850 2210 2560 3550
2026-03-28 01:45 2.77 850 3760 (2019) 1290 (2016) 2010 1300 1350 1430 1850 2210 2560 3550
2026-03-28 00:45 2.77 850 3760 (2019) 1290 (2016) 2010 1300 1350 1430 1850 2210 2560 3550
2026-03-27 23:45 2.78 872 3760 (2019) 1290 (2016) 2010 1300 1350 1430 1850 2210 2560 3550
2026-03-27 22:45 2.77 850 4660 (2019) 1300 (2016) 2090 1330 1460 1530 1780 2300 2540 4110
2026-03-27 21:45 2.85 1040 4660 (2019) 1300 (2016) 2090 1330 1460 1530 1780 2300 2540 4110
2026-03-27 20:45 2.88 1110 4660 (2019) 1300 (2016) 2090 1330 1460 1530 1780 2300 2540 4110
2026-03-27 19:45 2.91 1200 4660 (2019) 1300 (2016) 2090 1330 1460 1530 1780 2300 2540 4110
2026-03-27 18:45 2.95 1320 4660 (2019) 1300 (2016) 2090 1330 1460 1530 1780 2300 2540 4110
2026-03-27 17:45 2.93 1260 4660 (2019) 1300 (2016) 2090 1330 1460 1530 1780 2300 2540 4110
2026-03-27 16:45 3.00 1480 4660 (2019) 1300 (2016) 2090 1330 1460 1530 1780 2300 2540 4110
2026-03-27 15:45 3.02 1500 4660 (2019) 1300 (2016) 2090 1330 1460 1530 1780 2300 2540 4110
2026-03-27 14:45 3.01 1490 4660 (2019) 1300 (2016) 2090 1330 1460 1530 1780 2300 2540 4110
2026-03-27 13:45 2.98 1410 4660 (2019) 1300 (2016) 2090 1330 1460 1530 1780 2300 2540 4110
2026-03-27 12:45 3.00 1480 4660 (2019) 1300 (2016) 2090 1330 1460 1530 1780 2300 2540 4110
2026-03-27 11:45 2.95 1320 4660 (2019) 1300 (2016) 2090 1330 1460 1530 1780 2300 2540 4110
2026-03-27 10:45 3.01 1490 4660 (2019) 1300 (2016) 2090 1330 1460 1530 1780 2300 2540 4110
2026-03-27 09:45 2.96 1350 4660 (2019) 1300 (2016) 2090 1330 1460 1530 1780 2300 2540 4110
2026-03-27 08:45 2.95 1320 4660 (2019) 1300 (2016) 2090 1330 1460 1530 1780 2300 2540 4110
2026-03-27 07:45 3.02 1500 4660 (2019) 1300 (2016) 2090 1330 1460 1530 1780 2300 2540 4110
2026-03-27 06:45 3.02 1500 4660 (2019) 1300 (2016) 2090 1330 1460 1530 1780 2300 2540 4110
2026-03-27 05:45 2.96 1350 4660 (2019) 1300 (2016) 2090 1330 1460 1530 1780 2300 2540 4110
2026-03-27 04:45 2.96 1350 4660 (2019) 1300 (2016) 2090 1330 1460 1530 1780 2300 2540 4110
2026-03-27 03:45 2.99 1450 4660 (2019) 1300 (2016) 2090 1330 1460 1530 1780 2300 2540 4110
2026-03-27 02:45 2.98 1410 4660 (2019) 1300 (2016) 2090 1330 1460 1530 1780 2300 2540 4110
2026-03-27 01:45 2.97 1380 4660 (2019) 1300 (2016) 2090 1330 1460 1530 1780 2300 2540 4110
2026-03-27 00:45 2.99 1450 4660 (2019) 1300 (2016) 2090 1330 1460 1530 1780 2300 2540 4110
2026-03-26 23:45 3.01 1490 4660 (2019) 1300 (2016) 2090 1330 1460 1530 1780 2300 2540 4110
2026-03-26 22:45 3.01 1490 6130 (2019) 1270 (2014) 2260 1310 1500 1610 1820 2300 2570 5170
2026-03-26 21:45 3.00 1480 6130 (2019) 1270 (2014) 2260 1310 1500 1610 1820 2300 2570 5170
2026-03-26 20:45 2.99 1450 6130 (2019) 1270 (2014) 2260 1310 1500 1610 1820 2300 2570 5170
2026-03-26 19:45 3.04 1510 6130 (2019) 1270 (2014) 2260 1310 1500 1610 1820 2300 2570 5170
2026-03-26 18:45 3.04 1510 6130 (2019) 1270 (2014) 2260 1310 1500 1610 1820 2300 2570 5170
2026-03-26 17:45 3.05 1520 6130 (2019) 1270 (2014) 2260 1310 1500 1610 1820 2300 2570 5170
2026-03-26 16:45 3.09 1550 6130 (2019) 1270 (2014) 2260 1310 1500 1610 1820 2300 2570 5170
2026-03-26 15:45 3.10 1560 6130 (2019) 1270 (2014) 2260 1310 1500 1610 1820 2300 2570 5170
2026-03-26 14:45 3.08 1540 6130 (2019) 1270 (2014) 2260 1310 1500 1610 1820 2300 2570 5170
2026-03-26 13:45 3.06 1530 6130 (2019) 1270 (2014) 2260 1310 1500 1610 1820 2300 2570 5170
2026-03-26 12:45 3.12 1570 6130 (2019) 1270 (2014) 2260 1310 1500 1610 1820 2300 2570 5170
2026-03-26 11:45 3.11 1560 6130 (2019) 1270 (2014) 2260 1310 1500 1610 1820 2300 2570 5170
2026-03-26 10:45 3.09 1550 6130 (2019) 1270 (2014) 2260 1310 1500 1610 1820 2300 2570 5170
2026-03-26 09:45 3.06 1530 6130 (2019) 1270 (2014) 2260 1310 1500 1610 1820 2300 2570 5170
2026-03-26 08:45 3.01 1490 6130 (2019) 1270 (2014) 2260 1310 1500 1610 1820 2300 2570 5170
2026-03-26 07:45 3.08 1540 6130 (2019) 1270 (2014) 2260 1310 1500 1610 1820 2300 2570 5170
2026-03-26 06:45 3.05 1520 6130 (2019) 1270 (2014) 2260 1310 1500 1610 1820 2300 2570 5170
2026-03-26 05:45 3.09 1550 6130 (2019) 1270 (2014) 2260 1310 1500 1610 1820 2300 2570 5170
2026-03-26 04:45 3.01 1490 6130 (2019) 1270 (2014) 2260 1310 1500 1610 1820 2300 2570 5170
2026-03-26 03:45 3.06 1530 6130 (2019) 1270 (2014) 2260 1310 1500 1610 1820 2300 2570 5170
2026-03-26 02:45 3.03 1500 6130 (2019) 1270 (2014) 2260 1310 1500 1610 1820 2300 2570 5170
2026-03-26 01:45 3.07 1530 6130 (2019) 1270 (2014) 2260 1310 1500 1610 1820 2300 2570 5170
2026-03-26 00:45 3.01 1490 6130 (2019) 1270 (2014) 2260 1310 1500 1610 1820 2300 2570 5170
2026-03-25 23:45 3.00 1480 6130 (2019) 1270 (2014) 2260 1310 1500 1610 1820 2300 2570 5170
2026-03-25 22:45 3.03 1500 6010 (2019) 1360 (2014) 2320 1410 1540 1540 1950 2390 2670 5130
2026-03-25 21:45 3.01 1490 6010 (2019) 1360 (2014) 2320 1410 1540 1540 1950 2390 2670 5130
2026-03-25 20:45 3.00 1480 6010 (2019) 1360 (2014) 2320 1410 1540 1540 1950 2390 2670 5130
2026-03-25 19:45 2.99 1450 6010 (2019) 1360 (2014) 2320 1410 1540 1540 1950 2390 2670 5130
2026-03-25 18:45 3.02 1500 6010 (2019) 1360 (2014) 2320 1410 1540 1540 1950 2390 2670 5130
2026-03-25 17:45 3.08 1540 6010 (2019) 1360 (2014) 2320 1410 1540 1540 1950 2390 2670 5130
2026-03-25 16:45 3.12 1570 6010 (2019) 1360 (2014) 2320 1410 1540 1540 1950 2390 2670 5130
2026-03-25 15:45 3.13 1580 6010 (2019) 1360 (2014) 2320 1410 1540 1540 1950 2390 2670 5130
2026-03-25 14:45 3.20 1630 6010 (2019) 1360 (2014) 2320 1410 1540 1540 1950 2390 2670 5130
2026-03-25 13:45 3.21 1640 6010 (2019) 1360 (2014) 2320 1410 1540 1540 1950 2390 2670 5130
2026-03-25 12:45 3.17 1610 6010 (2019) 1360 (2014) 2320 1410 1540 1540 1950 2390 2670 5130
2026-03-25 11:45 3.22 1650 6010 (2019) 1360 (2014) 2320 1410 1540 1540 1950 2390 2670 5130
2026-03-25 10:45 3.15 1600 6010 (2019) 1360 (2014) 2320 1410 1540 1540 1950 2390 2670 5130
2026-03-25 09:45 3.20 1630 6010 (2019) 1360 (2014) 2320 1410 1540 1540 1950 2390 2670 5130
2026-03-25 08:45 3.13 1580 6010 (2019) 1360 (2014) 2320 1410 1540 1540 1950 2390 2670 5130
2026-03-25 07:45 3.14 1590 6010 (2019) 1360 (2014) 2320 1410 1540 1540 1950 2390 2670 5130
2026-03-25 06:45 3.12 1570 6010 (2019) 1360 (2014) 2320 1410 1540 1540 1950 2390 2670 5130
2026-03-25 05:45 3.09 1550 6010 (2019) 1360 (2014) 2320 1410 1540 1540 1950 2390 2670 5130
2026-03-25 04:45 2.99 1450 6010 (2019) 1360 (2014) 2320 1410 1540 1540 1950 2390 2670 5130
2026-03-25 03:45 3.00 1480 6010 (2019) 1360 (2014) 2320 1410 1540 1540 1950 2390 2670 5130
2026-03-25 02:45 2.99 1450 6010 (2019) 1360 (2014) 2320 1410 1540 1540 1950 2390 2670 5130
2026-03-25 01:45 2.94 1290 6010 (2019) 1360 (2014) 2320 1410 1540 1540 1950 2390 2670 5130
2026-03-25 00:45 2.99 1450 6010 (2019) 1360 (2014) 2320 1410 1540 1540 1950 2390 2670 5130
2026-03-24 23:45 3.02 1500 6010 (2019) 1360 (2014) 2320 1410 1540 1540 1950 2390 2670 5130
2026-03-24 22:45 3.03 1500 6290 (2019) 1400 (2015) 2290 1420 1490 1520 1880 2450 2700 5290
2026-03-24 21:45 3.01 1490 6290 (2019) 1400 (2015) 2290 1420 1490 1520 1880 2450 2700 5290
2026-03-24 20:45 2.97 1380 6290 (2019) 1400 (2015) 2290 1420 1490 1520 1880 2450 2700 5290
2026-03-24 19:45 3.06 1530 6290 (2019) 1400 (2015) 2290 1420 1490 1520 1880 2450 2700 5290
2026-03-24 18:45 3.06 1530 6290 (2019) 1400 (2015) 2290 1420 1490 1520 1880 2450 2700 5290
2026-03-24 17:45 3.06 1530 6290 (2019) 1400 (2015) 2290 1420 1490 1520 1880 2450 2700 5290
2026-03-24 16:45 3.02 1500 6290 (2019) 1400 (2015) 2290 1420 1490 1520 1880 2450 2700 5290
2026-03-24 15:45 3.01 1490 6290 (2019) 1400 (2015) 2290 1420 1490 1520 1880 2450 2700 5290
2026-03-24 14:45 3.04 1510 6290 (2019) 1400 (2015) 2290 1420 1490 1520 1880 2450 2700 5290
2026-03-24 13:45 3.04 1510 6290 (2019) 1400 (2015) 2290 1420 1490 1520 1880 2450 2700 5290
2026-03-24 12:45 3.02 1500 6290 (2019) 1400 (2015) 2290 1420 1490 1520 1880 2450 2700 5290
2026-03-24 11:45 3.00 1480 6290 (2019) 1400 (2015) 2290 1420 1490 1520 1880 2450 2700 5290
2026-03-24 10:45 3.01 1490 6290 (2019) 1400 (2015) 2290 1420 1490 1520 1880 2450 2700 5290
2026-03-24 09:45 3.04 1510 6290 (2019) 1400 (2015) 2290 1420 1490 1520 1880 2450 2700 5290
2026-03-24 08:45 3.02 1500 6290 (2019) 1400 (2015) 2290 1420 1490 1520 1880 2450 2700 5290
2026-03-24 07:45 3.05 1520 6290 (2019) 1400 (2015) 2290 1420 1490 1520 1880 2450 2700 5290
2026-03-24 06:45 2.98 1410 6290 (2019) 1400 (2015) 2290 1420 1490 1520 1880 2450 2700 5290
2026-03-24 05:45 3.02 1500 6290 (2019) 1400 (2015) 2290 1420 1490 1520 1880 2450 2700 5290
2026-03-24 04:45 2.98 1410 6290 (2019) 1400 (2015) 2290 1420 1490 1520 1880 2450 2700 5290
2026-03-24 03:45 3.04 1510 6290 (2019) 1400 (2015) 2290 1420 1490 1520 1880 2450 2700 5290
2026-03-24 02:45 3.01 1490 6290 (2019) 1400 (2015) 2290 1420 1490 1520 1880 2450 2700 5290
2026-03-24 01:45 3.03 1500 6290 (2019) 1400 (2015) 2290 1420 1490 1520 1880 2450 2700 5290
2026-03-24 00:45 2.95 1320 6290 (2019) 1400 (2015) 2290 1420 1490 1520 1880 2450 2700 5290
2026-03-23 23:45 2.92 1230 6290 (2019) 1400 (2015) 2290 1420 1490 1520 1880 2450 2700 5290
2026-03-23 22:45 3.15 1600 5710 (2019) 1220 (2015) 2220 1300 1520 1540 1870 2580 2690 4800
2026-03-23 21:45 2.95 1320 5710 (2019) 1220 (2015) 2220 1300 1520 1540 1870 2580 2690 4800
2026-03-23 20:45 2.96 1350 5710 (2019) 1220 (2015) 2220 1300 1520 1540 1870 2580 2690 4800
2026-03-23 19:45 3.02 1500 5710 (2019) 1220 (2015) 2220 1300 1520 1540 1870 2580 2690 4800
2026-03-23 18:45 3.02 1500 5710 (2019) 1220 (2015) 2220 1300 1520 1540 1870 2580 2690 4800
2026-03-23 17:45 2.99 1450 5710 (2019) 1220 (2015) 2220 1300 1520 1540 1870 2580 2690 4800
2026-03-23 16:45 3.13 1580 5710 (2019) 1220 (2015) 2220 1300 1520 1540 1870 2580 2690 4800
2026-03-23 15:45 3.04 1510 5710 (2019) 1220 (2015) 2220 1300 1520 1540 1870 2580 2690 4800
2026-03-23 14:45 3.04 1510 5710 (2019) 1220 (2015) 2220 1300 1520 1540 1870 2580 2690 4800
2026-03-23 13:45 3.01 1490 5710 (2019) 1220 (2015) 2220 1300 1520 1540 1870 2580 2690 4800
2026-03-23 12:45 3.14 1590 5710 (2019) 1220 (2015) 2220 1300 1520 1540 1870 2580 2690 4800
2026-03-23 11:45 2.98 1410 5710 (2019) 1220 (2015) 2220 1300 1520 1540 1870 2580 2690 4800
2026-03-23 10:45 2.93 1260 5710 (2019) 1220 (2015) 2220 1300 1520 1540 1870 2580 2690 4800
2026-03-23 09:45 2.93 1260 5710 (2019) 1220 (2015) 2220 1300 1520 1540 1870 2580 2690 4800
2026-03-23 08:45 2.98 1410 5710 (2019) 1220 (2015) 2220 1300 1520 1540 1870 2580 2690 4800
2026-03-23 07:45 2.99 1450 5710 (2019) 1220 (2015) 2220 1300 1520 1540 1870 2580 2690 4800
2026-03-23 06:45 3.01 1490 5710 (2019) 1220 (2015) 2220 1300 1520 1540 1870 2580 2690 4800
2026-03-23 05:45 3.02 1500 5710 (2019) 1220 (2015) 2220 1300 1520 1540 1870 2580 2690 4800
2026-03-23 04:45 3.02 1500 5710 (2019) 1220 (2015) 2220 1300 1520 1540 1870 2580 2690 4800
2026-03-23 03:45 3.01 1490 5710 (2019) 1220 (2015) 2220 1300 1520 1540 1870 2580 2690 4800
2026-03-23 02:45 2.99 1450 5710 (2019) 1220 (2015) 2220 1300 1520 1540 1870 2580 2690 4800
2026-03-23 01:45 2.98 1410 5710 (2019) 1220 (2015) 2220 1300 1520 1540 1870 2580 2690 4800
2026-03-23 00:45 2.98 1410 5710 (2019) 1220 (2015) 2220 1300 1520 1540 1870 2580 2690 4800
2026-03-22 23:45 2.95 1320 5710 (2019) 1220 (2015) 2220 1300 1520 1540 1870 2580 2690 4800
2026-03-22 22:45 2.97 1380 4860 (2019) 1320 (2016) 2150 1360 1500 1530 1940 2570 2700 4220
2026-03-22 21:45 3.03 1500 4860 (2019) 1320 (2016) 2150 1360 1500 1530 1940 2570 2700 4220
2026-03-22 20:45 3.06 1530 4860 (2019) 1320 (2016) 2150 1360 1500 1530 1940 2570 2700 4220
2026-03-22 19:45 3.07 1530 4860 (2019) 1320 (2016) 2150 1360 1500 1530 1940 2570 2700 4220
2026-03-22 18:45 3.05 1520 4860 (2019) 1320 (2016) 2150 1360 1500 1530 1940 2570 2700 4220
2026-03-22 17:45 3.04 1510 4860 (2019) 1320 (2016) 2150 1360 1500 1530 1940 2570 2700 4220
2026-03-22 16:45 3.05 1520 4860 (2019) 1320 (2016) 2150 1360 1500 1530 1940 2570 2700 4220
2026-03-22 15:45 3.04 1510 4860 (2019) 1320 (2016) 2150 1360 1500 1530 1940 2570 2700 4220
2026-03-22 14:45 3.04 1510 4860 (2019) 1320 (2016) 2150 1360 1500 1530 1940 2570 2700 4220
2026-03-22 13:45 3.04 1510 4860 (2019) 1320 (2016) 2150 1360 1500 1530 1940 2570 2700 4220
2026-03-22 12:45 2.98 1410 4860 (2019) 1320 (2016) 2150 1360 1500 1530 1940 2570 2700 4220
2026-03-22 11:45 3.12 1570 4860 (2019) 1320 (2016) 2150 1360 1500 1530 1940 2570 2700 4220
2026-03-22 10:45 3.00 1480 4860 (2019) 1320 (2016) 2150 1360 1500 1530 1940 2570 2700 4220
2026-03-22 09:45 2.93 1260 4860 (2019) 1320 (2016) 2150 1360 1500 1530 1940 2570 2700 4220
2026-03-22 08:45 3.01 1490 4860 (2019) 1320 (2016) 2150 1360 1500 1530 1940 2570 2700 4220
2026-03-22 07:45 2.98 1410 4860 (2019) 1320 (2016) 2150 1360 1500 1530 1940 2570 2700 4220
2026-03-22 06:45 2.98 1410 4860 (2019) 1320 (2016) 2150 1360 1500 1530 1940 2570 2700 4220
2026-03-22 05:45 2.96 1350 4860 (2019) 1320 (2016) 2150 1360 1500 1530 1940 2570 2700 4220
2026-03-22 04:45 3.04 1510 4860 (2019) 1320 (2016) 2150 1360 1500 1530 1940 2570 2700 4220
2026-03-22 03:45 3.05 1520 4860 (2019) 1320 (2016) 2150 1360 1500 1530 1940 2570 2700 4220
2026-03-22 02:45 3.05 1520 4860 (2019) 1320 (2016) 2150 1360 1500 1530 1940 2570 2700 4220
2026-03-22 01:45 3.01 1490 4860 (2019) 1320 (2016) 2150 1360 1500 1530 1940 2570 2700 4220
2026-03-22 00:45 3.11 1560 4860 (2019) 1320 (2016) 2150 1360 1500 1530 1940 2570 2700 4220
2026-03-21 23:45 3.06 1530 4860 (2019) 1320 (2016) 2150 1360 1500 1530 1940 2570 2700 4220
2026-03-21 22:45 3.08 1540 4180 (2019) 1200 (2016) 2150 1280 1580 1670 2020 2540 2690 3750
2026-03-21 21:45 3.12 1570 4180 (2019) 1200 (2016) 2150 1280 1580 1670 2020 2540 2690 3750
2026-03-21 20:45 3.16 1600 4180 (2019) 1200 (2016) 2150 1280 1580 1670 2020 2540 2690 3750
2026-03-21 19:45 3.13 1580 4180 (2019) 1200 (2016) 2150 1280 1580 1670 2020 2540 2690 3750
2026-03-21 18:45 3.18 1620 4180 (2019) 1200 (2016) 2150 1280 1580 1670 2020 2540 2690 3750
2026-03-21 17:45 3.15 1600 4180 (2019) 1200 (2016) 2150 1280 1580 1670 2020 2540 2690 3750
2026-03-21 16:45 3.14 1590 4180 (2019) 1200 (2016) 2150 1280 1580 1670 2020 2540 2690 3750
2026-03-21 15:45 3.07 1530 4180 (2019) 1200 (2016) 2150 1280 1580 1670 2020 2540 2690 3750
2026-03-21 14:45 3.08 1540 4180 (2019) 1200 (2016) 2150 1280 1580 1670 2020 2540 2690 3750
2026-03-21 13:45 3.12 1570 4180 (2019) 1200 (2016) 2150 1280 1580 1670 2020 2540 2690 3750
2026-03-21 12:45 3.11 1560 4180 (2019) 1200 (2016) 2150 1280 1580 1670 2020 2540 2690 3750
2026-03-21 11:45 3.11 1560 4180 (2019) 1200 (2016) 2150 1280 1580 1670 2020 2540 2690 3750
2026-03-21 10:45 3.10 1560 4180 (2019) 1200 (2016) 2150 1280 1580 1670 2020 2540 2690 3750
2026-03-21 09:45 3.17 1610 4180 (2019) 1200 (2016) 2150 1280 1580 1670 2020 2540 2690 3750
2026-03-21 08:45 3.19 1630 4180 (2019) 1200 (2016) 2150 1280 1580 1670 2020 2540 2690 3750
2026-03-21 07:45 3.22 1650 4180 (2019) 1200 (2016) 2150 1280 1580 1670 2020 2540 2690 3750
2026-03-21 06:45 3.16 1600 4180 (2019) 1200 (2016) 2150 1280 1580 1670 2020 2540 2690 3750
2026-03-21 05:45 3.18 1620 4180 (2019) 1200 (2016) 2150 1280 1580 1670 2020 2540 2690 3750
2026-03-21 04:45 3.15 1600 4180 (2019) 1200 (2016) 2150 1280 1580 1670 2020 2540 2690 3750
2026-03-21 03:45 3.08 1540 4180 (2019) 1200 (2016) 2150 1280 1580 1670 2020 2540 2690 3750
2026-03-21 02:45 3.11 1560 4180 (2019) 1200 (2016) 2150 1280 1580 1670 2020 2540 2690 3750
2026-03-21 01:45 3.11 1560 4180 (2019) 1200 (2016) 2150 1280 1580 1670 2020 2540 2690 3750
2026-03-21 00:45 3.10 1560 4180 (2019) 1200 (2016) 2150 1280 1580 1670 2020 2540 2690 3750
2026-03-20 23:45 3.14 1590 4180 (2019) 1200 (2016) 2150 1280 1580 1670 2020 2540 2690 3750
2026-03-20 22:45 3.12 1570 3560 (2019) 1180 (2016) 2090 1190 1510 1700 2030 2450 2670 3350
2026-03-20 21:45 3.10 1560 3560 (2019) 1180 (2016) 2090 1190 1510 1700 2030 2450 2670 3350
2026-03-20 20:45 3.13 1580 3560 (2019) 1180 (2016) 2090 1190 1510 1700 2030 2450 2670 3350
2026-03-20 19:45 3.15 1600 3560 (2019) 1180 (2016) 2090 1190 1510 1700 2030 2450 2670 3350
2026-03-20 18:45 3.13 1580 3560 (2019) 1180 (2016) 2090 1190 1510 1700 2030 2450 2670 3350
2026-03-20 17:45 3.17 1610 3560 (2019) 1180 (2016) 2090 1190 1510 1700 2030 2450 2670 3350
2026-03-20 16:45 3.19 1630 3560 (2019) 1180 (2016) 2090 1190 1510 1700 2030 2450 2670 3350
2026-03-20 15:45 3.22 1650 3560 (2019) 1180 (2016) 2090 1190 1510 1700 2030 2450 2670 3350
2026-03-20 14:45 3.19 1630 3560 (2019) 1180 (2016) 2090 1190 1510 1700 2030 2450 2670 3350
2026-03-20 13:45 3.17 1610 3560 (2019) 1180 (2016) 2090 1190 1510 1700 2030 2450 2670 3350
2026-03-20 12:45 3.21 1640 3560 (2019) 1180 (2016) 2090 1190 1510 1700 2030 2450 2670 3350
2026-03-20 11:45 3.16 1600 3560 (2019) 1180 (2016) 2090 1190 1510 1700 2030 2450 2670 3350
2026-03-20 10:45 3.17 1610 3560 (2019) 1180 (2016) 2090 1190 1510 1700 2030 2450 2670 3350
2026-03-20 09:45 3.19 1630 3560 (2019) 1180 (2016) 2090 1190 1510 1700 2030 2450 2670 3350
2026-03-20 08:45 3.23 1660 3560 (2019) 1180 (2016) 2090 1190 1510 1700 2030 2450 2670 3350
2026-03-20 07:45 3.17 1610 3560 (2019) 1180 (2016) 2090 1190 1510 1700 2030 2450 2670 3350
2026-03-20 06:45 3.19 1630 3560 (2019) 1180 (2016) 2090 1190 1510 1700 2030 2450 2670 3350
2026-03-20 05:45 3.20 1630 3560 (2019) 1180 (2016) 2090 1190 1510 1700 2030 2450 2670 3350
2026-03-20 04:45 3.19 1630 3560 (2019) 1180 (2016) 2090 1190 1510 1700 2030 2450 2670 3350
2026-03-20 03:45 3.10 1560 3560 (2019) 1180 (2016) 2090 1190 1510 1700 2030 2450 2670 3350
2026-03-20 02:45 3.12 1570 3560 (2019) 1180 (2016) 2090 1190 1510 1700 2030 2450 2670 3350
2026-03-20 01:45 3.14 1590 3560 (2019) 1180 (2016) 2090 1190 1510 1700 2030 2450 2670 3350
2026-03-20 00:45 3.15 1600 3560 (2019) 1180 (2016) 2090 1190 1510 1700 2030 2450 2670 3350
2026-03-19 23:45 3.13 1580 3560 (2019) 1180 (2016) 2090 1190 1510 1700 2030 2450 2670 3350
2026-03-19 22:45 3.14 1590 3610 (2019) 1130 (2016) 2090 1140 1480 1700 2030 2510 2720 3390
2026-03-19 21:45 3.15 1600 3610 (2019) 1130 (2016) 2090 1140 1480 1700 2030 2510 2720 3390
2026-03-19 20:45 3.14 1590 3610 (2019) 1130 (2016) 2090 1140 1480 1700 2030 2510 2720 3390
2026-03-19 19:45 3.16 1600 3610 (2019) 1130 (2016) 2090 1140 1480 1700 2030 2510 2720 3390
2026-03-19 18:45 3.17 1610 3610 (2019) 1130 (2016) 2090 1140 1480 1700 2030 2510 2720 3390
2026-03-19 17:45 3.17 1610 3610 (2019) 1130 (2016) 2090 1140 1480 1700 2030 2510 2720 3390
2026-03-19 16:45 3.22 1650 3610 (2019) 1130 (2016) 2090 1140 1480 1700 2030 2510 2720 3390
2026-03-19 15:45 3.21 1640 3610 (2019) 1130 (2016) 2090 1140 1480 1700 2030 2510 2720 3390
2026-03-19 14:45 3.19 1630 3610 (2019) 1130 (2016) 2090 1140 1480 1700 2030 2510 2720 3390
2026-03-19 13:45 3.15 1600 3610 (2019) 1130 (2016) 2090 1140 1480 1700 2030 2510 2720 3390
2026-03-19 12:45 3.17 1610 3610 (2019) 1130 (2016) 2090 1140 1480 1700 2030 2510 2720 3390
2026-03-19 11:45 3.11 1560 3610 (2019) 1130 (2016) 2090 1140 1480 1700 2030 2510 2720 3390
2026-03-19 10:45 3.11 1560 3610 (2019) 1130 (2016) 2090 1140 1480 1700 2030 2510 2720 3390
2026-03-19 09:45 3.14 1590 3610 (2019) 1130 (2016) 2090 1140 1480 1700 2030 2510 2720 3390
2026-03-19 08:45 3.13 1580 3610 (2019) 1130 (2016) 2090 1140 1480 1700 2030 2510 2720 3390
2026-03-19 07:45 3.10 1560 3610 (2019) 1130 (2016) 2090 1140 1480 1700 2030 2510 2720 3390
2026-03-19 06:45 3.14 1590 3610 (2019) 1130 (2016) 2090 1140 1480 1700 2030 2510 2720 3390
2026-03-19 05:45 3.10 1560 3610 (2019) 1130 (2016) 2090 1140 1480 1700 2030 2510 2720 3390
2026-03-19 04:45 3.09 1550 3610 (2019) 1130 (2016) 2090 1140 1480 1700 2030 2510 2720 3390
2026-03-19 03:45 3.09 1550 3610 (2019) 1130 (2016) 2090 1140 1480 1700 2030 2510 2720 3390
2026-03-19 02:45 3.11 1560 3610 (2019) 1130 (2016) 2090 1140 1480 1700 2030 2510 2720 3390
2026-03-19 01:45 3.04 1510 3610 (2019) 1130 (2016) 2090 1140 1480 1700 2030 2510 2720 3390
2026-03-19 00:45 3.05 1520 3610 (2019) 1130 (2016) 2090 1140 1480 1700 2030 2510 2720 3390
2026-03-18 23:45 3.05 1520 3610 (2019) 1130 (2016) 2090 1140 1480 1700 2030 2510 2720 3390
2026-03-18 22:45 3.05 1520 3300 (2019) 1290 (2016) 2150 1310 1550 1700 2170 2410 2640 3200
2026-03-18 21:45 3.02 1500 3300 (2019) 1290 (2016) 2150 1310 1550 1700 2170 2410 2640 3200
2026-03-18 20:45 2.97 1380 3300 (2019) 1290 (2016) 2150 1310 1550 1700 2170 2410 2640 3200
2026-03-18 19:45 3.00 1480 3300 (2019) 1290 (2016) 2150 1310 1550 1700 2170 2410 2640 3200
2026-03-18 18:45 3.02 1500 3300 (2019) 1290 (2016) 2150 1310 1550 1700 2170 2410 2640 3200
2026-03-18 17:45 3.07 1530 3300 (2019) 1290 (2016) 2150 1310 1550 1700 2170 2410 2640 3200
2026-03-18 16:45 3.05 1520 3300 (2019) 1290 (2016) 2150 1310 1550 1700 2170 2410 2640 3200
2026-03-18 15:45 2.98 1410 3300 (2019) 1290 (2016) 2150 1310 1550 1700 2170 2410 2640 3200
2026-03-18 14:45 3.02 1500 3300 (2019) 1290 (2016) 2150 1310 1550 1700 2170 2410 2640 3200
2026-03-18 13:45 2.98 1410 3300 (2019) 1290 (2016) 2150 1310 1550 1700 2170 2410 2640 3200
2026-03-18 12:45 3.03 1500 3300 (2019) 1290 (2016) 2150 1310 1550 1700 2170 2410 2640 3200
2026-03-18 11:45 2.99 1450 3300 (2019) 1290 (2016) 2150 1310 1550 1700 2170 2410 2640 3200
2026-03-18 10:45 2.98 1410 3300 (2019) 1290 (2016) 2150 1310 1550 1700 2170 2410 2640 3200
2026-03-18 09:45 2.95 1320 3300 (2019) 1290 (2016) 2150 1310 1550 1700 2170 2410 2640 3200
2026-03-18 08:45 2.94 1290 3300 (2019) 1290 (2016) 2150 1310 1550 1700 2170 2410 2640 3200
2026-03-18 07:45 2.94 1290 3300 (2019) 1290 (2016) 2150 1310 1550 1700 2170 2410 2640 3200
2026-03-18 06:45 2.90 1170 3300 (2019) 1290 (2016) 2150 1310 1550 1700 2170 2410 2640 3200
2026-03-18 05:45 2.90 1170 3300 (2019) 1290 (2016) 2150 1310 1550 1700 2170 2410 2640 3200
2026-03-18 04:45 2.92 1230 3300 (2019) 1290 (2016) 2150 1310 1550 1700 2170 2410 2640 3200
2026-03-18 03:45 2.87 1090 3300 (2019) 1290 (2016) 2150 1310 1550 1700 2170 2410 2640 3200
2026-03-18 02:45 2.90 1170 3300 (2019) 1290 (2016) 2150 1310 1550 1700 2170 2410 2640 3200
2026-03-18 01:45 2.92 1230 3300 (2019) 1290 (2016) 2150 1310 1550 1700 2170 2410 2640 3200
2026-03-18 00:45 2.90 1170 3300 (2019) 1290 (2016) 2150 1310 1550 1700 2170 2410 2640 3200
2026-03-17 23:45 2.94 1290 3300 (2019) 1290 (2016) 2150 1310 1550 1700 2170 2410 2640 3200
2026-03-17 22:45 2.96 1350 3170 (2019) 1360 (2016) 2100 1430 1660 1710 1950 2430 2690 3110
2026-03-17 21:45 2.98 1410 3170 (2019) 1360 (2016) 2100 1430 1660 1710 1950 2430 2690 3110
2026-03-17 20:45 2.97 1380 3170 (2019) 1360 (2016) 2100 1430 1660 1710 1950 2430 2690 3110
2026-03-17 19:45 2.99 1450 3170 (2019) 1360 (2016) 2100 1430 1660 1710 1950 2430 2690 3110
2026-03-17 18:45 2.91 1200 3170 (2019) 1360 (2016) 2100 1430 1660 1710 1950 2430 2690 3110
2026-03-17 17:45 3.04 1510 3170 (2019) 1360 (2016) 2100 1430 1660 1710 1950 2430 2690 3110
2026-03-17 16:45 2.93 1260 3170 (2019) 1360 (2016) 2100 1430 1660 1710 1950 2430 2690 3110
2026-03-17 15:45 2.93 1260 3170 (2019) 1360 (2016) 2100 1430 1660 1710 1950 2430 2690 3110
2026-03-17 14:45 2.85 1040 3170 (2019) 1360 (2016) 2100 1430 1660 1710 1950 2430 2690 3110
2026-03-17 13:45 2.93 1260 3170 (2019) 1360 (2016) 2100 1430 1660 1710 1950 2430 2690 3110
2026-03-17 12:45 3.00 1480 3170 (2019) 1360 (2016) 2100 1430 1660 1710 1950 2430 2690 3110
2026-03-17 11:45 3.05 1520 3170 (2019) 1360 (2016) 2100 1430 1660 1710 1950 2430 2690 3110
2026-03-17 10:45 3.01 1490 3170 (2019) 1360 (2016) 2100 1430 1660 1710 1950 2430 2690 3110
2026-03-17 09:45 2.99 1450 3170 (2019) 1360 (2016) 2100 1430 1660 1710 1950 2430 2690 3110
2026-03-17 08:45 3.07 1530 3170 (2019) 1360 (2016) 2100 1430 1660 1710 1950 2430 2690 3110
2026-03-17 07:45 3.06 1530 3170 (2019) 1360 (2016) 2100 1430 1660 1710 1950 2430 2690 3110
2026-03-17 06:45 3.01 1490 3170 (2019) 1360 (2016) 2100 1430 1660 1710 1950 2430 2690 3110
2026-03-17 05:45 3.03 1500 3170 (2019) 1360 (2016) 2100 1430 1660 1710 1950 2430 2690 3110
2026-03-17 04:45 3.03 1500 3170 (2019) 1360 (2016) 2100 1430 1660 1710 1950 2430 2690 3110
2026-03-17 03:45 3.02 1500 3170 (2019) 1360 (2016) 2100 1430 1660 1710 1950 2430 2690 3110
2026-03-17 02:45 3.01 1490 3170 (2019) 1360 (2016) 2100 1430 1660 1710 1950 2430 2690 3110
2026-03-17 01:45 3.04 1510 3170 (2019) 1360 (2016) 2100 1430 1660 1710 1950 2430 2690 3110
2026-03-17 00:45 3.02 1500 3170 (2019) 1360 (2016) 2100 1430 1660 1710 1950 2430 2690 3110
2026-03-16 23:45 3.03 1500 3170 (2019) 1360 (2016) 2100 1430 1660 1710 1950 2430 2690 3110
2026-03-16 22:45 3.06 1530 3170 (2019) 1450 (2016) 2120 1520 1710 1740 2020 2500 2720 3090
2026-03-16 21:45 3.05 1520 3170 (2019) 1450 (2016) 2120 1520 1710 1740 2020 2500 2720 3090
2026-03-16 20:45 3.00 1480 3170 (2019) 1450 (2016) 2120 1520 1710 1740 2020 2500 2720 3090
2026-03-16 19:45 2.97 1380 3170 (2019) 1450 (2016) 2120 1520 1710 1740 2020 2500 2720 3090
2026-03-16 18:45 2.99 1450 3170 (2019) 1450 (2016) 2120 1520 1710 1740 2020 2500 2720 3090
2026-03-16 17:45 3.01 1490 3170 (2019) 1450 (2016) 2120 1520 1710 1740 2020 2500 2720 3090
2026-03-16 16:45 2.91 1200 3170 (2019) 1450 (2016) 2120 1520 1710 1740 2020 2500 2720 3090
2026-03-16 15:45 2.89 1140 3170 (2019) 1450 (2016) 2120 1520 1710 1740 2020 2500 2720 3090
2026-03-16 14:45 2.95 1320 3170 (2019) 1450 (2016) 2120 1520 1710 1740 2020 2500 2720 3090
2026-03-16 13:45 2.94 1290 3170 (2019) 1450 (2016) 2120 1520 1710 1740 2020 2500 2720 3090
2026-03-16 12:45 2.90 1170 3170 (2019) 1450 (2016) 2120 1520 1710 1740 2020 2500 2720 3090
2026-03-16 11:45 2.87 1090 3170 (2019) 1450 (2016) 2120 1520 1710 1740 2020 2500 2720 3090
2026-03-16 10:45 2.81 939 3170 (2019) 1450 (2016) 2120 1520 1710 1740 2020 2500 2720 3090
2026-03-16 09:45 2.77 850 3170 (2019) 1450 (2016) 2120 1520 1710 1740 2020 2500 2720 3090
2026-03-16 08:45 2.82 962 3170 (2019) 1450 (2016) 2120 1520 1710 1740 2020 2500 2720 3090
2026-03-16 07:45 2.85 1040 3170 (2019) 1450 (2016) 2120 1520 1710 1740 2020 2500 2720 3090
2026-03-16 06:45 2.88 1110 3170 (2019) 1450 (2016) 2120 1520 1710 1740 2020 2500 2720 3090
2026-03-16 05:45 2.87 1090 3170 (2019) 1450 (2016) 2120 1520 1710 1740 2020 2500 2720 3090
2026-03-16 04:45 2.77 850 3170 (2019) 1450 (2016) 2120 1520 1710 1740 2020 2500 2720 3090
2026-03-16 03:45 2.83 986 3170 (2019) 1450 (2016) 2120 1520 1710 1740 2020 2500 2720 3090
2026-03-16 02:45 2.83 986 3170 (2019) 1450 (2016) 2120 1520 1710 1740 2020 2500 2720 3090
2026-03-16 01:45 2.81 939 3170 (2019) 1450 (2016) 2120 1520 1710 1740 2020 2500 2720 3090
2026-03-16 00:45 2.79 894 3170 (2019) 1450 (2016) 2120 1520 1710 1740 2020 2500 2720 3090
2026-03-15 23:45 2.90 1170 3170 (2019) 1450 (2016) 2120 1520 1710 1740 2020 2500 2720 3090
2026-03-15 22:45 2.99 1450 5540 (2019) 1520 (2016) 2280 1530 1660 1720 2060 2330 2480 4670
2026-03-15 21:45 2.98 1410 5540 (2019) 1520 (2016) 2280 1530 1660 1720 2060 2330 2480 4670
2026-03-15 20:45 2.94 1290 5540 (2019) 1520 (2016) 2280 1530 1660 1720 2060 2330 2480 4670
2026-03-15 19:45 2.96 1350 5540 (2019) 1520 (2016) 2280 1530 1660 1720 2060 2330 2480 4670
2026-03-15 18:45 2.99 1450 5540 (2019) 1520 (2016) 2280 1530 1660 1720 2060 2330 2480 4670
2026-03-15 17:45 2.93 1260 5540 (2019) 1520 (2016) 2280 1530 1660 1720 2060 2330 2480 4670
2026-03-15 16:45 2.94 1290 5540 (2019) 1520 (2016) 2280 1530 1660 1720 2060 2330 2480 4670
2026-03-15 15:45 2.98 1410 5540 (2019) 1520 (2016) 2280 1530 1660 1720 2060 2330 2480 4670
2026-03-15 14:45 3.02 1500 5540 (2019) 1520 (2016) 2280 1530 1660 1720 2060 2330 2480 4670
2026-03-15 13:45 3.03 1500 5540 (2019) 1520 (2016) 2280 1530 1660 1720 2060 2330 2480 4670
2026-03-15 12:45 2.98 1410 5540 (2019) 1520 (2016) 2280 1530 1660 1720 2060 2330 2480 4670
2026-03-15 11:45 2.99 1450 5540 (2019) 1520 (2016) 2280 1530 1660 1720 2060 2330 2480 4670
2026-03-15 10:45 2.94 1290 5540 (2019) 1520 (2016) 2280 1530 1660 1720 2060 2330 2480 4670
2026-03-15 09:45 2.95 1320 5540 (2019) 1520 (2016) 2280 1530 1660 1720 2060 2330 2480 4670
2026-03-15 08:45 2.95 1320 5540 (2019) 1520 (2016) 2280 1530 1660 1720 2060 2330 2480 4670
2026-03-15 07:45 2.91 1200 5540 (2019) 1520 (2016) 2280 1530 1660 1720 2060 2330 2480 4670
2026-03-15 06:45 2.93 1260 5540 (2019) 1520 (2016) 2280 1530 1660 1720 2060 2330 2480 4670
2026-03-15 05:45 2.89 1140 5540 (2019) 1520 (2016) 2280 1530 1660 1720 2060 2330 2480 4670
2026-03-15 04:45 2.94 1290 5540 (2019) 1520 (2016) 2280 1530 1660 1720 2060 2330 2480 4670
2026-03-15 03:45 2.87 1090 5540 (2019) 1520 (2016) 2280 1530 1660 1720 2060 2330 2480 4670
2026-03-15 02:45 2.90 1170 5540 (2019) 1520 (2016) 2280 1530 1660 1720 2060 2330 2480 4670
2026-03-15 01:45 2.83 986 5540 (2019) 1520 (2016) 2280 1530 1660 1720 2060 2330 2480 4670
2026-03-15 00:45 2.94 1290 5540 (2019) 1520 (2016) 2280 1530 1660 1720 2060 2330 2480 4670
2026-03-14 23:45 2.90 1170 5540 (2019) 1520 (2016) 2280 1530 1660 1720 2060 2330 2480 4670
2026-03-14 22:45 2.87 1090 19400 (2019) 1330 (2015) 3420 1360 1600 1700 2030 2440 2480 14300
2026-03-14 21:45 2.89 1140 19400 (2019) 1330 (2015) 3420 1360 1600 1700 2030 2440 2480 14300
2026-03-14 20:45 2.85 1040 19400 (2019) 1330 (2015) 3420 1360 1600 1700 2030 2440 2480 14300
2026-03-14 19:45 2.94 1290 19400 (2019) 1330 (2015) 3420 1360 1600 1700 2030 2440 2480 14300
2026-03-14 18:45 2.95 1320 19400 (2019) 1330 (2015) 3420 1360 1600 1700 2030 2440 2480 14300
2026-03-14 17:45 3.01 1490 19400 (2019) 1330 (2015) 3420 1360 1600 1700 2030 2440 2480 14300
2026-03-14 16:45 3.02 1500 19400 (2019) 1330 (2015) 3420 1360 1600 1700 2030 2440 2480 14300
2026-03-14 15:45 2.91 1200 19400 (2019) 1330 (2015) 3420 1360 1600 1700 2030 2440 2480 14300
2026-03-14 14:45 2.96 1350 19400 (2019) 1330 (2015) 3420 1360 1600 1700 2030 2440 2480 14300
2026-03-14 13:45 2.95 1320 19400 (2019) 1330 (2015) 3420 1360 1600 1700 2030 2440 2480 14300
2026-03-14 12:45 2.96 1350 19400 (2019) 1330 (2015) 3420 1360 1600 1700 2030 2440 2480 14300
2026-03-14 11:45 2.96 1350 19400 (2019) 1330 (2015) 3420 1360 1600 1700 2030 2440 2480 14300
2026-03-14 10:45 2.95 1320 19400 (2019) 1330 (2015) 3420 1360 1600 1700 2030 2440 2480 14300
2026-03-14 09:45 2.91 1200 19400 (2019) 1330 (2015) 3420 1360 1600 1700 2030 2440 2480 14300
2026-03-14 08:45 2.99 1450 19400 (2019) 1330 (2015) 3420 1360 1600 1700 2030 2440 2480 14300
2026-03-14 07:45 3.04 1510 19400 (2019) 1330 (2015) 3420 1360 1600 1700 2030 2440 2480 14300
2026-03-14 06:45 3.00 1480 19400 (2019) 1330 (2015) 3420 1360 1600 1700 2030 2440 2480 14300
2026-03-14 05:45 2.91 1200 19400 (2019) 1330 (2015) 3420 1360 1600 1700 2030 2440 2480 14300
2026-03-14 04:45 2.93 1260 19400 (2019) 1330 (2015) 3420 1360 1600 1700 2030 2440 2480 14300
2026-03-14 03:45 2.94 1290 19400 (2019) 1330 (2015) 3420 1360 1600 1700 2030 2440 2480 14300
2026-03-14 02:45 2.97 1380 19400 (2019) 1330 (2015) 3420 1360 1600 1700 2030 2440 2480 14300
2026-03-14 01:45 2.99 1450 19400 (2019) 1330 (2015) 3420 1360 1600 1700 2030 2440 2480 14300
2026-03-14 00:45 3.01 1490 19400 (2019) 1330 (2015) 3420 1360 1600 1700 2030 2440 2480 14300
2026-03-13 23:45 3.05 1520 19400 (2019) 1330 (2015) 3420 1360 1600 1700 2030 2440 2480 14300
2026-03-13 22:45 3.04 1510 10500 (2019) 1230 (2015) 2590 1240 1520 1700 1910 2300 2440 8130
2026-03-13 21:45 3.04 1510 10500 (2019) 1230 (2015) 2590 1240 1520 1700 1910 2300 2440 8130
2026-03-13 20:45 3.08 1540 10500 (2019) 1230 (2015) 2590 1240 1520 1700 1910 2300 2440 8130
2026-03-13 19:45 3.09 1550 10500 (2019) 1230 (2015) 2590 1240 1520 1700 1910 2300 2440 8130
2026-03-13 18:45 3.09 1550 10500 (2019) 1230 (2015) 2590 1240 1520 1700 1910 2300 2440 8130
2026-03-13 17:45 3.11 1560 10500 (2019) 1230 (2015) 2590 1240 1520 1700 1910 2300 2440 8130
2026-03-13 16:45 3.11 1560 10500 (2019) 1230 (2015) 2590 1240 1520 1700 1910 2300 2440 8130
2026-03-13 15:45 3.12 1570 10500 (2019) 1230 (2015) 2590 1240 1520 1700 1910 2300 2440 8130
2026-03-13 14:45 3.12 1570 10500 (2019) 1230 (2015) 2590 1240 1520 1700 1910 2300 2440 8130
2026-03-13 13:45 3.11 1560 10500 (2019) 1230 (2015) 2590 1240 1520 1700 1910 2300 2440 8130
2026-03-13 12:45 3.10 1560 10500 (2019) 1230 (2015) 2590 1240 1520 1700 1910 2300 2440 8130
2026-03-13 11:45 3.09 1550 10500 (2019) 1230 (2015) 2590 1240 1520 1700 1910 2300 2440 8130
2026-03-13 10:45 3.09 1550 10500 (2019) 1230 (2015) 2590 1240 1520 1700 1910 2300 2440 8130
2026-03-13 09:45 3.10 1560 10500 (2019) 1230 (2015) 2590 1240 1520 1700 1910 2300 2440 8130
2026-03-13 08:45 3.10 1560 10500 (2019) 1230 (2015) 2590 1240 1520 1700 1910 2300 2440 8130
2026-03-13 07:45 3.10 1560 10500 (2019) 1230 (2015) 2590 1240 1520 1700 1910 2300 2440 8130
2026-03-13 06:45 3.07 1530 10500 (2019) 1230 (2015) 2590 1240 1520 1700 1910 2300 2440 8130
2026-03-13 05:45 3.07 1530 10500 (2019) 1230 (2015) 2590 1240 1520 1700 1910 2300 2440 8130
2026-03-13 04:45 3.10 1560 10500 (2019) 1230 (2015) 2590 1240 1520 1700 1910 2300 2440 8130
2026-03-13 03:45 3.12 1570 10500 (2019) 1230 (2015) 2590 1240 1520 1700 1910 2300 2440 8130
2026-03-13 02:45 3.13 1580 10500 (2019) 1230 (2015) 2590 1240 1520 1700 1910 2300 2440 8130
2026-03-13 01:45 3.14 1590 10500 (2019) 1230 (2015) 2590 1240 1520 1700 1910 2300 2440 8130
2026-03-13 00:45 3.13 1580 10500 (2019) 1230 (2015) 2590 1240 1520 1700 1910 2300 2440 8130
2026-03-12 23:45 3.14 1590 10500 (2019) 1230 (2015) 2590 1240 1520 1700 1910 2300 2440 8130
2026-03-12 22:45 3.16 1600 2410 (2023) 1190 (2015) 1840 1250 1560 1670 1840 2050 2190 2390
2026-03-12 21:45 3.15 1600 2410 (2023) 1190 (2015) 1840 1250 1560 1670 1840 2050 2190 2390
2026-03-12 20:45 3.15 1600 2410 (2023) 1190 (2015) 1840 1250 1560 1670 1840 2050 2190 2390
2026-03-12 19:45 3.12 1570 2410 (2023) 1190 (2015) 1840 1250 1560 1670 1840 2050 2190 2390
2026-03-12 18:45 3.12 1570 2410 (2023) 1190 (2015) 1840 1250 1560 1670 1840 2050 2190 2390
2026-03-12 17:45 3.14 1590 2410 (2023) 1190 (2015) 1840 1250 1560 1670 1840 2050 2190 2390
2026-03-12 16:45 3.16 1600 2410 (2023) 1190 (2015) 1840 1250 1560 1670 1840 2050 2190 2390
2026-03-12 15:45 3.16 1600 2410 (2023) 1190 (2015) 1840 1250 1560 1670 1840 2050 2190 2390
2026-03-12 14:45 3.13 1580 2410 (2023) 1190 (2015) 1840 1250 1560 1670 1840 2050 2190 2390
2026-03-12 13:45 3.19 1630 2410 (2023) 1190 (2015) 1840 1250 1560 1670 1840 2050 2190 2390
2026-03-12 12:45 3.21 1640 2410 (2023) 1190 (2015) 1840 1250 1560 1670 1840 2050 2190 2390
2026-03-12 11:45 3.22 1650 2410 (2023) 1190 (2015) 1840 1250 1560 1670 1840 2050 2190 2390
2026-03-12 10:45 3.23 1660 2410 (2023) 1190 (2015) 1840 1250 1560 1670 1840 2050 2190 2390
2026-03-12 09:45 3.21 1640 2410 (2023) 1190 (2015) 1840 1250 1560 1670 1840 2050 2190 2390
2026-03-12 08:45 3.23 1660 2410 (2023) 1190 (2015) 1840 1250 1560 1670 1840 2050 2190 2390
2026-03-12 07:45 3.23 1660 2410 (2023) 1190 (2015) 1840 1250 1560 1670 1840 2050 2190 2390
2026-03-12 06:45 3.19 1630 2410 (2023) 1190 (2015) 1840 1250 1560 1670 1840 2050 2190 2390
2026-03-12 05:45 3.17 1610 2410 (2023) 1190 (2015) 1840 1250 1560 1670 1840 2050 2190 2390
2026-03-12 04:45 3.17 1610 2410 (2023) 1190 (2015) 1840 1250 1560 1670 1840 2050 2190 2390
2026-03-12 03:45 3.17 1610 2410 (2023) 1190 (2015) 1840 1250 1560 1670 1840 2050 2190 2390
2026-03-12 02:45 3.17 1610 2410 (2023) 1190 (2015) 1840 1250 1560 1670 1840 2050 2190 2390
2026-03-12 01:45 3.20 1630 2410 (2023) 1190 (2015) 1840 1250 1560 1670 1840 2050 2190 2390
2026-03-12 00:45 3.22 1650 2410 (2023) 1190 (2015) 1840 1250 1560 1670 1840 2050 2190 2390
2026-03-11 23:45 3.23 1660 2410 (2023) 1190 (2015) 1840 1250 1560 1670 1840 2050 2190 2390
2026-03-11 22:45 3.22 1650 2700 (2020) 1250 (2015) 1880 1270 1430 1540 1910 2130 2260 2620
2026-03-11 21:45 3.19 1630 2700 (2020) 1250 (2015) 1880 1270 1430 1540 1910 2130 2260 2620
2026-03-11 20:45 3.22 1650 2700 (2020) 1250 (2015) 1880 1270 1430 1540 1910 2130 2260 2620
2026-03-11 19:45 3.22 1650 2700 (2020) 1250 (2015) 1880 1270 1430 1540 1910 2130 2260 2620
2026-03-11 18:45 3.22 1650 2700 (2020) 1250 (2015) 1880 1270 1430 1540 1910 2130 2260 2620
2026-03-11 17:45 3.26 1680 2700 (2020) 1250 (2015) 1880 1270 1430 1540 1910 2130 2260 2620
2026-03-11 16:45 3.29 1710 2700 (2020) 1250 (2015) 1880 1270 1430 1540 1910 2130 2260 2620
2026-03-11 15:45 3.29 1710 2700 (2020) 1250 (2015) 1880 1270 1430 1540 1910 2130 2260 2620
2026-03-11 14:45 3.29 1710 2700 (2020) 1250 (2015) 1880 1270 1430 1540 1910 2130 2260 2620
2026-03-11 13:45 3.30 1720 2700 (2020) 1250 (2015) 1880 1270 1430 1540 1910 2130 2260 2620
2026-03-11 12:45 3.32 1730 2700 (2020) 1250 (2015) 1880 1270 1430 1540 1910 2130 2260 2620
2026-03-11 11:45 3.29 1710 2700 (2020) 1250 (2015) 1880 1270 1430 1540 1910 2130 2260 2620
2026-03-11 10:45 3.32 1730 2700 (2020) 1250 (2015) 1880 1270 1430 1540 1910 2130 2260 2620
2026-03-11 09:45 3.28 1700 2700 (2020) 1250 (2015) 1880 1270 1430 1540 1910 2130 2260 2620
2026-03-11 08:45 3.33 1740 2700 (2020) 1250 (2015) 1880 1270 1430 1540 1910 2130 2260 2620
2026-03-11 07:45 3.31 1720 2700 (2020) 1250 (2015) 1880 1270 1430 1540 1910 2130 2260 2620
2026-03-11 06:45 3.29 1710 2700 (2020) 1250 (2015) 1880 1270 1430 1540 1910 2130 2260 2620
2026-03-11 05:45 3.26 1680 2700 (2020) 1250 (2015) 1880 1270 1430 1540 1910 2130 2260 2620
2026-03-11 04:45 3.29 1710 2700 (2020) 1250 (2015) 1880 1270 1430 1540 1910 2130 2260 2620
2026-03-11 03:45 3.24 1670 2700 (2020) 1250 (2015) 1880 1270 1430 1540 1910 2130 2260 2620
2026-03-11 02:45 3.29 1710 2700 (2020) 1250 (2015) 1880 1270 1430 1540 1910 2130 2260 2620
2026-03-11 01:45 3.20 1630 2700 (2020) 1250 (2015) 1880 1270 1430 1540 1910 2130 2260 2620
2026-03-11 00:45 3.21 1640 2700 (2020) 1250 (2015) 1880 1270 1430 1540 1910 2130 2260 2620
2026-03-10 23:45 3.22 1650 2700 (2020) 1250 (2015) 1880 1270 1430 1540 1910 2130 2260 2620
2026-03-10 22:45 3.19 1630 2960 (2020) 1250 (2015) 1900 1250 1420 1550 1820 2280 2360 2800
2026-03-10 21:45 3.15 1600 2960 (2020) 1250 (2015) 1900 1250 1420 1550 1820 2280 2360 2800
2026-03-10 20:45 3.24 1670 2960 (2020) 1250 (2015) 1900 1250 1420 1550 1820 2280 2360 2800
2026-03-10 19:45 3.21 1640 2960 (2020) 1250 (2015) 1900 1250 1420 1550 1820 2280 2360 2800
2026-03-10 18:45 3.18 1620 2960 (2020) 1250 (2015) 1900 1250 1420 1550 1820 2280 2360 2800
2026-03-10 17:45 3.21 1640 2960 (2020) 1250 (2015) 1900 1250 1420 1550 1820 2280 2360 2800
2026-03-10 16:45 3.20 1630 2960 (2020) 1250 (2015) 1900 1250 1420 1550 1820 2280 2360 2800
2026-03-10 15:45 3.26 1680 2960 (2020) 1250 (2015) 1900 1250 1420 1550 1820 2280 2360 2800
2026-03-10 14:45 3.25 1680 2960 (2020) 1250 (2015) 1900 1250 1420 1550 1820 2280 2360 2800
2026-03-10 13:45 3.23 1660 2960 (2020) 1250 (2015) 1900 1250 1420 1550 1820 2280 2360 2800
2026-03-10 12:45 3.23 1660 2960 (2020) 1250 (2015) 1900 1250 1420 1550 1820 2280 2360 2800
2026-03-10 11:45 3.19 1630 2960 (2020) 1250 (2015) 1900 1250 1420 1550 1820 2280 2360 2800
2026-03-10 10:45 3.16 1600 2960 (2020) 1250 (2015) 1900 1250 1420 1550 1820 2280 2360 2800
2026-03-10 09:45 3.15 1600 2960 (2020) 1250 (2015) 1900 1250 1420 1550 1820 2280 2360 2800
2026-03-10 08:45 3.21 1640 2960 (2020) 1250 (2015) 1900 1250 1420 1550 1820 2280 2360 2800
2026-03-10 07:45 3.20 1630 2960 (2020) 1250 (2015) 1900 1250 1420 1550 1820 2280 2360 2800
2026-03-10 06:45 3.19 1630 2960 (2020) 1250 (2015) 1900 1250 1420 1550 1820 2280 2360 2800
2026-03-10 05:45 3.15 1600 2960 (2020) 1250 (2015) 1900 1250 1420 1550 1820 2280 2360 2800
2026-03-10 04:45 3.15 1600 2960 (2020) 1250 (2015) 1900 1250 1420 1550 1820 2280 2360 2800
2026-03-10 03:45 3.15 1600 2960 (2020) 1250 (2015) 1900 1250 1420 1550 1820 2280 2360 2800
2026-03-10 02:45 3.16 1600 2960 (2020) 1250 (2015) 1900 1250 1420 1550 1820 2280 2360 2800
2026-03-10 01:45 3.18 1620 2960 (2020) 1250 (2015) 1900 1250 1420 1550 1820 2280 2360 2800
2026-03-10 00:45 3.17 1610 2960 (2020) 1250 (2015) 1900 1250 1420 1550 1820 2280 2360 2800
2026-03-09 23:45 3.19 1630 2960 (2020) 1250 (2015) 1900 1250 1420 1550 1820 2280 2360 2800
2026-03-09 22:45 3.17 1610 3100 (2020) 1210 (2015) 1890 1240 1490 1620 1800 2110 2260 2910
2026-03-09 21:45 3.20 1630 3100 (2020) 1210 (2015) 1890 1240 1490 1620 1800 2110 2260 2910
2026-03-09 20:45 3.16 1600 3100 (2020) 1210 (2015) 1890 1240 1490 1620 1800 2110 2260 2910
2026-03-09 19:45 3.19 1630 3100 (2020) 1210 (2015) 1890 1240 1490 1620 1800 2110 2260 2910
2026-03-09 18:45 3.20 1630 3100 (2020) 1210 (2015) 1890 1240 1490 1620 1800 2110 2260 2910
2026-03-09 17:45 3.24 1670 3100 (2020) 1210 (2015) 1890 1240 1490 1620 1800 2110 2260 2910
2026-03-09 16:45 3.20 1630 3100 (2020) 1210 (2015) 1890 1240 1490 1620 1800 2110 2260 2910
2026-03-09 15:45 3.23 1660 3100 (2020) 1210 (2015) 1890 1240 1490 1620 1800 2110 2260 2910
2026-03-09 14:45 3.24 1670 3100 (2020) 1210 (2015) 1890 1240 1490 1620 1800 2110 2260 2910
2026-03-09 13:45 3.23 1660 3100 (2020) 1210 (2015) 1890 1240 1490 1620 1800 2110 2260 2910
2026-03-09 12:45 3.22 1650 3100 (2020) 1210 (2015) 1890 1240 1490 1620 1800 2110 2260 2910
2026-03-09 11:45 3.22 1650 3100 (2020) 1210 (2015) 1890 1240 1490 1620 1800 2110 2260 2910
2026-03-09 10:45 3.21 1640 3100 (2020) 1210 (2015) 1890 1240 1490 1620 1800 2110 2260 2910
2026-03-09 09:45 3.19 1630 3100 (2020) 1210 (2015) 1890 1240 1490 1620 1800 2110 2260 2910
2026-03-09 08:45 3.18 1620 3100 (2020) 1210 (2015) 1890 1240 1490 1620 1800 2110 2260 2910
2026-03-09 07:45 3.18 1620 3100 (2020) 1210 (2015) 1890 1240 1490 1620 1800 2110 2260 2910
2026-03-09 06:45 3.14 1590 3100 (2020) 1210 (2015) 1890 1240 1490 1620 1800 2110 2260 2910
2026-03-09 05:45 3.13 1580 3100 (2020) 1210 (2015) 1890 1240 1490 1620 1800 2110 2260 2910
2026-03-09 04:45 3.12 1570 3100 (2020) 1210 (2015) 1890 1240 1490 1620 1800 2110 2260 2910
2026-03-09 03:45 3.12 1570 3100 (2020) 1210 (2015) 1890 1240 1490 1620 1800 2110 2260 2910
2026-03-09 02:45 3.16 1600 3100 (2020) 1210 (2015) 1890 1240 1490 1620 1800 2110 2260 2910
2026-03-09 01:45 3.16 1600 3100 (2020) 1210 (2015) 1890 1240 1490 1620 1800 2110 2260 2910
2026-03-09 00:45 3.16 1600 3100 (2020) 1210 (2015) 1890 1240 1490 1620 1800 2110 2260 2910
2026-03-08 23:45 3.16 1600 3100 (2020) 1210 (2015) 1890 1240 1490 1620 1800 2110 2260 2910
2026-03-08 22:45 3.15 1600 2800 (2020) 1180 (2015) 1850 1200 1440 1570 1740 2200 2330 2700
2026-03-08 21:45 3.19 1630 2800 (2020) 1180 (2015) 1850 1200 1440 1570 1740 2200 2330 2700
2026-03-08 20:45 3.18 1620 2800 (2020) 1180 (2015) 1850 1200 1440 1570 1740 2200 2330 2700
2026-03-08 19:45 3.18 1620 2800 (2020) 1180 (2015) 1850 1200 1440 1570 1740 2200 2330 2700
2026-03-08 18:45 3.17 1610 2800 (2020) 1180 (2015) 1850 1200 1440 1570 1740 2200 2330 2700
2026-03-08 17:45 3.20 1630 2800 (2020) 1180 (2015) 1850 1200 1440 1570 1740 2200 2330 2700
2026-03-08 16:45 3.19 1630 2800 (2020) 1180 (2015) 1850 1200 1440 1570 1740 2200 2330 2700
2026-03-08 15:45 3.20 1630 2800 (2020) 1180 (2015) 1850 1200 1440 1570 1740 2200 2330 2700
2026-03-08 14:45 3.20 1630 2800 (2020) 1180 (2015) 1850 1200 1440 1570 1740 2200 2330 2700
2026-03-08 13:45 3.21 1640 2800 (2020) 1180 (2015) 1850 1200 1440 1570 1740 2200 2330 2700
2026-03-08 12:45 3.23 1660 2800 (2020) 1180 (2015) 1850 1200 1440 1570 1740 2200 2330 2700
2026-03-08 11:45 3.22 1650 2800 (2020) 1180 (2015) 1850 1200 1440 1570 1740 2200 2330 2700
2026-03-08 10:45 3.18 1620 2800 (2020) 1180 (2015) 1850 1200 1440 1570 1740 2200 2330 2700
2026-03-08 09:45 3.20 1630 2800 (2020) 1180 (2015) 1850 1200 1440 1570 1740 2200 2330 2700
2026-03-08 08:45 3.21 1640 2800 (2020) 1180 (2015) 1850 1200 1440 1570 1740 2200 2330 2700
2026-03-08 07:45 3.20 1630 2800 (2020) 1180 (2015) 1850 1200 1440 1570 1740 2200 2330 2700
2026-03-08 06:45 3.16 1600 2800 (2020) 1180 (2015) 1850 1200 1440 1570 1740 2200 2330 2700
2026-03-08 05:45 3.18 1620 2800 (2020) 1180 (2015) 1850 1200 1440 1570 1740 2200 2330 2700
2026-03-08 04:45 3.18 1620 2800 (2020) 1180 (2015) 1850 1200 1440 1570 1740 2200 2330 2700
2026-03-08 03:45 3.17 1610 2800 (2020) 1180 (2015) 1850 1200 1440 1570 1740 2200 2330 2700
2026-03-08 01:45 3.17 1610 2800 (2020) 1180 (2015) 1850 1200 1440 1570 1740 2200 2330 2700
2026-03-08 00:45 3.17 1610 2800 (2020) 1180 (2015) 1850 1200 1440 1570 1740 2200 2330 2700
2026-03-07 23:45 3.15 1600 2800 (2020) 1180 (2015) 1850 1200 1440 1570 1740 2200 2330 2700
2026-03-07 22:45 3.16 1600 2750 (2020) 1030 (2015) 1860 1050 1260 1420 1800 2360 2420 2660
2026-03-07 21:45 3.17 1610 2750 (2020) 1030 (2015) 1860 1050 1260 1420 1800 2360 2420 2660
2026-03-07 20:45 3.20 1630 2750 (2020) 1030 (2015) 1860 1050 1260 1420 1800 2360 2420 2660
2026-03-07 19:45 3.18 1620 2750 (2020) 1030 (2015) 1860 1050 1260 1420 1800 2360 2420 2660
2026-03-07 18:45 3.17 1610 2750 (2020) 1030 (2015) 1860 1050 1260 1420 1800 2360 2420 2660
2026-03-07 17:45 3.18 1620 2750 (2020) 1030 (2015) 1860 1050 1260 1420 1800 2360 2420 2660
2026-03-07 16:45 3.21 1640 2750 (2020) 1030 (2015) 1860 1050 1260 1420 1800 2360 2420 2660
2026-03-07 15:45 3.21 1640 2750 (2020) 1030 (2015) 1860 1050 1260 1420 1800 2360 2420 2660
2026-03-07 14:45 3.16 1600 2750 (2020) 1030 (2015) 1860 1050 1260 1420 1800 2360 2420 2660
2026-03-07 13:45 3.15 1600 2750 (2020) 1030 (2015) 1860 1050 1260 1420 1800 2360 2420 2660
2026-03-07 12:45 3.17 1610 2750 (2020) 1030 (2015) 1860 1050 1260 1420 1800 2360 2420 2660
2026-03-07 11:45 3.15 1600 2750 (2020) 1030 (2015) 1860 1050 1260 1420 1800 2360 2420 2660
2026-03-07 10:45 3.13 1580 2750 (2020) 1030 (2015) 1860 1050 1260 1420 1800 2360 2420 2660
2026-03-07 09:45 3.16 1600 2750 (2020) 1030 (2015) 1860 1050 1260 1420 1800 2360 2420 2660
2026-03-07 08:45 3.15 1600 2750 (2020) 1030 (2015) 1860 1050 1260 1420 1800 2360 2420 2660
2026-03-07 07:45 3.12 1570 2750 (2020) 1030 (2015) 1860 1050 1260 1420 1800 2360 2420 2660
2026-03-07 06:45 3.12 1570 2750 (2020) 1030 (2015) 1860 1050 1260 1420 1800 2360 2420 2660
2026-03-07 05:45 3.16 1600 2750 (2020) 1030 (2015) 1860 1050 1260 1420 1800 2360 2420 2660
2026-03-07 04:45 3.11 1560 2750 (2020) 1030 (2015) 1860 1050 1260 1420 1800 2360 2420 2660
2026-03-07 03:45 3.10 1560 2750 (2020) 1030 (2015) 1860 1050 1260 1420 1800 2360 2420 2660
2026-03-07 02:45 3.22 1650 2750 (2020) 1030 (2015) 1860 1050 1260 1420 1800 2360 2420 2660
2026-03-07 01:45 3.27 1690 2750 (2020) 1030 (2015) 1860 1050 1260 1420 1800 2360 2420 2660
2026-03-07 00:45 3.25 1680 2750 (2020) 1030 (2015) 1860 1050 1260 1420 1800 2360 2420 2660
2026-03-06 23:45 3.23 1660 2750 (2020) 1030 (2015) 1860 1050 1260 1420 1800 2360 2420 2660
2026-03-06 22:45 3.26 1680 2820 (2021) 1050 (2019) 1950 1070 1250 1400 1890 2600 2700 2810
2026-03-06 21:45 3.28 1700 2820 (2021) 1050 (2019) 1950 1070 1250 1400 1890 2600 2700 2810
2026-03-06 20:45 3.26 1680 2820 (2021) 1050 (2019) 1950 1070 1250 1400 1890 2600 2700 2810
2026-03-06 19:45 3.24 1670 2820 (2021) 1050 (2019) 1950 1070 1250 1400 1890 2600 2700 2810
2026-03-06 18:45 3.25 1680 2820 (2021) 1050 (2019) 1950 1070 1250 1400 1890 2600 2700 2810
2026-03-06 17:45 3.21 1640 2820 (2021) 1050 (2019) 1950 1070 1250 1400 1890 2600 2700 2810
2026-03-06 16:45 3.13 1580 2820 (2021) 1050 (2019) 1950 1070 1250 1400 1890 2600 2700 2810
2026-03-06 15:45 3.21 1640 2820 (2021) 1050 (2019) 1950 1070 1250 1400 1890 2600 2700 2810
2026-03-06 14:45 3.19 1630 2820 (2021) 1050 (2019) 1950 1070 1250 1400 1890 2600 2700 2810
2026-03-06 13:45 3.17 1610 2820 (2021) 1050 (2019) 1950 1070 1250 1400 1890 2600 2700 2810
2026-03-06 12:45 3.20 1630 2820 (2021) 1050 (2019) 1950 1070 1250 1400 1890 2600 2700 2810
2026-03-06 11:45 3.12 1570 2820 (2021) 1050 (2019) 1950 1070 1250 1400 1890 2600 2700 2810
2026-03-06 10:45 3.11 1560 2820 (2021) 1050 (2019) 1950 1070 1250 1400 1890 2600 2700 2810
2026-03-06 09:45 3.18 1620 2820 (2021) 1050 (2019) 1950 1070 1250 1400 1890 2600 2700 2810
2026-03-06 08:45 3.16 1600 2820 (2021) 1050 (2019) 1950 1070 1250 1400 1890 2600 2700 2810
2026-03-06 07:45 3.19 1630 2820 (2021) 1050 (2019) 1950 1070 1250 1400 1890 2600 2700 2810
2026-03-06 06:45 3.13 1580 2820 (2021) 1050 (2019) 1950 1070 1250 1400 1890 2600 2700 2810
2026-03-06 05:45 3.15 1600 2820 (2021) 1050 (2019) 1950 1070 1250 1400 1890 2600 2700 2810
2026-03-06 04:45 3.10 1560 2820 (2021) 1050 (2019) 1950 1070 1250 1400 1890 2600 2700 2810
2026-03-06 03:45 3.09 1550 2820 (2021) 1050 (2019) 1950 1070 1250 1400 1890 2600 2700 2810
2026-03-06 02:45 3.09 1550 2820 (2021) 1050 (2019) 1950 1070 1250 1400 1890 2600 2700 2810
2026-03-06 01:45 3.09 1550 2820 (2021) 1050 (2019) 1950 1070 1250 1400 1890 2600 2700 2810
2026-03-06 00:45 3.04 1510 2820 (2021) 1050 (2019) 1950 1070 1250 1400 1890 2600 2700 2810
2026-03-05 23:45 3.06 1530 2820 (2021) 1050 (2019) 1950 1070 1250 1400 1890 2600 2700 2810
2026-03-05 22:45 3.09 1550 2970 (2020) 935 (2019) 1990 982 1320 1480 2010 2500 2680 2950
2026-03-05 21:45 3.11 1560 2970 (2020) 935 (2019) 1990 982 1320 1480 2010 2500 2680 2950
2026-03-05 20:45 3.07 1530 2970 (2020) 935 (2019) 1990 982 1320 1480 2010 2500 2680 2950
2026-03-05 19:45 3.05 1520 2970 (2020) 935 (2019) 1990 982 1320 1480 2010 2500 2680 2950
2026-03-05 18:45 3.09 1550 2970 (2020) 935 (2019) 1990 982 1320 1480 2010 2500 2680 2950
2026-03-05 17:45 3.12 1570 2970 (2020) 935 (2019) 1990 982 1320 1480 2010 2500 2680 2950
2026-03-05 16:45 3.12 1570 2970 (2020) 935 (2019) 1990 982 1320 1480 2010 2500 2680 2950
2026-03-05 15:45 3.09 1550 2970 (2020) 935 (2019) 1990 982 1320 1480 2010 2500 2680 2950
2026-03-05 14:45 3.14 1590 2970 (2020) 935 (2019) 1990 982 1320 1480 2010 2500 2680 2950
2026-03-05 13:45 3.15 1600 2970 (2020) 935 (2019) 1990 982 1320 1480 2010 2500 2680 2950
2026-03-05 12:45 3.19 1630 2970 (2020) 935 (2019) 1990 982 1320 1480 2010 2500 2680 2950
2026-03-05 11:45 3.19 1630 2970 (2020) 935 (2019) 1990 982 1320 1480 2010 2500 2680 2950
2026-03-05 10:45 3.14 1590 2970 (2020) 935 (2019) 1990 982 1320 1480 2010 2500 2680 2950
2026-03-05 09:45 3.15 1600 2970 (2020) 935 (2019) 1990 982 1320 1480 2010 2500 2680 2950
2026-03-05 08:45 3.13 1580 2970 (2020) 935 (2019) 1990 982 1320 1480 2010 2500 2680 2950
2026-03-05 07:45 3.11 1560 2970 (2020) 935 (2019) 1990 982 1320 1480 2010 2500 2680 2950
2026-03-05 06:45 3.05 1520 2970 (2020) 935 (2019) 1990 982 1320 1480 2010 2500 2680 2950
2026-03-05 05:45 3.06 1530 2970 (2020) 935 (2019) 1990 982 1320 1480 2010 2500 2680 2950
2026-03-05 04:45 2.98 1410 2970 (2020) 935 (2019) 1990 982 1320 1480 2010 2500 2680 2950
2026-03-05 03:45 3.10 1560 2970 (2020) 935 (2019) 1990 982 1320 1480 2010 2500 2680 2950
2026-03-05 02:45 3.09 1550 2970 (2020) 935 (2019) 1990 982 1320 1480 2010 2500 2680 2950
2026-03-05 01:45 3.08 1540 2970 (2020) 935 (2019) 1990 982 1320 1480 2010 2500 2680 2950
2026-03-05 00:45 3.13 1580 2970 (2020) 935 (2019) 1990 982 1320 1480 2010 2500 2680 2950
2026-03-04 23:45 3.15 1600 2970 (2020) 935 (2019) 1990 982 1320 1480 2010 2500 2680 2950
2026-03-04 22:45 3.12 1570 2940 (2020) 865 (2019) 1910 948 1210 1300 1880 2430 2600 2900
2026-03-04 21:45 3.12 1570 2940 (2020) 865 (2019) 1910 948 1210 1300 1880 2430 2600 2900
2026-03-04 20:45 3.10 1560 2940 (2020) 865 (2019) 1910 948 1210 1300 1880 2430 2600 2900
2026-03-04 19:45 3.13 1580 2940 (2020) 865 (2019) 1910 948 1210 1300 1880 2430 2600 2900
2026-03-04 18:45 3.08 1540 2940 (2020) 865 (2019) 1910 948 1210 1300 1880 2430 2600 2900
2026-03-04 17:45 3.09 1550 2940 (2020) 865 (2019) 1910 948 1210 1300 1880 2430 2600 2900
2026-03-04 16:45 3.01 1490 2940 (2020) 865 (2019) 1910 948 1210 1300 1880 2430 2600 2900
2026-03-04 15:45 3.13 1580 2940 (2020) 865 (2019) 1910 948 1210 1300 1880 2430 2600 2900
2026-03-04 14:45 3.16 1600 2940 (2020) 865 (2019) 1910 948 1210 1300 1880 2430 2600 2900
2026-03-04 13:45 3.09 1550 2940 (2020) 865 (2019) 1910 948 1210 1300 1880 2430 2600 2900
2026-03-04 12:45 3.09 1550 2940 (2020) 865 (2019) 1910 948 1210 1300 1880 2430 2600 2900
2026-03-04 11:45 3.10 1560 2940 (2020) 865 (2019) 1910 948 1210 1300 1880 2430 2600 2900
2026-03-04 10:45 3.08 1540 2940 (2020) 865 (2019) 1910 948 1210 1300 1880 2430 2600 2900
2026-03-04 09:45 3.11 1560 2940 (2020) 865 (2019) 1910 948 1210 1300 1880 2430 2600 2900
2026-03-04 08:45 3.05 1520 2940 (2020) 865 (2019) 1910 948 1210 1300 1880 2430 2600 2900
2026-03-04 07:45 2.94 1290 2940 (2020) 865 (2019) 1910 948 1210 1300 1880 2430 2600 2900
2026-03-04 06:45 3.05 1520 2940 (2020) 865 (2019) 1910 948 1210 1300 1880 2430 2600 2900
2026-03-04 05:45 3.01 1490 2940 (2020) 865 (2019) 1910 948 1210 1300 1880 2430 2600 2900
2026-03-04 04:45 3.05 1520 2940 (2020) 865 (2019) 1910 948 1210 1300 1880 2430 2600 2900
2026-03-04 03:45 2.99 1450 2940 (2020) 865 (2019) 1910 948 1210 1300 1880 2430 2600 2900
2026-03-04 02:45 3.00 1480 2940 (2020) 865 (2019) 1910 948 1210 1300 1880 2430 2600 2900
2026-03-04 01:45 2.92 1230 2940 (2020) 865 (2019) 1910 948 1210 1300 1880 2430 2600 2900
2026-03-04 00:45 2.92 1230 2940 (2020) 865 (2019) 1910 948 1210 1300 1880 2430 2600 2900
2026-03-03 23:45 2.89 1140 2940 (2020) 865 (2019) 1910 948 1210 1300 1880 2430 2600 2900
2026-03-03 22:45 2.92 1230 3020 (2020) 957 (2019) 1880 967 1070 1270 1920 2300 2360 2850
2026-03-03 21:45 2.99 1450 3020 (2020) 957 (2019) 1880 967 1070 1270 1920 2300 2360 2850
2026-03-03 20:45 2.99 1450 3020 (2020) 957 (2019) 1880 967 1070 1270 1920 2300 2360 2850
2026-03-03 19:45 2.97 1380 3020 (2020) 957 (2019) 1880 967 1070 1270 1920 2300 2360 2850
2026-03-03 18:45 3.00 1480 3020 (2020) 957 (2019) 1880 967 1070 1270 1920 2300 2360 2850
2026-03-03 17:45 2.99 1450 3020 (2020) 957 (2019) 1880 967 1070 1270 1920 2300 2360 2850
2026-03-03 16:45 2.99 1450 3020 (2020) 957 (2019) 1880 967 1070 1270 1920 2300 2360 2850
2026-03-03 15:45 2.99 1450 3020 (2020) 957 (2019) 1880 967 1070 1270 1920 2300 2360 2850
2026-03-03 14:45 2.95 1320 3020 (2020) 957 (2019) 1880 967 1070 1270 1920 2300 2360 2850
2026-03-03 13:45 2.93 1260 3020 (2020) 957 (2019) 1880 967 1070 1270 1920 2300 2360 2850
2026-03-03 12:45 2.91 1200 3020 (2020) 957 (2019) 1880 967 1070 1270 1920 2300 2360 2850
2026-03-03 11:45 2.92 1230 3020 (2020) 957 (2019) 1880 967 1070 1270 1920 2300 2360 2850
2026-03-03 10:45 2.93 1260 3020 (2020) 957 (2019) 1880 967 1070 1270 1920 2300 2360 2850
2026-03-03 09:45 2.91 1200 3020 (2020) 957 (2019) 1880 967 1070 1270 1920 2300 2360 2850
2026-03-03 08:45 2.92 1230 3020 (2020) 957 (2019) 1880 967 1070 1270 1920 2300 2360 2850
2026-03-03 07:45 2.99 1450 3020 (2020) 957 (2019) 1880 967 1070 1270 1920 2300 2360 2850
2026-03-03 06:45 2.89 1140 3020 (2020) 957 (2019) 1880 967 1070 1270 1920 2300 2360 2850
2026-03-03 05:45 2.91 1200 3020 (2020) 957 (2019) 1880 967 1070 1270 1920 2300 2360 2850
2026-03-03 04:45 2.91 1200 3020 (2020) 957 (2019) 1880 967 1070 1270 1920 2300 2360 2850
2026-03-03 03:45 2.92 1230 3020 (2020) 957 (2019) 1880 967 1070 1270 1920 2300 2360 2850
2026-03-03 02:45 2.93 1260 3020 (2020) 957 (2019) 1880 967 1070 1270 1920 2300 2360 2850
2026-03-03 01:45 2.94 1290 3020 (2020) 957 (2019) 1880 967 1070 1270 1920 2300 2360 2850
2026-03-03 00:45 2.94 1290 3020 (2020) 957 (2019) 1880 967 1070 1270 1920 2300 2360 2850
2026-03-02 23:45 2.96 1350 3020 (2020) 957 (2019) 1880 967 1070 1270 1920 2300 2360 2850
2026-03-02 22:45 2.94 1290 3240 (2020) 955 (2014) 1980 1000 1120 1250 1880 2580 2700 3120
2026-03-02 21:45 3.02 1500 3240 (2020) 955 (2014) 1980 1000 1120 1250 1880 2580 2700 3120
2026-03-02 20:45 2.92 1230 3240 (2020) 955 (2014) 1980 1000 1120 1250 1880 2580 2700 3120
2026-03-02 19:45 2.89 1140 3240 (2020) 955 (2014) 1980 1000 1120 1250 1880 2580 2700 3120
2026-03-02 18:45 2.96 1350 3240 (2020) 955 (2014) 1980 1000 1120 1250 1880 2580 2700 3120
2026-03-02 17:45 2.96 1350 3240 (2020) 955 (2014) 1980 1000 1120 1250 1880 2580 2700 3120
2026-03-02 16:45 2.92 1230 3240 (2020) 955 (2014) 1980 1000 1120 1250 1880 2580 2700 3120
2026-03-02 15:45 3.00 1480 3240 (2020) 955 (2014) 1980 1000 1120 1250 1880 2580 2700 3120
2026-03-02 14:45 3.00 1480 3240 (2020) 955 (2014) 1980 1000 1120 1250 1880 2580 2700 3120
2026-03-02 13:45 3.01 1490 3240 (2020) 955 (2014) 1980 1000 1120 1250 1880 2580 2700 3120
2026-03-02 12:45 3.00 1480 3240 (2020) 955 (2014) 1980 1000 1120 1250 1880 2580 2700 3120
2026-03-02 11:45 3.01 1490 3240 (2020) 955 (2014) 1980 1000 1120 1250 1880 2580 2700 3120
2026-03-02 10:45 3.00 1480 3240 (2020) 955 (2014) 1980 1000 1120 1250 1880 2580 2700 3120
2026-03-02 09:45 2.97 1380 3240 (2020) 955 (2014) 1980 1000 1120 1250 1880 2580 2700 3120
2026-03-02 08:45 3.00 1480 3240 (2020) 955 (2014) 1980 1000 1120 1250 1880 2580 2700 3120
2026-03-02 07:45 2.97 1380 3240 (2020) 955 (2014) 1980 1000 1120 1250 1880 2580 2700 3120
2026-03-02 06:45 3.01 1490 3240 (2020) 955 (2014) 1980 1000 1120 1250 1880 2580 2700 3120
2026-03-02 05:45 3.00 1480 3240 (2020) 955 (2014) 1980 1000 1120 1250 1880 2580 2700 3120
2026-03-02 04:45 3.02 1500 3240 (2020) 955 (2014) 1980 1000 1120 1250 1880 2580 2700 3120
2026-03-02 03:45 3.00 1480 3240 (2020) 955 (2014) 1980 1000 1120 1250 1880 2580 2700 3120
2026-03-02 02:45 2.96 1350 3240 (2020) 955 (2014) 1980 1000 1120 1250 1880 2580 2700 3120
2026-03-02 01:45 3.01 1490 3240 (2020) 955 (2014) 1980 1000 1120 1250 1880 2580 2700 3120
2026-03-02 00:45 2.97 1380 3240 (2020) 955 (2014) 1980 1000 1120 1250 1880 2580 2700 3120
2026-03-01 23:45 2.98 1410 3240 (2020) 955 (2014) 1980 1000 1120 1250 1880 2580 2700 3120
2026-03-01 22:45 3.03 1500 2850 (2020) 1050 (2014) 1920 1070 1180 1300 1850 2420 2530 2800
2026-03-01 21:45 3.04 1510 2850 (2020) 1050 (2014) 1920 1070 1180 1300 1850 2420 2530 2800
2026-03-01 20:45 3.06 1530 2850 (2020) 1050 (2014) 1920 1070 1180 1300 1850 2420 2530 2800
2026-03-01 19:45 3.09 1550 2850 (2020) 1050 (2014) 1920 1070 1180 1300 1850 2420 2530 2800
2026-03-01 18:45 3.14 1590 2850 (2020) 1050 (2014) 1920 1070 1180 1300 1850 2420 2530 2800
2026-03-01 17:45 3.17 1610 2850 (2020) 1050 (2014) 1920 1070 1180 1300 1850 2420 2530 2800
2026-03-01 16:45 3.12 1570 2850 (2020) 1050 (2014) 1920 1070 1180 1300 1850 2420 2530 2800
2026-03-01 15:45 3.08 1540 2850 (2020) 1050 (2014) 1920 1070 1180 1300 1850 2420 2530 2800
2026-03-01 14:45 3.07 1530 2850 (2020) 1050 (2014) 1920 1070 1180 1300 1850 2420 2530 2800
2026-03-01 13:45 3.11 1560 2850 (2020) 1050 (2014) 1920 1070 1180 1300 1850 2420 2530 2800
2026-03-01 12:45 3.10 1560 2850 (2020) 1050 (2014) 1920 1070 1180 1300 1850 2420 2530 2800
2026-03-01 11:45 3.08 1540 2850 (2020) 1050 (2014) 1920 1070 1180 1300 1850 2420 2530 2800
2026-03-01 10:45 3.05 1520 2850 (2020) 1050 (2014) 1920 1070 1180 1300 1850 2420 2530 2800
2026-03-01 09:45 3.09 1550 2850 (2020) 1050 (2014) 1920 1070 1180 1300 1850 2420 2530 2800
2026-03-01 08:45 3.03 1500 2850 (2020) 1050 (2014) 1920 1070 1180 1300 1850 2420 2530 2800
2026-03-01 07:45 3.08 1540 2850 (2020) 1050 (2014) 1920 1070 1180 1300 1850 2420 2530 2800
2026-03-01 06:45 3.05 1520 2850 (2020) 1050 (2014) 1920 1070 1180 1300 1850 2420 2530 2800
2026-03-01 05:45 3.05 1520 2850 (2020) 1050 (2014) 1920 1070 1180 1300 1850 2420 2530 2800
2026-03-01 04:45 3.15 1600 2850 (2020) 1050 (2014) 1920 1070 1180 1300 1850 2420 2530 2800
2026-03-01 03:45 3.05 1520 2850 (2020) 1050 (2014) 1920 1070 1180 1300 1850 2420 2530 2800
2026-03-01 02:45 3.06 1530 2850 (2020) 1050 (2014) 1920 1070 1180 1300 1850 2420 2530 2800
2026-03-01 01:45 3.05 1520 2850 (2020) 1050 (2014) 1920 1070 1180 1300 1850 2420 2530 2800
2026-03-01 00:45 2.99 1450 2850 (2020) 1050 (2014) 1920 1070 1180 1300 1850 2420 2530 2800
2026-02-28 23:45 2.90 1170 2850 (2020) 1050 (2014) 1920 1070 1180 1300 1850 2420 2530 2800
2026-02-28 22:45 2.91 1200 2660 (2020) 1090 (2019) 1850 1100 1150 1290 1900 2300 2320 2560
2026-02-28 21:45 2.92 1230 2660 (2020) 1090 (2019) 1850 1100 1150 1290 1900 2300 2320 2560
2026-02-28 20:45 2.85 1040 2660 (2020) 1090 (2019) 1850 1100 1150 1290 1900 2300 2320 2560
2026-02-28 19:45 2.92 1230 2660 (2020) 1090 (2019) 1850 1100 1150 1290 1900 2300 2320 2560
2026-02-28 18:45 3.09 1550 2660 (2020) 1090 (2019) 1850 1100 1150 1290 1900 2300 2320 2560
2026-02-28 17:45 3.07 1530 2660 (2020) 1090 (2019) 1850 1100 1150 1290 1900 2300 2320 2560
2026-02-28 16:45 3.09 1550 2660 (2020) 1090 (2019) 1850 1100 1150 1290 1900 2300 2320 2560
2026-02-28 15:45 3.09 1550 2660 (2020) 1090 (2019) 1850 1100 1150 1290 1900 2300 2320 2560
2026-02-28 14:45 3.19 1630 2660 (2020) 1090 (2019) 1850 1100 1150 1290 1900 2300 2320 2560
2026-02-28 13:45 3.18 1620 2660 (2020) 1090 (2019) 1850 1100 1150 1290 1900 2300 2320 2560
2026-02-28 12:45 3.21 1640 2660 (2020) 1090 (2019) 1850 1100 1150 1290 1900 2300 2320 2560
2026-02-28 11:45 3.13 1580 2660 (2020) 1090 (2019) 1850 1100 1150 1290 1900 2300 2320 2560
2026-02-28 10:45 3.15 1600 2660 (2020) 1090 (2019) 1850 1100 1150 1290 1900 2300 2320 2560
2026-02-28 09:45 3.11 1560 2660 (2020) 1090 (2019) 1850 1100 1150 1290 1900 2300 2320 2560
2026-02-28 08:45 3.09 1550 2660 (2020) 1090 (2019) 1850 1100 1150 1290 1900 2300 2320 2560
2026-02-28 07:45 3.11 1560 2660 (2020) 1090 (2019) 1850 1100 1150 1290 1900 2300 2320 2560
2026-02-28 06:45 3.05 1520 2660 (2020) 1090 (2019) 1850 1100 1150 1290 1900 2300 2320 2560
2026-02-28 05:45 3.13 1580 2660 (2020) 1090 (2019) 1850 1100 1150 1290 1900 2300 2320 2560
2026-02-28 04:45 3.01 1490 2660 (2020) 1090 (2019) 1850 1100 1150 1290 1900 2300 2320 2560
2026-02-28 03:45 3.03 1500 2660 (2020) 1090 (2019) 1850 1100 1150 1290 1900 2300 2320 2560
2026-02-28 02:45 3.09 1550 2660 (2020) 1090 (2019) 1850 1100 1150 1290 1900 2300 2320 2560
2026-02-28 01:45 3.08 1540 2660 (2020) 1090 (2019) 1850 1100 1150 1290 1900 2300 2320 2560
2026-02-28 00:45 3.07 1530 2660 (2020) 1090 (2019) 1850 1100 1150 1290 1900 2300 2320 2560
2026-02-27 23:45 3.13 1580 2660 (2020) 1090 (2019) 1850 1100 1150 1290 1900 2300 2320 2560
2026-02-27 22:45 3.09 1550 2420 (2020) 1010 (2019) 1750 1040 1140 1260 1760 2090 2190 2390
2026-02-27 21:45 3.14 1590 2420 (2020) 1010 (2019) 1750 1040 1140 1260 1760 2090 2190 2390
2026-02-27 20:45 3.15 1600 2420 (2020) 1010 (2019) 1750 1040 1140 1260 1760 2090 2190 2390
2026-02-27 19:45 3.07 1530 2420 (2020) 1010 (2019) 1750 1040 1140 1260 1760 2090 2190 2390
2026-02-27 18:45 3.12 1570 2420 (2020) 1010 (2019) 1750 1040 1140 1260 1760 2090 2190 2390
2026-02-27 17:45 3.11 1560 2420 (2020) 1010 (2019) 1750 1040 1140 1260 1760 2090 2190 2390
2026-02-27 16:45 3.12 1570 2420 (2020) 1010 (2019) 1750 1040 1140 1260 1760 2090 2190 2390
2026-02-27 15:45 3.12 1570 2420 (2020) 1010 (2019) 1750 1040 1140 1260 1760 2090 2190 2390
2026-02-27 14:45 3.12 1570 2420 (2020) 1010 (2019) 1750 1040 1140 1260 1760 2090 2190 2390
2026-02-27 13:45 3.13 1580 2420 (2020) 1010 (2019) 1750 1040 1140 1260 1760 2090 2190 2390
2026-02-27 12:45 3.12 1570 2420 (2020) 1010 (2019) 1750 1040 1140 1260 1760 2090 2190 2390
2026-02-27 11:45 3.11 1560 2420 (2020) 1010 (2019) 1750 1040 1140 1260 1760 2090 2190 2390
2026-02-27 10:45 3.07 1530 2420 (2020) 1010 (2019) 1750 1040 1140 1260 1760 2090 2190 2390
2026-02-27 09:45 3.07 1530 2420 (2020) 1010 (2019) 1750 1040 1140 1260 1760 2090 2190 2390
2026-02-27 08:45 3.03 1500 2420 (2020) 1010 (2019) 1750 1040 1140 1260 1760 2090 2190 2390
2026-02-27 07:45 3.02 1500 2420 (2020) 1010 (2019) 1750 1040 1140 1260 1760 2090 2190 2390
2026-02-27 06:45 2.96 1350 2420 (2020) 1010 (2019) 1750 1040 1140 1260 1760 2090 2190 2390
2026-02-27 05:45 2.99 1450 2420 (2020) 1010 (2019) 1750 1040 1140 1260 1760 2090 2190 2390
2026-02-27 04:45 2.89 1140 2420 (2020) 1010 (2019) 1750 1040 1140 1260 1760 2090 2190 2390
2026-02-27 03:45 3.02 1500 2420 (2020) 1010 (2019) 1750 1040 1140 1260 1760 2090 2190 2390
2026-02-27 02:45 3.02 1500 2420 (2020) 1010 (2019) 1750 1040 1140 1260 1760 2090 2190 2390
2026-02-27 01:45 3.00 1480 2420 (2020) 1010 (2019) 1750 1040 1140 1260 1760 2090 2190 2390
2026-02-27 00:45 2.95 1320 2420 (2020) 1010 (2019) 1750 1040 1140 1260 1760 2090 2190 2390
2026-02-26 23:45 3.04 1510 2420 (2020) 1010 (2019) 1750 1040 1140 1260 1760 2090 2190 2390
2026-02-26 22:45 2.97 1380 2340 (2021) 966 (2019) 1690 1020 1180 1270 1670 2010 2110 2320
2026-02-26 21:45 3.00 1480 2340 (2021) 966 (2019) 1690 1020 1180 1270 1670 2010 2110 2320
2026-02-26 20:45 2.97 1380 2340 (2021) 966 (2019) 1690 1020 1180 1270 1670 2010 2110 2320
2026-02-26 19:45 3.00 1480 2340 (2021) 966 (2019) 1690 1020 1180 1270 1670 2010 2110 2320
2026-02-26 18:45 3.03 1500 2340 (2021) 966 (2019) 1690 1020 1180 1270 1670 2010 2110 2320
2026-02-26 17:45 3.02 1500 2340 (2021) 966 (2019) 1690 1020 1180 1270 1670 2010 2110 2320
2026-02-26 16:45 2.99 1450 2340 (2021) 966 (2019) 1690 1020 1180 1270 1670 2010 2110 2320
2026-02-26 15:45 3.07 1530 2340 (2021) 966 (2019) 1690 1020 1180 1270 1670 2010 2110 2320
2026-02-26 14:45 3.03 1500 2340 (2021) 966 (2019) 1690 1020 1180 1270 1670 2010 2110 2320
2026-02-26 13:45 3.00 1480 2340 (2021) 966 (2019) 1690 1020 1180 1270 1670 2010 2110 2320
2026-02-26 12:45 3.02 1500 2340 (2021) 966 (2019) 1690 1020 1180 1270 1670 2010 2110 2320
2026-02-26 11:45 3.00 1480 2340 (2021) 966 (2019) 1690 1020 1180 1270 1670 2010 2110 2320
2026-02-26 10:45 2.88 1110 2340 (2021) 966 (2019) 1690 1020 1180 1270 1670 2010 2110 2320
2026-02-26 09:45 3.00 1480 2340 (2021) 966 (2019) 1690 1020 1180 1270 1670 2010 2110 2320
2026-02-26 08:45 2.98 1410 2340 (2021) 966 (2019) 1690 1020 1180 1270 1670 2010 2110 2320
2026-02-26 07:45 3.01 1490 2340 (2021) 966 (2019) 1690 1020 1180 1270 1670 2010 2110 2320
2026-02-26 06:45 3.04 1510 2340 (2021) 966 (2019) 1690 1020 1180 1270 1670 2010 2110 2320
2026-02-26 05:45 3.08 1540 2340 (2021) 966 (2019) 1690 1020 1180 1270 1670 2010 2110 2320
2026-02-26 04:45 3.10 1560 2340 (2021) 966 (2019) 1690 1020 1180 1270 1670 2010 2110 2320
2026-02-26 03:45 3.08 1540 2340 (2021) 966 (2019) 1690 1020 1180 1270 1670 2010 2110 2320
2026-02-26 02:45 2.92 1230 2340 (2021) 966 (2019) 1690 1020 1180 1270 1670 2010 2110 2320
2026-02-26 01:45 2.91 1200 2340 (2021) 966 (2019) 1690 1020 1180 1270 1670 2010 2110 2320
2026-02-26 00:45 2.96 1350 2340 (2021) 966 (2019) 1690 1020 1180 1270 1670 2010 2110 2320
2026-02-25 23:45 3.08 1540 2340 (2021) 966 (2019) 1690 1020 1180 1270 1670 2010 2110 2320
2026-02-25 22:45 3.02 1500 2420 (2020) 890 (2019) 1630 971 1210 1280 1470 2100 2160 2360
2026-02-25 21:45 3.02 1500 2420 (2020) 890 (2019) 1630 971 1210 1280 1470 2100 2160 2360
2026-02-25 20:45 3.02 1500 2420 (2020) 890 (2019) 1630 971 1210 1280 1470 2100 2160 2360
2026-02-25 19:45 3.02 1500 2420 (2020) 890 (2019) 1630 971 1210 1280 1470 2100 2160 2360
2026-02-25 18:45 3.05 1520 2420 (2020) 890 (2019) 1630 971 1210 1280 1470 2100 2160 2360
2026-02-25 17:45 2.99 1450 2420 (2020) 890 (2019) 1630 971 1210 1280 1470 2100 2160 2360
2026-02-25 16:45 3.04 1510 2420 (2020) 890 (2019) 1630 971 1210 1280 1470 2100 2160 2360
2026-02-25 15:45 3.05 1520 2420 (2020) 890 (2019) 1630 971 1210 1280 1470 2100 2160 2360
2026-02-25 14:45 3.04 1510 2420 (2020) 890 (2019) 1630 971 1210 1280 1470 2100 2160 2360
2026-02-25 13:45 3.02 1500 2420 (2020) 890 (2019) 1630 971 1210 1280 1470 2100 2160 2360
2026-02-25 12:45 2.98 1410 2420 (2020) 890 (2019) 1630 971 1210 1280 1470 2100 2160 2360
2026-02-25 11:45 2.98 1410 2420 (2020) 890 (2019) 1630 971 1210 1280 1470 2100 2160 2360
2026-02-25 10:45 2.97 1380 2420 (2020) 890 (2019) 1630 971 1210 1280 1470 2100 2160 2360
2026-02-25 09:45 2.96 1350 2420 (2020) 890 (2019) 1630 971 1210 1280 1470 2100 2160 2360
2026-02-25 08:45 2.99 1450 2420 (2020) 890 (2019) 1630 971 1210 1280 1470 2100 2160 2360
2026-02-25 07:45 3.00 1480 2420 (2020) 890 (2019) 1630 971 1210 1280 1470 2100 2160 2360
2026-02-25 06:45 3.01 1490 2420 (2020) 890 (2019) 1630 971 1210 1280 1470 2100 2160 2360
2026-02-25 05:45 3.04 1510 2420 (2020) 890 (2019) 1630 971 1210 1280 1470 2100 2160 2360
2026-02-25 04:45 3.08 1540 2420 (2020) 890 (2019) 1630 971 1210 1280 1470 2100 2160 2360
2026-02-25 03:45 3.07 1530 2420 (2020) 890 (2019) 1630 971 1210 1280 1470 2100 2160 2360
2026-02-25 02:45 3.06 1530 2420 (2020) 890 (2019) 1630 971 1210 1280 1470 2100 2160 2360
2026-02-25 01:45 3.09 1550 2420 (2020) 890 (2019) 1630 971 1210 1280 1470 2100 2160 2360
2026-02-25 00:45 3.08 1540 2420 (2020) 890 (2019) 1630 971 1210 1280 1470 2100 2160 2360
2026-02-24 23:45 3.06 1530 2420 (2020) 890 (2019) 1630 971 1210 1280 1470 2100 2160 2360
2026-02-24 22:45 3.08 1540 2490 (2020) 1070 (2019) 1600 1080 1140 1200 1390 2140 2180 2410
2026-02-24 21:45 3.08 1540 2490 (2020) 1070 (2019) 1600 1080 1140 1200 1390 2140 2180 2410
2026-02-24 20:45 3.05 1520 2490 (2020) 1070 (2019) 1600 1080 1140 1200 1390 2140 2180 2410
2026-02-24 19:45 3.07 1530 2490 (2020) 1070 (2019) 1600 1080 1140 1200 1390 2140 2180 2410
2026-02-24 18:45 3.04 1510 2490 (2020) 1070 (2019) 1600 1080 1140 1200 1390 2140 2180 2410
2026-02-24 17:45 3.01 1490 2490 (2020) 1070 (2019) 1600 1080 1140 1200 1390 2140 2180 2410
2026-02-24 16:45 3.08 1540 2490 (2020) 1070 (2019) 1600 1080 1140 1200 1390 2140 2180 2410
2026-02-24 15:45 3.09 1550 2490 (2020) 1070 (2019) 1600 1080 1140 1200 1390 2140 2180 2410
2026-02-24 14:45 3.11 1560 2490 (2020) 1070 (2019) 1600 1080 1140 1200 1390 2140 2180 2410
2026-02-24 13:45 3.13 1580 2490 (2020) 1070 (2019) 1600 1080 1140 1200 1390 2140 2180 2410
2026-02-24 12:45 3.12 1570 2490 (2020) 1070 (2019) 1600 1080 1140 1200 1390 2140 2180 2410
2026-02-24 11:45 3.12 1570 2490 (2020) 1070 (2019) 1600 1080 1140 1200 1390 2140 2180 2410
2026-02-24 10:45 3.18 1620 2490 (2020) 1070 (2019) 1600 1080 1140 1200 1390 2140 2180 2410
2026-02-24 09:45 3.18 1620 2490 (2020) 1070 (2019) 1600 1080 1140 1200 1390 2140 2180 2410
2026-02-24 08:45 3.15 1600 2490 (2020) 1070 (2019) 1600 1080 1140 1200 1390 2140 2180 2410
2026-02-24 07:45 3.23 1660 2490 (2020) 1070 (2019) 1600 1080 1140 1200 1390 2140 2180 2410
2026-02-24 06:45 3.25 1680 2490 (2020) 1070 (2019) 1600 1080 1140 1200 1390 2140 2180 2410
2026-02-24 05:45 3.23 1660 2490 (2020) 1070 (2019) 1600 1080 1140 1200 1390 2140 2180 2410
2026-02-24 04:45 3.22 1650 2490 (2020) 1070 (2019) 1600 1080 1140 1200 1390 2140 2180 2410
2026-02-24 03:45 3.19 1630 2490 (2020) 1070 (2019) 1600 1080 1140 1200 1390 2140 2180 2410
2026-02-24 02:45 3.23 1660 2490 (2020) 1070 (2019) 1600 1080 1140 1200 1390 2140 2180 2410
2026-02-24 01:45 3.28 1700 2490 (2020) 1070 (2019) 1600 1080 1140 1200 1390 2140 2180 2410
2026-02-24 00:45 3.24 1670 2490 (2020) 1070 (2019) 1600 1080 1140 1200 1390 2140 2180 2410
2026-02-23 23:45 3.22 1650 2490 (2020) 1070 (2019) 1600 1080 1140 1200 1390 2140 2180 2410
2026-02-23 22:45 3.21 1640 2500 (2020) 1130 (2019) 1610 1140 1180 1220 1380 2170 2190 2410
2026-02-23 21:45 3.18 1620 2500 (2020) 1130 (2019) 1610 1140 1180 1220 1380 2170 2190 2410
2026-02-23 20:45 3.12 1570 2500 (2020) 1130 (2019) 1610 1140 1180 1220 1380 2170 2190 2410
2026-02-23 19:45 3.13 1580 2500 (2020) 1130 (2019) 1610 1140 1180 1220 1380 2170 2190 2410
2026-02-23 18:45 3.16 1600 2500 (2020) 1130 (2019) 1610 1140 1180 1220 1380 2170 2190 2410
2026-02-23 17:45 3.19 1630 2500 (2020) 1130 (2019) 1610 1140 1180 1220 1380 2170 2190 2410
2026-02-23 16:45 3.18 1620 2500 (2020) 1130 (2019) 1610 1140 1180 1220 1380 2170 2190 2410
2026-02-23 15:45 3.16 1600 2500 (2020) 1130 (2019) 1610 1140 1180 1220 1380 2170 2190 2410
2026-02-23 14:45 3.12 1570 2500 (2020) 1130 (2019) 1610 1140 1180 1220 1380 2170 2190 2410
2026-02-23 13:45 3.12 1570 2500 (2020) 1130 (2019) 1610 1140 1180 1220 1380 2170 2190 2410
2026-02-23 12:45 3.17 1610 2500 (2020) 1130 (2019) 1610 1140 1180 1220 1380 2170 2190 2410
2026-02-23 11:45 3.12 1570 2500 (2020) 1130 (2019) 1610 1140 1180 1220 1380 2170 2190 2410
2026-02-23 10:45 3.14 1590 2500 (2020) 1130 (2019) 1610 1140 1180 1220 1380 2170 2190 2410
2026-02-23 09:45 3.14 1590 2500 (2020) 1130 (2019) 1610 1140 1180 1220 1380 2170 2190 2410
2026-02-23 08:45 3.12 1570 2500 (2020) 1130 (2019) 1610 1140 1180 1220 1380 2170 2190 2410
2026-02-23 07:45 3.13 1580 2500 (2020) 1130 (2019) 1610 1140 1180 1220 1380 2170 2190 2410
2026-02-23 06:45 3.13 1580 2500 (2020) 1130 (2019) 1610 1140 1180 1220 1380 2170 2190 2410
2026-02-23 05:45 3.13 1580 2500 (2020) 1130 (2019) 1610 1140 1180 1220 1380 2170 2190 2410
2026-02-23 04:45 3.18 1620 2500 (2020) 1130 (2019) 1610 1140 1180 1220 1380 2170 2190 2410
2026-02-23 03:45 3.19 1630 2500 (2020) 1130 (2019) 1610 1140 1180 1220 1380 2170 2190 2410
2026-02-23 02:45 3.18 1620 2500 (2020) 1130 (2019) 1610 1140 1180 1220 1380 2170 2190 2410
2026-02-23 01:45 3.19 1630 2500 (2020) 1130 (2019) 1610 1140 1180 1220 1380 2170 2190 2410
2026-02-23 00:45 3.13 1580 2500 (2020) 1130 (2019) 1610 1140 1180 1220 1380 2170 2190 2410
2026-02-22 23:45 3.09 1550 2500 (2020) 1130 (2019) 1610 1140 1180 1220 1380 2170 2190 2410
2026-02-22 22:45 3.15 1600 2490 (2020) 1070 (2019) 1590 1080 1140 1180 1510 2000 2070 2390
2026-02-22 21:45 3.12 1570 2490 (2020) 1070 (2019) 1590 1080 1140 1180 1510 2000 2070 2390
2026-02-22 20:45 3.15 1600 2490 (2020) 1070 (2019) 1590 1080 1140 1180 1510 2000 2070 2390
2026-02-22 19:45 3.10 1560 2490 (2020) 1070 (2019) 1590 1080 1140 1180 1510 2000 2070 2390
2026-02-22 18:45 3.13 1580 2490 (2020) 1070 (2019) 1590 1080 1140 1180 1510 2000 2070 2390
2026-02-22 17:45 3.13 1580 2490 (2020) 1070 (2019) 1590 1080 1140 1180 1510 2000 2070 2390
2026-02-22 16:45 3.11 1560 2490 (2020) 1070 (2019) 1590 1080 1140 1180 1510 2000 2070 2390
2026-02-22 15:45 3.15 1600 2490 (2020) 1070 (2019) 1590 1080 1140 1180 1510 2000 2070 2390
2026-02-22 14:45 3.14 1590 2490 (2020) 1070 (2019) 1590 1080 1140 1180 1510 2000 2070 2390
2026-02-22 13:45 3.12 1570 2490 (2020) 1070 (2019) 1590 1080 1140 1180 1510 2000 2070 2390
2026-02-22 12:45 3.07 1530 2490 (2020) 1070 (2019) 1590 1080 1140 1180 1510 2000 2070 2390
2026-02-22 11:45 3.03 1500 2490 (2020) 1070 (2019) 1590 1080 1140 1180 1510 2000 2070 2390
2026-02-22 10:45 3.00 1480 2490 (2020) 1070 (2019) 1590 1080 1140 1180 1510 2000 2070 2390
2026-02-22 09:45 2.94 1290 2490 (2020) 1070 (2019) 1590 1080 1140 1180 1510 2000 2070 2390
2026-02-22 08:45 3.01 1490 2490 (2020) 1070 (2019) 1590 1080 1140 1180 1510 2000 2070 2390
2026-02-22 07:45 2.99 1450 2490 (2020) 1070 (2019) 1590 1080 1140 1180 1510 2000 2070 2390
2026-02-22 06:45 2.98 1410 2490 (2020) 1070 (2019) 1590 1080 1140 1180 1510 2000 2070 2390
2026-02-22 05:45 2.98 1410 2490 (2020) 1070 (2019) 1590 1080 1140 1180 1510 2000 2070 2390
2026-02-22 04:45 2.99 1450 2490 (2020) 1070 (2019) 1590 1080 1140 1180 1510 2000 2070 2390
2026-02-22 03:45 3.01 1490 2490 (2020) 1070 (2019) 1590 1080 1140 1180 1510 2000 2070 2390
2026-02-22 02:45 3.08 1540 2490 (2020) 1070 (2019) 1590 1080 1140 1180 1510 2000 2070 2390
2026-02-22 01:45 3.06 1530 2490 (2020) 1070 (2019) 1590 1080 1140 1180 1510 2000 2070 2390
2026-02-22 00:45 3.11 1560 2490 (2020) 1070 (2019) 1590 1080 1140 1180 1510 2000 2070 2390
2026-02-21 23:45 3.06 1530 2490 (2020) 1070 (2019) 1590 1080 1140 1180 1510 2000 2070 2390
2026-02-21 22:45 3.16 1600 2430 (2020) 992 (2019) 1560 1000 1020 1080 1530 1940 2130 2390
2026-02-21 21:45 3.18 1620 2430 (2020) 992 (2019) 1560 1000 1020 1080 1530 1940 2130 2390
2026-02-21 20:45 3.11 1560 2430 (2020) 992 (2019) 1560 1000 1020 1080 1530 1940 2130 2390
2026-02-21 19:45 3.12 1570 2430 (2020) 992 (2019) 1560 1000 1020 1080 1530 1940 2130 2390
2026-02-21 18:45 3.14 1590 2430 (2020) 992 (2019) 1560 1000 1020 1080 1530 1940 2130 2390
2026-02-21 17:45 3.15 1600 2430 (2020) 992 (2019) 1560 1000 1020 1080 1530 1940 2130 2390
2026-02-21 16:45 3.10 1560 2430 (2020) 992 (2019) 1560 1000 1020 1080 1530 1940 2130 2390
2026-02-21 15:45 3.10 1560 2430 (2020) 992 (2019) 1560 1000 1020 1080 1530 1940 2130 2390
2026-02-21 14:45 3.15 1600 2430 (2020) 992 (2019) 1560 1000 1020 1080 1530 1940 2130 2390
2026-02-21 13:45 3.07 1530 2430 (2020) 992 (2019) 1560 1000 1020 1080 1530 1940 2130 2390
2026-02-21 12:45 3.00 1480 2430 (2020) 992 (2019) 1560 1000 1020 1080 1530 1940 2130 2390
2026-02-21 11:45 2.96 1350 2430 (2020) 992 (2019) 1560 1000 1020 1080 1530 1940 2130 2390
2026-02-21 10:45 2.95 1320 2430 (2020) 992 (2019) 1560 1000 1020 1080 1530 1940 2130 2390
2026-02-21 09:45 2.97 1380 2430 (2020) 992 (2019) 1560 1000 1020 1080 1530 1940 2130 2390
2026-02-21 08:45 3.01 1490 2430 (2020) 992 (2019) 1560 1000 1020 1080 1530 1940 2130 2390
2026-02-21 07:45 3.02 1500 2430 (2020) 992 (2019) 1560 1000 1020 1080 1530 1940 2130 2390
2026-02-21 06:45 3.01 1490 2430 (2020) 992 (2019) 1560 1000 1020 1080 1530 1940 2130 2390
2026-02-21 05:45 3.03 1500 2430 (2020) 992 (2019) 1560 1000 1020 1080 1530 1940 2130 2390
2026-02-21 04:45 3.04 1510 2430 (2020) 992 (2019) 1560 1000 1020 1080 1530 1940 2130 2390
2026-02-21 03:45 3.03 1500 2430 (2020) 992 (2019) 1560 1000 1020 1080 1530 1940 2130 2390
2026-02-21 02:45 3.01 1490 2430 (2020) 992 (2019) 1560 1000 1020 1080 1530 1940 2130 2390
2026-02-21 01:45 2.96 1350 2430 (2020) 992 (2019) 1560 1000 1020 1080 1530 1940 2130 2390
2026-02-21 00:45 2.97 1380 2430 (2020) 992 (2019) 1560 1000 1020 1080 1530 1940 2130 2390
2026-02-20 23:45 2.93 1260 2430 (2020) 992 (2019) 1560 1000 1020 1080 1530 1940 2130 2390
2026-02-20 22:45 2.95 1320 2340 (2017) 1000 (2025) 1570 1020 1200 1310 1410 1890 2110 2340
2026-02-20 21:45 2.92 1230 2340 (2017) 1000 (2025) 1570 1020 1200 1310 1410 1890 2110 2340
2026-02-20 20:45 2.94 1290 2340 (2017) 1000 (2025) 1570 1020 1200 1310 1410 1890 2110 2340
2026-02-20 19:45 2.95 1320 2340 (2017) 1000 (2025) 1570 1020 1200 1310 1410 1890 2110 2340
2026-02-20 18:45 2.90 1170 2340 (2017) 1000 (2025) 1570 1020 1200 1310 1410 1890 2110 2340
2026-02-20 17:45 2.98 1410 2340 (2017) 1000 (2025) 1570 1020 1200 1310 1410 1890 2110 2340
2026-02-20 16:45 2.98 1410 2340 (2017) 1000 (2025) 1570 1020 1200 1310 1410 1890 2110 2340
2026-02-20 15:45 3.00 1480 2340 (2017) 1000 (2025) 1570 1020 1200 1310 1410 1890 2110 2340
2026-02-20 14:45 2.96 1350 2340 (2017) 1000 (2025) 1570 1020 1200 1310 1410 1890 2110 2340
2026-02-20 13:45 2.99 1450 2340 (2017) 1000 (2025) 1570 1020 1200 1310 1410 1890 2110 2340
2026-02-20 12:45 2.97 1380 2340 (2017) 1000 (2025) 1570 1020 1200 1310 1410 1890 2110 2340
2026-02-20 11:45 3.02 1500 2340 (2017) 1000 (2025) 1570 1020 1200 1310 1410 1890 2110 2340
2026-02-20 10:45 3.02 1500 2340 (2017) 1000 (2025) 1570 1020 1200 1310 1410 1890 2110 2340
2026-02-20 09:45 3.05 1520 2340 (2017) 1000 (2025) 1570 1020 1200 1310 1410 1890 2110 2340
2026-02-20 08:45 3.05 1520 2340 (2017) 1000 (2025) 1570 1020 1200 1310 1410 1890 2110 2340
2026-02-20 07:45 3.02 1500 2340 (2017) 1000 (2025) 1570 1020 1200 1310 1410 1890 2110 2340
2026-02-20 06:45 3.00 1480 2340 (2017) 1000 (2025) 1570 1020 1200 1310 1410 1890 2110 2340
2026-02-20 05:45 3.01 1490 2340 (2017) 1000 (2025) 1570 1020 1200 1310 1410 1890 2110 2340
2026-02-20 04:45 2.99 1450 2340 (2017) 1000 (2025) 1570 1020 1200 1310 1410 1890 2110 2340
2026-02-20 03:45 2.97 1380 2340 (2017) 1000 (2025) 1570 1020 1200 1310 1410 1890 2110 2340
2026-02-20 02:45 2.97 1380 2340 (2017) 1000 (2025) 1570 1020 1200 1310 1410 1890 2110 2340
2026-02-20 01:45 2.94 1290 2340 (2017) 1000 (2025) 1570 1020 1200 1310 1410 1890 2110 2340
2026-02-20 00:45 2.92 1230 2340 (2017) 1000 (2025) 1570 1020 1200 1310 1410 1890 2110 2340
2026-02-19 23:45 2.93 1260 2340 (2017) 1000 (2025) 1570 1020 1200 1310 1410 1890 2110 2340
2026-02-19 22:45 2.93 1260 2320 (2017) 991 (2019) 1590 1000 1140 1240 1470 2110 2280 2320
2026-02-19 21:45 2.93 1260 2320 (2017) 991 (2019) 1590 1000 1140 1240 1470 2110 2280 2320
2026-02-19 20:45 2.93 1260 2320 (2017) 991 (2019) 1590 1000 1140 1240 1470 2110 2280 2320
2026-02-19 19:45 2.89 1140 2320 (2017) 991 (2019) 1590 1000 1140 1240 1470 2110 2280 2320
2026-02-19 18:45 2.90 1170 2320 (2017) 991 (2019) 1590 1000 1140 1240 1470 2110 2280 2320
2026-02-19 17:45 2.88 1110 2320 (2017) 991 (2019) 1590 1000 1140 1240 1470 2110 2280 2320
2026-02-19 16:45 2.90 1170 2320 (2017) 991 (2019) 1590 1000 1140 1240 1470 2110 2280 2320
2026-02-19 15:45 2.88 1110 2320 (2017) 991 (2019) 1590 1000 1140 1240 1470 2110 2280 2320
2026-02-19 14:45 2.97 1380 2320 (2017) 991 (2019) 1590 1000 1140 1240 1470 2110 2280 2320
2026-02-19 13:45 2.96 1350 2320 (2017) 991 (2019) 1590 1000 1140 1240 1470 2110 2280 2320
2026-02-19 12:45 2.94 1290 2320 (2017) 991 (2019) 1590 1000 1140 1240 1470 2110 2280 2320
2026-02-19 11:45 2.89 1140 2320 (2017) 991 (2019) 1590 1000 1140 1240 1470 2110 2280 2320
2026-02-19 10:45 2.94 1290 2320 (2017) 991 (2019) 1590 1000 1140 1240 1470 2110 2280 2320
2026-02-19 09:45 2.92 1230 2320 (2017) 991 (2019) 1590 1000 1140 1240 1470 2110 2280 2320
2026-02-19 08:45 2.98 1410 2320 (2017) 991 (2019) 1590 1000 1140 1240 1470 2110 2280 2320
2026-02-19 07:45 2.96 1350 2320 (2017) 991 (2019) 1590 1000 1140 1240 1470 2110 2280 2320
2026-02-19 06:45 2.95 1320 2320 (2017) 991 (2019) 1590 1000 1140 1240 1470 2110 2280 2320
2026-02-19 05:45 2.93 1260 2320 (2017) 991 (2019) 1590 1000 1140 1240 1470 2110 2280 2320
2026-02-19 04:45 2.89 1140 2320 (2017) 991 (2019) 1590 1000 1140 1240 1470 2110 2280 2320
2026-02-19 03:45 2.89 1140 2320 (2017) 991 (2019) 1590 1000 1140 1240 1470 2110 2280 2320
2026-02-19 02:45 2.90 1170 2320 (2017) 991 (2019) 1590 1000 1140 1240 1470 2110 2280 2320
2026-02-19 01:45 2.93 1260 2320 (2017) 991 (2019) 1590 1000 1140 1240 1470 2110 2280 2320
2026-02-19 00:45 2.89 1140 2320 (2017) 991 (2019) 1590 1000 1140 1240 1470 2110 2280 2320
2026-02-18 23:45 2.89 1140 2320 (2017) 991 (2019) 1590 1000 1140 1240 1470 2110 2280 2320
2026-02-18 22:45 2.94 1290 2410 (2024) 934 (2019) 1590 966 1110 1200 1450 2140 2340 2400
2026-02-18 21:45 2.93 1260 2410 (2024) 934 (2019) 1590 966 1110 1200 1450 2140 2340 2400
2026-02-18 20:45 2.98 1410 2410 (2024) 934 (2019) 1590 966 1110 1200 1450 2140 2340 2400
2026-02-18 19:45 3.00 1480 2410 (2024) 934 (2019) 1590 966 1110 1200 1450 2140 2340 2400
2026-02-18 18:45 3.02 1500 2410 (2024) 934 (2019) 1590 966 1110 1200 1450 2140 2340 2400
2026-02-18 17:45 3.03 1500 2410 (2024) 934 (2019) 1590 966 1110 1200 1450 2140 2340 2400
2026-02-18 16:45 3.05 1520 2410 (2024) 934 (2019) 1590 966 1110 1200 1450 2140 2340 2400
2026-02-18 15:45 3.02 1500 2410 (2024) 934 (2019) 1590 966 1110 1200 1450 2140 2340 2400
2026-02-18 14:45 3.02 1500 2410 (2024) 934 (2019) 1590 966 1110 1200 1450 2140 2340 2400
2026-02-18 13:45 3.03 1500 2410 (2024) 934 (2019) 1590 966 1110 1200 1450 2140 2340 2400
2026-02-18 12:45 3.05 1520 2410 (2024) 934 (2019) 1590 966 1110 1200 1450 2140 2340 2400
2026-02-18 11:45 3.05 1520 2410 (2024) 934 (2019) 1590 966 1110 1200 1450 2140 2340 2400
2026-02-18 10:45 3.06 1530 2410 (2024) 934 (2019) 1590 966 1110 1200 1450 2140 2340 2400
2026-02-18 09:45 3.06 1530 2410 (2024) 934 (2019) 1590 966 1110 1200 1450 2140 2340 2400
2026-02-18 08:45 3.06 1530 2410 (2024) 934 (2019) 1590 966 1110 1200 1450 2140 2340 2400
2026-02-18 07:45 3.08 1540 2410 (2024) 934 (2019) 1590 966 1110 1200 1450 2140 2340 2400
2026-02-18 06:45 3.08 1540 2410 (2024) 934 (2019) 1590 966 1110 1200 1450 2140 2340 2400
2026-02-18 05:45 3.10 1560 2410 (2024) 934 (2019) 1590 966 1110 1200 1450 2140 2340 2400
2026-02-18 04:45 3.09 1550 2410 (2024) 934 (2019) 1590 966 1110 1200 1450 2140 2340 2400
2026-02-18 03:45 3.10 1560 2410 (2024) 934 (2019) 1590 966 1110 1200 1450 2140 2340 2400
2026-02-18 02:45 3.10 1560 2410 (2024) 934 (2019) 1590 966 1110 1200 1450 2140 2340 2400
2026-02-18 01:45 3.11 1560 2410 (2024) 934 (2019) 1590 966 1110 1200 1450 2140 2340 2400
2026-02-18 00:45 3.14 1590 2410 (2024) 934 (2019) 1590 966 1110 1200 1450 2140 2340 2400
2026-02-17 23:45 3.12 1570 2410 (2024) 934 (2019) 1590 966 1110 1200 1450 2140 2340 2400
2026-02-17 22:45 3.12 1570 2430 (2020) 1040 (2019) 1610 1050 1110 1190 1480 2110 2300 2410
2026-02-17 21:45 3.17 1610 2430 (2020) 1040 (2019) 1610 1050 1110 1190 1480 2110 2300 2410
2026-02-17 20:45 3.16 1600 2430 (2020) 1040 (2019) 1610 1050 1110 1190 1480 2110 2300 2410
2026-02-17 19:45 3.17 1610 2430 (2020) 1040 (2019) 1610 1050 1110 1190 1480 2110 2300 2410
2026-02-17 18:45 3.17 1610 2430 (2020) 1040 (2019) 1610 1050 1110 1190 1480 2110 2300 2410
2026-02-17 17:45 3.19 1630 2430 (2020) 1040 (2019) 1610 1050 1110 1190 1480 2110 2300 2410
2026-02-17 16:45 3.21 1640 2430 (2020) 1040 (2019) 1610 1050 1110 1190 1480 2110 2300 2410
2026-02-17 15:45 3.22 1650 2430 (2020) 1040 (2019) 1610 1050 1110 1190 1480 2110 2300 2410
2026-02-17 14:45 3.22 1650 2430 (2020) 1040 (2019) 1610 1050 1110 1190 1480 2110 2300 2410
2026-02-17 13:45 3.21 1640 2430 (2020) 1040 (2019) 1610 1050 1110 1190 1480 2110 2300 2410
2026-02-17 12:45 3.21 1640 2430 (2020) 1040 (2019) 1610 1050 1110 1190 1480 2110 2300 2410
2026-02-17 11:45 3.19 1630 2430 (2020) 1040 (2019) 1610 1050 1110 1190 1480 2110 2300 2410
2026-02-17 10:45 3.19 1630 2430 (2020) 1040 (2019) 1610 1050 1110 1190 1480 2110 2300 2410
2026-02-17 09:45 3.20 1630 2430 (2020) 1040 (2019) 1610 1050 1110 1190 1480 2110 2300 2410
2026-02-17 08:45 3.20 1630 2430 (2020) 1040 (2019) 1610 1050 1110 1190 1480 2110 2300 2410
2026-02-17 07:45 3.20 1630 2430 (2020) 1040 (2019) 1610 1050 1110 1190 1480 2110 2300 2410
2026-02-17 06:45 3.21 1640 2430 (2020) 1040 (2019) 1610 1050 1110 1190 1480 2110 2300 2410
2026-02-17 05:45 3.23 1660 2430 (2020) 1040 (2019) 1610 1050 1110 1190 1480 2110 2300 2410
2026-02-17 04:45 3.23 1660 2430 (2020) 1040 (2019) 1610 1050 1110 1190 1480 2110 2300 2410
2026-02-17 03:45 3.25 1680 2430 (2020) 1040 (2019) 1610 1050 1110 1190 1480 2110 2300 2410
2026-02-17 02:45 3.21 1640 2430 (2020) 1040 (2019) 1610 1050 1110 1190 1480 2110 2300 2410
2026-02-17 01:45 3.22 1650 2430 (2020) 1040 (2019) 1610 1050 1110 1190 1480 2110 2300 2410
2026-02-17 00:45 3.21 1640 2430 (2020) 1040 (2019) 1610 1050 1110 1190 1480 2110 2300 2410
2026-02-16 23:45 3.23 1660 2430 (2020) 1040 (2019) 1610 1050 1110 1190 1480 2110 2300 2410
2026-02-16 22:45 3.22 1650 2510 (2020) 1100 (2025) 1650 1110 1130 1150 1550 2110 2300 2480
2026-02-16 21:45 3.26 1680 2510 (2020) 1100 (2025) 1650 1110 1130 1150 1550 2110 2300 2480
2026-02-16 20:45 3.25 1680 2510 (2020) 1100 (2025) 1650 1110 1130 1150 1550 2110 2300 2480
2026-02-16 19:45 3.27 1690 2510 (2020) 1100 (2025) 1650 1110 1130 1150 1550 2110 2300 2480
2026-02-16 18:45 3.26 1680 2510 (2020) 1100 (2025) 1650 1110 1130 1150 1550 2110 2300 2480
2026-02-16 17:45 3.28 1700 2510 (2020) 1100 (2025) 1650 1110 1130 1150 1550 2110 2300 2480
2026-02-16 16:45 3.29 1710 2510 (2020) 1100 (2025) 1650 1110 1130 1150 1550 2110 2300 2480
2026-02-16 15:45 3.29 1710 2510 (2020) 1100 (2025) 1650 1110 1130 1150 1550 2110 2300 2480
2026-02-16 14:45 3.26 1680 2510 (2020) 1100 (2025) 1650 1110 1130 1150 1550 2110 2300 2480
2026-02-16 13:45 3.24 1670 2510 (2020) 1100 (2025) 1650 1110 1130 1150 1550 2110 2300 2480
2026-02-16 12:45 3.23 1660 2510 (2020) 1100 (2025) 1650 1110 1130 1150 1550 2110 2300 2480
2026-02-16 11:45 3.24 1670 2510 (2020) 1100 (2025) 1650 1110 1130 1150 1550 2110 2300 2480
2026-02-16 10:45 3.23 1660 2510 (2020) 1100 (2025) 1650 1110 1130 1150 1550 2110 2300 2480
2026-02-16 09:45 3.22 1650 2510 (2020) 1100 (2025) 1650 1110 1130 1150 1550 2110 2300 2480
2026-02-16 08:45 3.18 1620 2510 (2020) 1100 (2025) 1650 1110 1130 1150 1550 2110 2300 2480
2026-02-16 07:45 3.14 2510 (2020) 1100 (2025) 1650 1110 1130 1150 1550 2110 2300 2480
2026-02-16 06:45 3.14 2510 (2020) 1100 (2025) 1650 1110 1130 1150 1550 2110 2300 2480
2026-02-16 05:45 3.15 2510 (2020) 1100 (2025) 1650 1110 1130 1150 1550 2110 2300 2480
2026-02-16 04:45 3.18 2510 (2020) 1100 (2025) 1650 1110 1130 1150 1550 2110 2300 2480
2026-02-16 03:45 3.21 2510 (2020) 1100 (2025) 1650 1110 1130 1150 1550 2110 2300 2480
2026-02-16 02:45 3.19 2510 (2020) 1100 (2025) 1650 1110 1130 1150 1550 2110 2300 2480
2026-02-16 01:45 3.15 2510 (2020) 1100 (2025) 1650 1110 1130 1150 1550 2110 2300 2480
2026-02-16 00:45 3.09 2510 (2020) 1100 (2025) 1650 1110 1130 1150 1550 2110 2300 2480
2026-02-15 23:45 3.08 2510 (2020) 1100 (2025) 1650 1110 1130 1150 1550 2110 2300 2480
2026-02-15 22:45 3.01 2570 (2020) 1100 (2021) 1650 1110 1140 1170 1550 2080 2260 2510
2026-02-15 21:45 3.06 2570 (2020) 1100 (2021) 1650 1110 1140 1170 1550 2080 2260 2510
2026-02-15 20:45 3.07 2570 (2020) 1100 (2021) 1650 1110 1140 1170 1550 2080 2260 2510
2026-02-15 19:45 3.07 2570 (2020) 1100 (2021) 1650 1110 1140 1170 1550 2080 2260 2510
2026-02-15 18:45 3.06 2570 (2020) 1100 (2021) 1650 1110 1140 1170 1550 2080 2260 2510
2026-02-15 17:45 3.08 2570 (2020) 1100 (2021) 1650 1110 1140 1170 1550 2080 2260 2510
2026-02-15 16:45 3.09 2570 (2020) 1100 (2021) 1650 1110 1140 1170 1550 2080 2260 2510
2026-02-15 15:45 3.12 2570 (2020) 1100 (2021) 1650 1110 1140 1170 1550 2080 2260 2510
2026-02-15 14:45 3.13 2570 (2020) 1100 (2021) 1650 1110 1140 1170 1550 2080 2260 2510
2026-02-15 13:45 3.14 2570 (2020) 1100 (2021) 1650 1110 1140 1170 1550 2080 2260 2510
2026-02-15 12:45 3.17 2570 (2020) 1100 (2021) 1650 1110 1140 1170 1550 2080 2260 2510
2026-02-15 11:45 3.14 2570 (2020) 1100 (2021) 1650 1110 1140 1170 1550 2080 2260 2510
2026-02-15 10:45 3.16 2570 (2020) 1100 (2021) 1650 1110 1140 1170 1550 2080 2260 2510
2026-02-15 09:45 3.17 2570 (2020) 1100 (2021) 1650 1110 1140 1170 1550 2080 2260 2510
2026-02-15 08:45 3.20 2570 (2020) 1100 (2021) 1650 1110 1140 1170 1550 2080 2260 2510
2026-02-15 07:45 3.19 2570 (2020) 1100 (2021) 1650 1110 1140 1170 1550 2080 2260 2510
2026-02-15 06:45 3.19 2570 (2020) 1100 (2021) 1650 1110 1140 1170 1550 2080 2260 2510
2026-02-15 05:45 3.17 2570 (2020) 1100 (2021) 1650 1110 1140 1170 1550 2080 2260 2510
2026-02-15 04:45 3.18 2570 (2020) 1100 (2021) 1650 1110 1140 1170 1550 2080 2260 2510
2026-02-15 03:45 3.21 2570 (2020) 1100 (2021) 1650 1110 1140 1170 1550 2080 2260 2510
2026-02-15 02:45 3.21 2570 (2020) 1100 (2021) 1650 1110 1140 1170 1550 2080 2260 2510
2026-02-15 01:45 3.24 2570 (2020) 1100 (2021) 1650 1110 1140 1170 1550 2080 2260 2510
2026-02-15 00:45 3.26 2570 (2020) 1100 (2021) 1650 1110 1140 1170 1550 2080 2260 2510
2026-02-14 23:45 3.26 2570 (2020) 1100 (2021) 1650 1110 1140 1170 1550 2080 2260 2510
2026-02-14 22:45 3.30 2590 (2020) 1020 (2014) 1620 1060 1200 1260 1510 1960 2130 2490
2026-02-14 21:45 3.31 2590 (2020) 1020 (2014) 1620 1060 1200 1260 1510 1960 2130 2490
2026-02-14 20:45 3.27 2590 (2020) 1020 (2014) 1620 1060 1200 1260 1510 1960 2130 2490
2026-02-14 19:45 3.28 2590 (2020) 1020 (2014) 1620 1060 1200 1260 1510 1960 2130 2490
2026-02-14 18:45 3.24 2590 (2020) 1020 (2014) 1620 1060 1200 1260 1510 1960 2130 2490
2026-02-14 17:45 3.25 2590 (2020) 1020 (2014) 1620 1060 1200 1260 1510 1960 2130 2490
2026-02-14 16:45 3.21 2590 (2020) 1020 (2014) 1620 1060 1200 1260 1510 1960 2130 2490
2026-02-14 15:45 3.19 2590 (2020) 1020 (2014) 1620 1060 1200 1260 1510 1960 2130 2490
2026-02-14 14:45 3.23 2590 (2020) 1020 (2014) 1620 1060 1200 1260 1510 1960 2130 2490
2026-02-14 13:45 3.24 2590 (2020) 1020 (2014) 1620 1060 1200 1260 1510 1960 2130 2490
2026-02-14 12:45 3.20 2590 (2020) 1020 (2014) 1620 1060 1200 1260 1510 1960 2130 2490
2026-02-14 11:45 3.20 2590 (2020) 1020 (2014) 1620 1060 1200 1260 1510 1960 2130 2490
2026-02-14 10:45 3.18 2590 (2020) 1020 (2014) 1620 1060 1200 1260 1510 1960 2130 2490
2026-02-14 09:45 3.22 2590 (2020) 1020 (2014) 1620 1060 1200 1260 1510 1960 2130 2490
2026-02-14 08:45 3.23 2590 (2020) 1020 (2014) 1620 1060 1200 1260 1510 1960 2130 2490
2026-02-14 07:45 3.26 2590 (2020) 1020 (2014) 1620 1060 1200 1260 1510 1960 2130 2490
2026-02-14 06:45 3.26 2590 (2020) 1020 (2014) 1620 1060 1200 1260 1510 1960 2130 2490
2026-02-14 05:45 3.24 2590 (2020) 1020 (2014) 1620 1060 1200 1260 1510 1960 2130 2490
2026-02-14 04:45 3.20 2590 (2020) 1020 (2014) 1620 1060 1200 1260 1510 1960 2130 2490
2026-02-14 03:45 3.20 2590 (2020) 1020 (2014) 1620 1060 1200 1260 1510 1960 2130 2490
2026-02-14 02:45 3.19 2590 (2020) 1020 (2014) 1620 1060 1200 1260 1510 1960 2130 2490
2026-02-14 01:45 3.19 2590 (2020) 1020 (2014) 1620 1060 1200 1260 1510 1960 2130 2490
2026-02-14 00:45 3.20 2590 (2020) 1020 (2014) 1620 1060 1200 1260 1510 1960 2130 2490
2026-02-13 23:45 3.18 2590 (2020) 1020 (2014) 1620 1060 1200 1260 1510 1960 2130 2490
2026-02-13 22:45 3.20 2400 (2024) 983 (2014) 1600 1010 1150 1190 1610 1900 2120 2390
2026-02-13 21:45 3.23 2400 (2024) 983 (2014) 1600 1010 1150 1190 1610 1900 2120 2390
2026-02-13 20:45 3.25 2400 (2024) 983 (2014) 1600 1010 1150 1190 1610 1900 2120 2390
2026-02-13 19:45 3.26 2400 (2024) 983 (2014) 1600 1010 1150 1190 1610 1900 2120 2390
2026-02-13 18:45 3.25 2400 (2024) 983 (2014) 1600 1010 1150 1190 1610 1900 2120 2390
2026-02-13 17:45 3.26 2400 (2024) 983 (2014) 1600 1010 1150 1190 1610 1900 2120 2390
2026-02-13 16:45 3.27 2400 (2024) 983 (2014) 1600 1010 1150 1190 1610 1900 2120 2390
2026-02-13 15:45 3.28 2400 (2024) 983 (2014) 1600 1010 1150 1190 1610 1900 2120 2390
2026-02-13 14:45 3.26 2400 (2024) 983 (2014) 1600 1010 1150 1190 1610 1900 2120 2390
2026-02-13 13:45 3.23 2400 (2024) 983 (2014) 1600 1010 1150 1190 1610 1900 2120 2390
2026-02-13 12:45 3.25 2400 (2024) 983 (2014) 1600 1010 1150 1190 1610 1900 2120 2390
2026-02-13 11:45 3.26 2400 (2024) 983 (2014) 1600 1010 1150 1190 1610 1900 2120 2390
2026-02-13 10:45 3.23 2400 (2024) 983 (2014) 1600 1010 1150 1190 1610 1900 2120 2390
2026-02-13 09:45 3.30 2400 (2024) 983 (2014) 1600 1010 1150 1190 1610 1900 2120 2390
2026-02-13 08:45 3.32 2400 (2024) 983 (2014) 1600 1010 1150 1190 1610 1900 2120 2390
2026-02-13 07:45 3.32 2400 (2024) 983 (2014) 1600 1010 1150 1190 1610 1900 2120 2390
2026-02-13 06:45 3.31 2400 (2024) 983 (2014) 1600 1010 1150 1190 1610 1900 2120 2390
2026-02-13 05:45 3.30 2400 (2024) 983 (2014) 1600 1010 1150 1190 1610 1900 2120 2390
2026-02-13 04:45 3.31 2400 (2024) 983 (2014) 1600 1010 1150 1190 1610 1900 2120 2390
2026-02-13 03:45 3.29 2400 (2024) 983 (2014) 1600 1010 1150 1190 1610 1900 2120 2390
2026-02-13 02:45 3.30 2400 (2024) 983 (2014) 1600 1010 1150 1190 1610 1900 2120 2390
2026-02-13 01:45 3.28 2400 (2024) 983 (2014) 1600 1010 1150 1190 1610 1900 2120 2390
2026-02-13 00:45 3.26 2400 (2024) 983 (2014) 1600 1010 1150 1190 1610 1900 2120 2390
2026-02-12 23:45 3.25 2400 (2024) 983 (2014) 1600 1010 1150 1190 1610 1900 2120 2390
2026-02-12 22:45 3.24 2450 (2024) 950 (2014) 1610 992 1130 1170 1630 1930 2170 2440
2026-02-12 21:45 3.24 2450 (2024) 950 (2014) 1610 992 1130 1170 1630 1930 2170 2440
2026-02-12 20:45 3.26 2450 (2024) 950 (2014) 1610 992 1130 1170 1630 1930 2170 2440
2026-02-12 19:45 3.38 2450 (2024) 950 (2014) 1610 992 1130 1170 1630 1930 2170 2440
2026-02-12 18:45 3.38 2450 (2024) 950 (2014) 1610 992 1130 1170 1630 1930 2170 2440
2026-02-12 17:45 3.42 2450 (2024) 950 (2014) 1610 992 1130 1170 1630 1930 2170 2440
2026-02-12 16:45 3.44 2450 (2024) 950 (2014) 1610 992 1130 1170 1630 1930 2170 2440
2026-02-12 15:45 3.49 2450 (2024) 950 (2014) 1610 992 1130 1170 1630 1930 2170 2440
2026-02-12 14:45 3.62 2450 (2024) 950 (2014) 1610 992 1130 1170 1630 1930 2170 2440
2026-02-12 13:45 3.71 2450 (2024) 950 (2014) 1610 992 1130 1170 1630 1930 2170 2440
2026-02-12 12:45 3.79 2450 (2024) 950 (2014) 1610 992 1130 1170 1630 1930 2170 2440
2026-02-12 11:45 3.92 2450 (2024) 950 (2014) 1610 992 1130 1170 1630 1930 2170 2440
2026-02-12 10:45 3.95 2450 (2024) 950 (2014) 1610 992 1130 1170 1630 1930 2170 2440
2026-02-12 09:45 3.98 2450 (2024) 950 (2014) 1610 992 1130 1170 1630 1930 2170 2440
2026-02-12 08:45 3.99 2450 (2024) 950 (2014) 1610 992 1130 1170 1630 1930 2170 2440
2026-02-12 07:45 3.97 2450 (2024) 950 (2014) 1610 992 1130 1170 1630 1930 2170 2440
2026-02-12 06:45 3.95 2450 (2024) 950 (2014) 1610 992 1130 1170 1630 1930 2170 2440
2026-02-12 05:45 3.86 2450 (2024) 950 (2014) 1610 992 1130 1170 1630 1930 2170 2440
2026-02-12 04:45 3.86 2450 (2024) 950 (2014) 1610 992 1130 1170 1630 1930 2170 2440
2026-02-12 03:45 3.86 2450 (2024) 950 (2014) 1610 992 1130 1170 1630 1930 2170 2440
2026-02-12 02:45 3.88 2450 (2024) 950 (2014) 1610 992 1130 1170 1630 1930 2170 2440
2026-02-12 01:45 3.94 2450 (2024) 950 (2014) 1610 992 1130 1170 1630 1930 2170 2440
2026-02-12 00:45 3.92 2450 (2024) 950 (2014) 1610 992 1130 1170 1630 1930 2170 2440
2026-02-11 23:45 3.98 2450 (2024) 950 (2014) 1610 992 1130 1170 1630 1930 2170 2440
2026-02-11 22:45 3.96 2650 (2024) 909 (2014) 1590 969 1130 1160 1570 1740 2040 2600
2026-02-11 21:45 4.03 2650 (2024) 909 (2014) 1590 969 1130 1160 1570 1740 2040 2600
2026-02-11 20:45 3.98 2650 (2024) 909 (2014) 1590 969 1130 1160 1570 1740 2040 2600
2026-02-11 19:45 3.91 2650 (2024) 909 (2014) 1590 969 1130 1160 1570 1740 2040 2600
2026-02-11 18:45 3.73 2650 (2024) 909 (2014) 1590 969 1130 1160 1570 1740 2040 2600
2026-02-11 17:45 3.89 2650 (2024) 909 (2014) 1590 969 1130 1160 1570 1740 2040 2600
2026-02-11 16:45 4.03 2650 (2024) 909 (2014) 1590 969 1130 1160 1570 1740 2040 2600
2026-02-11 15:45 3.87 2650 (2024) 909 (2014) 1590 969 1130 1160 1570 1740 2040 2600
2026-02-11 14:45 4.06 2650 (2024) 909 (2014) 1590 969 1130 1160 1570 1740 2040 2600
2026-02-11 13:45 4.09 2650 (2024) 909 (2014) 1590 969 1130 1160 1570 1740 2040 2600
2026-02-11 12:45 4.13 2650 (2024) 909 (2014) 1590 969 1130 1160 1570 1740 2040 2600
2026-02-11 11:45 4.03 2650 (2024) 909 (2014) 1590 969 1130 1160 1570 1740 2040 2600
2026-02-11 10:45 4.03 2650 (2024) 909 (2014) 1590 969 1130 1160 1570 1740 2040 2600
2026-02-11 09:45 4.01 2650 (2024) 909 (2014) 1590 969 1130 1160 1570 1740 2040 2600
2026-02-11 08:45 4.00 2650 (2024) 909 (2014) 1590 969 1130 1160 1570 1740 2040 2600
2026-02-11 07:45 4.02 2650 (2024) 909 (2014) 1590 969 1130 1160 1570 1740 2040 2600
2026-02-11 06:45 3.91 2650 (2024) 909 (2014) 1590 969 1130 1160 1570 1740 2040 2600
2026-02-11 05:45 3.86 2650 (2024) 909 (2014) 1590 969 1130 1160 1570 1740 2040 2600
2026-02-11 04:45 3.84 2650 (2024) 909 (2014) 1590 969 1130 1160 1570 1740 2040 2600
2026-02-11 03:45 3.79 2650 (2024) 909 (2014) 1590 969 1130 1160 1570 1740 2040 2600
2026-02-11 02:45 3.83 2650 (2024) 909 (2014) 1590 969 1130 1160 1570 1740 2040 2600
2026-02-11 01:45 3.89 2650 (2024) 909 (2014) 1590 969 1130 1160 1570 1740 2040 2600
2026-02-11 00:45 3.82 2650 (2024) 909 (2014) 1590 969 1130 1160 1570 1740 2040 2600
2026-02-10 23:45 3.87 2650 (2024) 909 (2014) 1590 969 1130 1160 1570 1740 2040 2600
2026-02-10 22:45 3.80 2630 (2024) 884 (2014) 1580 940 1120 1170 1530 1780 2040 2560
2026-02-10 21:45 3.86 2630 (2024) 884 (2014) 1580 940 1120 1170 1530 1780 2040 2560
2026-02-10 20:45 4.01 2630 (2024) 884 (2014) 1580 940 1120 1170 1530 1780 2040 2560
2026-02-10 19:45 4.03 2630 (2024) 884 (2014) 1580 940 1120 1170 1530 1780 2040 2560
2026-02-10 18:45 4.12 2630 (2024) 884 (2014) 1580 940 1120 1170 1530 1780 2040 2560
2026-02-10 17:45 4.19 2630 (2024) 884 (2014) 1580 940 1120 1170 1530 1780 2040 2560
2026-02-10 16:45 4.03 2630 (2024) 884 (2014) 1580 940 1120 1170 1530 1780 2040 2560
2026-02-10 15:45 4.05 2630 (2024) 884 (2014) 1580 940 1120 1170 1530 1780 2040 2560
2026-02-10 14:45 3.97 2630 (2024) 884 (2014) 1580 940 1120 1170 1530 1780 2040 2560
2026-02-10 13:45 3.82 2630 (2024) 884 (2014) 1580 940 1120 1170 1530 1780 2040 2560
2026-02-10 12:45 3.79 2630 (2024) 884 (2014) 1580 940 1120 1170 1530 1780 2040 2560
2026-02-10 11:45 3.72 2630 (2024) 884 (2014) 1580 940 1120 1170 1530 1780 2040 2560
2026-02-10 10:45 3.72 2630 (2024) 884 (2014) 1580 940 1120 1170 1530 1780 2040 2560
2026-02-10 09:45 3.70 2630 (2024) 884 (2014) 1580 940 1120 1170 1530 1780 2040 2560
2026-02-10 08:45 3.75 2630 (2024) 884 (2014) 1580 940 1120 1170 1530 1780 2040 2560
2026-02-10 07:45 3.76 2630 (2024) 884 (2014) 1580 940 1120 1170 1530 1780 2040 2560
2026-02-10 06:45 3.77 2630 (2024) 884 (2014) 1580 940 1120 1170 1530 1780 2040 2560
2026-02-10 05:45 3.80 2630 (2024) 884 (2014) 1580 940 1120 1170 1530 1780 2040 2560
2026-02-10 04:45 3.88 2630 (2024) 884 (2014) 1580 940 1120 1170 1530 1780 2040 2560
2026-02-10 03:45 4.04 2630 (2024) 884 (2014) 1580 940 1120 1170 1530 1780 2040 2560
2026-02-10 02:45 3.94 2630 (2024) 884 (2014) 1580 940 1120 1170 1530 1780 2040 2560
2026-02-10 01:45 3.98 2630 (2024) 884 (2014) 1580 940 1120 1170 1530 1780 2040 2560
2026-02-10 00:45 4.13 2630 (2024) 884 (2014) 1580 940 1120 1170 1530 1780 2040 2560
2026-02-09 23:45 4.15 2630 (2024) 884 (2014) 1580 940 1120 1170 1530 1780 2040 2560
2026-02-09 22:45 4.15 2550 (2024) 860 (2014) 1570 953 1210 1240 1480 1700 2020 2520
2026-02-09 21:45 4.24 2550 (2024) 860 (2014) 1570 953 1210 1240 1480 1700 2020 2520
2026-02-09 20:45 4.28 2550 (2024) 860 (2014) 1570 953 1210 1240 1480 1700 2020 2520
2026-02-09 19:45 4.32 2550 (2024) 860 (2014) 1570 953 1210 1240 1480 1700 2020 2520
2026-02-09 18:45 4.40 2550 (2024) 860 (2014) 1570 953 1210 1240 1480 1700 2020 2520
2026-02-09 17:45 4.34 2550 (2024) 860 (2014) 1570 953 1210 1240 1480 1700 2020 2520
2026-02-09 16:45 4.38 2550 (2024) 860 (2014) 1570 953 1210 1240 1480 1700 2020 2520
2026-02-09 15:45 4.38 2550 (2024) 860 (2014) 1570 953 1210 1240 1480 1700 2020 2520
2026-02-09 14:45 4.37 2550 (2024) 860 (2014) 1570 953 1210 1240 1480 1700 2020 2520
2026-02-09 13:45 4.35 2550 (2024) 860 (2014) 1570 953 1210 1240 1480 1700 2020 2520
2026-02-09 12:45 4.37 2550 (2024) 860 (2014) 1570 953 1210 1240 1480 1700 2020 2520
2026-02-09 11:45 4.39 2550 (2024) 860 (2014) 1570 953 1210 1240 1480 1700 2020 2520
2026-02-09 10:45 4.39 2550 (2024) 860 (2014) 1570 953 1210 1240 1480 1700 2020 2520
2026-02-09 09:45 4.35 2550 (2024) 860 (2014) 1570 953 1210 1240 1480 1700 2020 2520
2026-02-09 08:45 4.33 2550 (2024) 860 (2014) 1570 953 1210 1240 1480 1700 2020 2520
2026-02-09 07:45 4.42 2550 (2024) 860 (2014) 1570 953 1210 1240 1480 1700 2020 2520
2026-02-09 06:45 4.45 2550 (2024) 860 (2014) 1570 953 1210 1240 1480 1700 2020 2520
2026-02-09 05:45 4.51 2550 (2024) 860 (2014) 1570 953 1210 1240 1480 1700 2020 2520
2026-02-09 04:45 4.54 2550 (2024) 860 (2014) 1570 953 1210 1240 1480 1700 2020 2520
2026-02-09 03:45 4.55 2550 (2024) 860 (2014) 1570 953 1210 1240 1480 1700 2020 2520
2026-02-09 02:45 4.60 2550 (2024) 860 (2014) 1570 953 1210 1240 1480 1700 2020 2520
2026-02-09 01:45 4.61 2550 (2024) 860 (2014) 1570 953 1210 1240 1480 1700 2020 2520
2026-02-09 00:45 4.66 2550 (2024) 860 (2014) 1570 953 1210 1240 1480 1700 2020 2520
2026-02-08 23:45 4.70 2550 (2024) 860 (2014) 1570 953 1210 1240 1480 1700 2020 2520
2026-02-08 22:45 4.71 2560 (2024) 818 (2014) 1540 885 1200 1310 1440 1690 1970 2500
2026-02-08 21:45 4.80 2560 (2024) 818 (2014) 1540 885 1200 1310 1440 1690 1970 2500
2026-02-08 20:45 4.79 2560 (2024) 818 (2014) 1540 885 1200 1310 1440 1690 1970 2500
2026-02-08 19:45 4.84 2560 (2024) 818 (2014) 1540 885 1200 1310 1440 1690 1970 2500
2026-02-08 18:45 4.91 2560 (2024) 818 (2014) 1540 885 1200 1310 1440 1690 1970 2500
2026-02-08 17:45 4.90 2560 (2024) 818 (2014) 1540 885 1200 1310 1440 1690 1970 2500
2026-02-08 16:45 4.88 2560 (2024) 818 (2014) 1540 885 1200 1310 1440 1690 1970 2500
2026-02-08 15:45 4.89 2560 (2024) 818 (2014) 1540 885 1200 1310 1440 1690 1970 2500
2026-02-08 14:45 4.95 2560 (2024) 818 (2014) 1540 885 1200 1310 1440 1690 1970 2500
2026-02-08 13:45 4.99 2560 (2024) 818 (2014) 1540 885 1200 1310 1440 1690 1970 2500
2026-02-08 12:45 4.98 2560 (2024) 818 (2014) 1540 885 1200 1310 1440 1690 1970 2500
2026-02-08 11:45 4.96 2560 (2024) 818 (2014) 1540 885 1200 1310 1440 1690 1970 2500
2026-02-08 10:45 4.93 2560 (2024) 818 (2014) 1540 885 1200 1310 1440 1690 1970 2500
2026-02-08 09:45 4.91 2560 (2024) 818 (2014) 1540 885 1200 1310 1440 1690 1970 2500
2026-02-08 08:45 4.94 2560 (2024) 818 (2014) 1540 885 1200 1310 1440 1690 1970 2500
2026-02-08 07:45 4.97 2560 (2024) 818 (2014) 1540 885 1200 1310 1440 1690 1970 2500
2026-02-08 06:45 5.02 2560 (2024) 818 (2014) 1540 885 1200 1310 1440 1690 1970 2500
2026-02-08 05:45 5.01 2560 (2024) 818 (2014) 1540 885 1200 1310 1440 1690 1970 2500
2026-02-08 04:45 5.03 2560 (2024) 818 (2014) 1540 885 1200 1310 1440 1690 1970 2500
2026-02-08 03:45 5.04 2560 (2024) 818 (2014) 1540 885 1200 1310 1440 1690 1970 2500
2026-02-08 02:45 5.05 2560 (2024) 818 (2014) 1540 885 1200 1310 1440 1690 1970 2500
2026-02-08 01:45 5.06 2560 (2024) 818 (2014) 1540 885 1200 1310 1440 1690 1970 2500
2026-02-08 00:45 5.10 2560 (2024) 818 (2014) 1540 885 1200 1310 1440 1690 1970 2500
2026-02-07 23:45 5.11 2560 (2024) 818 (2014) 1540 885 1200 1310 1440 1690 1970 2500

A total of 2196 rows are displayed for years 2014 through 2025.